[[{"header":{"parameterUnit":"m.s-1","parameterCategory":1,"la1":31.0,"la2":29.5877,"lo1":-88.7671,"lo2":-86.6584,"dy":0.0162,"dx":0.0185,"nx":115,"ny":88,"refTime":"2023-10-14T00:00:00:Z","depth":0,"parameterNumber":2,"parameterNumberName":"U-component_of_WINDS"},"data":[0.0,0.0,0.0,0.0,0.0,0.0,0.0,0.0,0.0,0.0,0.0,0.0,0.0,0.0,0.0,0.0,0.0,0.0,0.0,0.0,0.0,0.0,0.0,0.0,0.0,0.0,0.0,0.0,0.0,0.0,0.0,0.0,0.0,0.0,0.0,0.0,0.0,0.0,0.0,0.0,0.0,0.0,0.0,0.0,0.0,0.0,0.0,0.0,0.0,0.0,0.0,0.0,0.0,0.0,0.0,0.0,0.0,0.0,0.0,0.0,0.0,0.0,0.0,0.0,0.0,0.0,0.0,0.0,0.0,0.0,0.0,0.0,0.0,0.0,0.0,0.0,0.0,0.0,0.0,0.0,0.0,0.0,0.0,0.0,0.0,0.0,0.0,0.0,0.0,0.0,0.0,0.0,0.0,0.0,0.0,0.0,0.0,0.0,0.0,0.0,0.0,0.0,0.0,0.0,0.0,0.0,0.0,0.0,0.0,0.0,0.0,0.0,0.0,0.0,0.0,0.0,0.0,0.0,0.0,0.0,0.0,0.0,0.0,0.0,0.0,0.0,0.0,0.0,0.0,0.0,0.0,0.0,0.0,0.0,0.0,0.0,0.0,0.0,0.0,0.0,0.0,0.0,0.0,0.0,0.0,0.0,0.0,0.0,0.0,0.0,0.0,0.0,0.0,0.0,0.0,0.0,0.0,0.0,0.0,0.0,0.0,0.0,0.0,0.0,0.0,0.0,0.0,0.0,0.0,0.0,0.0,0.0,0.0,0.0,0.0,0.0,0.0,0.0,0.0,0.0,0.0,0.0,0.0,0.0,0.0,0.0,0.0,0.0,0.0,0.0,0.0,0.0,0.0,0.0,0.0,0.0,0.0,0.0,0.0,0.0,0.0,0.0,0.0,0.0,0.0,0.0,0.0,0.0,0.0,0.0,0.0,0.0,0.0,0.0,0.0,0.0,0.0,0.0,0.0,0.0,0.0,0.0,0.0,0.0,0.0,0.0,0.0,0.0,0.0,0.0,0.0,0.0,0.0,0.0,0.0,0.0,0.0,0.0,0.0,0.0,0.0,0.0,0.0,0.0,0.0,0.0,0.0,0.0,0.0,0.0,0.0,0.0,0.0,0.0,0.0,0.0,0.0,0.0,0.0,0.0,0.0,0.0,0.0,0.0,0.0,0.0,0.0,0.0,0.0,0.0,0.0,0.0,0.0,0.0,0.0,0.0,0.0,0.0,0.0,0.0,0.0,0.0,0.0,0.0,0.0,0.0,0.0,0.0,0.0,0.0,0.0,0.0,0.0,0.0,0.0,0.0,0.0,0.0,0.0,0.0,0.0,0.0,0.0,0.0,0.0,0.0,0.0,0.0,0.0,0.0,0.0,0.0,0.0,0.0,0.0,0.0,0.0,0.0,0.0,0.0,0.0,0.0,0.0,0.0,0.0,0.0,0.0,0.0,0.0,0.0,0.0,0.0,0.0,0.0,0.0,0.0,0.0,0.0,0.0,0.0,0.0,0.0,0.0,0.0,0.0,0.0,0.0,0.0,0.0,0.0,0.0,0.0,0.0,0.0,0.0,0.0,0.0,0.0,0.0,0.0,0.0,0.0,0.0,0.0,0.0,0.0,0.0,0.0,0.0,0.0,0.0,0.0,0.0,0.0,0.0,0.0,0.0,0.0,0.0,0.0,0.0,0.0,0.0,0.0,0.0,0.0,0.0,0.0,0.0,0.0,0.0,0.0,0.0,0.0,0.0,0.0,0.0,0.0,0.0,0.0,0.0,0.0,0.0,0.0,0.0,0.0,0.0,0.0,0.0,0.0,0.0,0.0,0.0,0.0,0.0,0.0,0.0,0.0,0.0,0.0,0.0,0.0,0.0,0.0,0.0,0.0,0.0,0.0,0.0,0.0,0.0,0.0,0.0,0.0,0.0,0.0,0.0,0.0,0.0,0.0,0.0,0.0,0.0,0.0,0.0,0.0,0.0,0.0,0.0,0.0,0.0,0.0,0.0,0.0,0.0,0.0,0.0,0.0,0.0,0.0,0.0,0.0,0.0,0.0,0.0,0.0,0.0,0.0,0.0,0.0,0.0,0.0,0.0,0.0,0.0,0.0,0.0,0.0,0.0,0.0,0.0,0.0,0.0,0.0,0.0,0.0,0.0,0.0,0.0,0.0,0.0,0.0,0.0,0.0,0.0,0.0,0.0,0.0,0.0,0.0,0.0,0.0,0.0,0.0,0.0,0.0,0.0,0.0,0.0,0.0,0.0,0.0,0.0,0.0,0.0,0.0,0.0,0.0,0.0,0.0,0.0,0.0,0.0,0.0,0.0,0.0,0.0,0.0,0.0,0.0,0.0,0.0,0.0,0.0,0.0,0.0,0.0,0.0,0.0,0.0,0.0,0.0,0.0,0.0,0.0,0.0,0.0,0.0,0.0,0.0,0.0,0.0,0.0,0.0,0.0,0.0,0.0,0.0,0.0,0.0,0.0,0.0,0.0,0.0,0.0,0.0,0.0,0.0,0.0,0.0,0.0,0.0,0.0,0.0,0.0,0.0,0.0,0.0,0.0,0.0,0.0,0.0,0.0,0.0,0.0,0.0,0.0,0.0,0.0,0.0,0.0,0.0,0.0,0.0,0.0,0.0,0.0,0.0,0.0,0.0,0.0,0.0,0.0,0.0,0.0,0.0,0.0,0.0,0.0,0.0,0.0,0.0,0.0,0.0,0.0,0.0,0.0,0.0,0.0,0.0,0.0,0.0,0.0,0.0,0.0,0.0,0.0,0.0,0.0,0.0,0.0,0.0,0.0,0.0,0.0,0.0,0.0,0.0,0.0,0.0,0.0,0.0,0.0,0.0,0.0,0.0,0.0,0.0,0.0,0.0,0.0,0.0,0.0,0.0,0.0,0.0,0.0,0.0,0.0,0.0,0.0,0.0,0.0,0.0,0.0,0.0,0.0,0.0,0.0,0.0,0.0,0.0,0.0,0.0,0.0,0.0,0.0,0.0,0.0,0.0,0.0,0.0,0.0,0.0,0.0,0.0,0.0,0.0,0.0,0.0,0.0,0.0,0.0,0.0,0.0,0.0,0.0,0.0,0.0,0.0,0.0,0.0,0.0,0.0,0.0,0.0,0.0,0.0,0.0,0.0,0.0,0.0,0.0,0.0,0.0,0.0,0.0,0.0,0.0,0.0,0.0,0.0,0.0,0.0,0.0,0.0,0.0,0.0,0.0,0.0,0.0,0.0,0.0,0.0,0.0,0.0,0.0,0.0,0.0,0.0,0.0,0.0,0.0,0.0,0.0,0.0,0.0,0.0,0.0,0.0,0.0,0.0,0.0,0.0,0.0,0.0,0.0,0.0,0.0,0.0,0.0,0.0,0.0,0.0,0.0,0.0,0.0,0.0,0.0,0.0,0.0,0.0,0.0,0.0,0.0,0.0,0.0,0.0,0.0,0.0,0.0,0.0,0.0,0.0,0.0,0.0,0.0,0.0,0.0,0.0,0.0,0.0,0.0,0.0,0.0,0.0,0.0,0.0,0.0,0.0,0.0,0.0,0.0,0.0,0.0,0.0,0.0,0.0,0.0,0.0,0.0,0.0,0.0,0.0,0.0,0.0,0.0,0.0,0.0,0.0,0.0,0.0,0.0,0.0,0.0,0.0,0.0,0.0,0.0,0.0,0.0,0.0,0.0,0.0,0.0,0.0,0.0,0.0,0.0,0.0,0.0,0.0,0.0,0.0,0.0,0.0,0.0,0.0,0.0,0.0,0.0,0.0,0.0,0.0,0.0,0.0,0.0,0.0,0.0,0.0,0.0,0.0,0.0,0.0,0.0,0.0,0.0,0.0,0.0,0.0,0.0,0.0,0.0,0.0,0.0,0.0,0.0,0.0,0.0,0.0,0.0,0.0,0.0,0.0,0.0,0.0,0.0,0.0,0.0,0.0,0.0,0.0,0.0,0.0,0.0,0.0,0.0,0.0,0.0,0.0,0.0,0.0,0.0,0.0,0.0,0.0,0.0,0.0,0.0,0.0,0.0,0.0,0.0,0.0,0.0,0.0,0.0,0.0,0.0,0.0,0.0,0.0,0.0,0.0,0.0,0.0,0.0,0.0,0.0,0.0,0.0,0.0,0.0,0.0,0.0,0.0,0.0,0.0,0.0,0.0,0.0,0.0,0.0,0.0,0.0,0.0,0.0,0.0,0.0,0.0,0.0,0.0,0.0,0.0,0.0,0.0,0.0,0.0,0.0,0.0,0.0,0.0,0.0,0.0,0.0,0.0,0.4754,0.0,0.0,0.0,0.0,0.0,0.0,0.0,0.0,0.0,0.0,0.0,0.0,0.0,0.0,0.0,0.0,0.0,0.0,0.0,0.0,0.0,0.0,0.0,0.0,0.0,0.0,0.0,0.0,0.0,0.0,0.0,0.0,0.0,0.0,0.0,0.0,0.0,0.0,0.0,0.0,0.0,0.0,0.0,0.0,0.0,0.0,0.0,0.0,0.0,0.0,0.0,0.0,0.0,0.0,0.0,0.0,0.0,0.0,0.0,0.0,0.0,0.0,0.0,0.0,0.0,0.0,0.0,0.0,0.0,0.0,0.0,0.0,0.0,0.0,0.0,0.0,0.0,0.0,0.0,0.0,0.0,0.0,0.0,0.0,0.0,0.0,0.0,0.0,0.0,0.0,0.0,0.0,0.0,0.0,0.0,0.0,0.0,0.0,0.0,0.0,0.0,0.0,0.0,0.0,0.0,0.0,0.0,0.0,0.0,0.0,0.4271,0.4236,0.4707,0.4879,0.4715,0.0,0.0,0.0,0.0,0.0,0.0,0.0,0.0,0.0,0.0,0.0,0.0,0.0,0.0,0.0,0.0,0.0,0.0,0.0,0.0,0.0,0.0,0.0,0.0,0.0,0.0,0.0,0.0,0.0,0.0,0.0,0.0,0.0,0.0,0.0,0.0,0.0,0.0,0.0,0.0,0.0,0.0,0.0,0.0,0.0,0.0,0.0,0.0,0.0,0.0,0.0,0.0,0.0,0.0,0.0,0.0,0.0,0.0,0.0,0.0,0.0,0.0,0.0,0.0,0.0,0.0,0.0,0.0,0.0,0.0,0.0,0.0,0.0,0.0,0.0,0.0,0.0,0.0,0.0,0.0,0.0,0.0,0.0,0.0,0.0,0.0,0.0,0.0,0.0,0.0,0.0,0.0,0.0,0.0,0.0,0.0,0.0,0.0,0.0,0.0,0.0,0.0,0.0,0.0,0.0,0.0,0.0,0.0,0.0,0.0,0.0,0.0,0.5473,0.5503,0.4856,0.0,0.0,0.0,0.0,0.0,0.0,0.0,0.0,0.0,0.0,0.0,0.0,0.0,0.0,0.0,0.0,0.0,0.0,0.0,0.0,0.0,0.0,0.0,0.0,0.0,0.0,0.0,0.0,0.0,0.0,0.0,0.0,0.0,0.0,0.0,0.0,0.0,0.0,0.0,0.0,0.0,0.0,0.0,0.0,0.0,0.0,0.0,0.0,0.0,0.0,0.0,0.0,0.0,0.0,0.0,0.0,0.0,0.0,0.0,0.0,0.0,0.0,0.0,0.0,0.0,0.0,0.0,0.0,0.0,0.0,0.0,0.0,0.0,0.0,0.0,0.0,0.0,0.0,0.0,0.0,0.0,0.0,0.0,0.0,0.0,0.0,0.0,0.0,0.0,0.0,0.0,0.0,0.0,0.0,0.0,0.0,0.0,0.0,0.0,0.0,0.0,0.0,0.0,0.0,0.0,0.0,0.0,0.0,0.0,0.0,0.523,0.5662,0.6036,0.0,0.5456,0.0,0.0,0.0,0.0,0.0,0.0,0.0,0.0,0.0,0.0,0.0,0.0,0.0,0.0,0.0,0.0,0.0,0.0,0.0,0.0,0.0,0.0,0.0,0.0,0.0,0.0,0.0,0.0,0.0,0.0,0.0,0.0,0.0,0.0,0.0,0.0,0.0,0.0,0.0,0.0,0.0,0.0,0.0,0.0,0.0,0.0,0.0,0.0,0.0,0.0,0.0,0.0,0.0,0.0,0.0,0.0,0.0,0.0,0.0,0.0,0.0,0.0,0.0,0.0,0.0,0.0,0.0,0.0,0.0,0.0,0.0,0.0,0.0,0.0,0.0,0.0,0.0,0.0,0.0,0.0,0.0,0.0,0.0,0.0,0.0,0.0,0.0,0.0,0.0,0.0,0.0,0.0,0.0,0.0,0.0,0.0,0.0,0.0,0.0,0.0,0.0,0.0,0.0,0.0,0.0,0.0,0.0,0.0,0.0,0.0,0.5449,0.5399,0.5587,0.5594,0.0,0.0,0.0,0.0,0.0,0.0,0.0,0.0,0.0,0.0,0.0,0.0,0.0,0.0,0.0,0.0,0.0,0.0,0.0,0.0,0.0,0.0,0.0,0.0,0.0,0.0,0.0,0.0,0.0,0.0,0.0,0.0,0.0,0.0,0.0,0.0,0.0,0.0,0.0,0.0,0.0,0.0,0.0,0.0,0.0,0.0,0.0,0.0,0.0,0.0,0.0,0.0,0.0,0.0,0.0,0.0,0.0,0.0,0.0,0.0,0.0,0.0,0.0,0.0,0.0,0.0,0.0,0.0,0.0,0.0,0.0,0.0,0.0,0.0,0.0,0.0,0.0,0.0,0.0,0.0,0.0,0.0,0.0,0.0,0.0,0.0,0.0,0.0,0.0,0.0,0.0,0.0,0.0,0.0,0.0,0.0,0.0,0.0,0.0,0.0,0.0,0.0,0.0,0.0,0.0,0.0,0.0,0.0,0.0,0.0,0.5079,0.5605,0.551,0.5706,0.5614,0.524,0.0,0.0,0.0,0.0,0.0,0.0,0.0,0.0,0.0,0.0,0.0,0.0,0.0,0.0,0.0,0.0,0.0,0.0,0.0,0.0,0.0,0.0,0.0,0.0,0.0,0.0,0.0,0.0,0.0,0.0,0.0,0.0,0.0,0.0,0.0,0.0,0.0,0.0,0.0,0.0,0.0,0.0,0.0,0.0,0.0,0.0,0.0,0.0,0.0,0.0,0.0,0.0,0.0,0.0,0.0,0.0,0.0,0.0,0.0,0.0,0.0,0.0,0.0,0.0,0.0,0.0,0.0,0.0,0.0,0.0,0.0,0.0,0.0,0.0,0.0,0.0,0.0,0.0,0.0,0.0,0.0,0.0,0.0,0.0,0.0,0.0,0.0,0.0,0.0,0.0,0.0,0.0,0.0,0.0,0.0,0.0,0.0,0.0,0.0,0.0,0.0,0.0,0.0,0.0,0.0,0.0,0.0,0.0,0.4771,0.5134,0.5678,0.6399,0.68,0.6383,0.0,0.0,0.0,0.0,0.0,0.0,0.0,0.0,0.0,0.0,0.0,0.0,0.0,0.0,0.0,0.0,0.0,0.0,0.0,0.0,0.0,0.0,0.0,0.0,0.0,0.0,0.0,0.0,0.0,0.0,0.0,0.0,0.0,0.0,0.0,0.0,0.0,0.0,0.0,0.0,0.0,0.0,0.0,0.0,0.0,0.0,0.0,0.0,0.0,0.0,0.0,0.0,0.0,0.0,0.0,0.0,0.0,0.0,0.0,0.0,0.0,0.0,0.0,0.0,0.0,0.0,0.0,0.0,0.0,0.0,0.0,0.0,0.0,0.0,0.0,0.0,0.0,0.0,0.0,0.0,0.0,0.0,0.0,0.0,0.0,0.0,0.0,0.0,0.0,0.0,0.0,0.0,0.0,0.0,0.0,0.0,0.0,0.0,0.0,0.0,0.0,0.0,0.0,0.0,0.0,0.0,0.0,0.0,0.0,0.375,0.4296,0.5277,0.6588,0.5934,0.5585,0.0,0.0,0.0,0.0,0.0,0.0,0.0,0.0,0.0,0.0,0.0,0.0,0.0,0.0,0.0,0.0,0.0,0.0,0.0,0.0,0.0,0.0,0.0,0.0,0.0,0.0,0.0,0.0,0.0,0.0,0.0,0.0,0.0,0.0,0.0,0.0,0.0,0.0,0.0,0.0,0.0,0.0,0.0,0.0,0.0,0.0,0.0,0.0,0.0,0.0,0.0,0.0,0.0,0.0,0.0,0.0,0.0,0.0,0.0,0.0,0.0,0.0,0.0,0.0,0.0,0.0,0.0,0.0,0.0,0.0,0.0,0.0,0.0,0.0,0.0,0.0,0.0,0.0,0.0,0.0,0.0,0.0,0.0,0.0,0.0,0.0,0.0,0.0,0.0,0.0,0.0,0.0,0.0,0.0,0.0,0.0,0.0,0.0,0.0,0.0,0.0,0.0,0.0,0.0,0.0,0.0,0.0,0.0,0.0,0.3629,0.0,0.5308,0.6096,0.5397,0.5078,0.0,0.0,0.0,0.0,0.0,0.0,0.0,0.0,0.0,0.0,0.0,0.0,0.0,0.0,0.0,0.0,0.0,0.0,0.0,0.0,0.0,0.0,0.0,0.0,0.0,0.0,0.0,0.0,0.0,0.0,0.0,0.0,0.0,0.0,0.0,0.0,0.0,0.0,0.0,0.0,0.0,0.0,0.0,0.0,0.0,0.0,0.0,0.0,0.0,0.0,0.0,0.0,0.0,0.0,0.0,0.0,0.0,0.0,0.0,0.0,0.0,0.0,0.0,0.0,0.0,0.0,0.0,0.0,0.0,0.0,0.0,0.0,0.0,0.0,0.0,0.0,0.0,0.0,0.0,0.0,0.0,0.0,0.0,0.0,0.0,0.0,0.0,0.0,0.0,0.0,0.0,0.0,0.0,0.0,0.0,0.0,0.0,0.0,0.0,0.0,0.0,0.0,0.0,0.0,0.0,0.0,0.0,0.0,0.338,0.4652,0.5683,0.5832,0.4997,0.5446,0.501,0.0,0.0,0.0,0.0,0.0,0.0,0.0,0.0,0.0,0.0,0.0,0.0,0.0,0.0,0.0,0.0,0.0,0.0,0.0,0.0,0.0,0.0,0.0,0.0,0.0,0.0,0.0,0.0,0.0,0.0,0.0,0.0,0.0,0.0,0.0,0.0,0.0,0.0,0.0,0.0,0.0,0.0,0.0,0.0,0.0,0.0,0.0,0.0,0.0,0.0,0.0,0.0,0.0,0.0,0.0,0.0,0.0,0.0,0.0,0.0,0.0,0.0,0.0,0.0,0.0,0.0,0.0,0.0,0.0,0.0,0.0,0.0,0.0,0.0,0.0,0.0,0.0,0.0,0.0,0.0,0.0,0.0,0.0,0.0,0.0,0.0,0.0,0.0,0.0,0.0,0.0,0.0,0.0,0.0,0.0,0.0,0.0,0.0,0.0,0.0,0.0,0.0,0.0,0.0,0.0,0.0,0.0,0.0,0.0,0.437,0.5121,0.5972,0.6801,0.5945,0.5564,0.0,0.0,0.0,0.0,0.0,0.0,0.0,0.0,0.0,0.0,0.0,0.0,0.0,0.0,0.0,0.0,0.0,0.0,0.0,0.0,0.0,0.0,0.0,0.0,0.0,0.0,0.0,0.0,0.0,0.0,0.0,0.0,0.0,0.0,0.0,0.0,0.0,0.0,0.0,0.0,0.0,0.0,0.0,0.0,0.0,0.0,0.0,0.0,0.0,0.0,0.0,0.0,0.0,0.0,0.0,0.0,0.0,0.0,0.0,0.0,0.0,0.0,0.0,0.0,0.0,0.0,0.0,0.0,0.0,0.0,0.0,0.0,0.0,0.0,0.0,0.0,0.0,0.0,0.0,0.0,0.0,0.0,0.0,0.0,0.0,0.0,0.0,0.0,0.0,0.0,0.0,0.0,0.0,0.0,0.0,0.0,0.0,0.0,0.0,0.0,0.0,0.0,0.0,0.0,0.0,0.0,0.0,0.0,0.0,0.5707,0.6378,0.7061,0.782,0.7018,0.6288,0.5766,0.0,0.0,0.0,0.0,0.0,0.0,0.0,0.0,0.0,0.0,0.0,0.0,0.0,0.0,0.0,0.0,0.0,0.0,0.0,0.0,0.0,0.0,0.0,0.0,0.0,0.0,0.0,0.0,0.0,0.0,0.0,0.0,0.0,0.0,0.0,0.0,0.0,0.0,0.0,0.0,0.0,0.0,0.0,0.0,0.0,0.0,0.0,0.0,0.0,0.0,0.0,0.0,0.0,0.0,0.0,0.0,0.0,0.0,0.0,0.0,0.0,0.0,0.0,0.0,0.0,0.0,0.0,0.0,0.0,0.0,0.0,0.0,0.0,0.0,0.0,0.0,0.0,0.0,0.0,0.0,0.0,0.0,0.0,0.0,0.0,0.0,0.0,0.0,0.0,0.0,0.0,0.0,0.0,0.0,0.0,0.0,0.0,0.0,0.0,0.0,0.0,0.0,0.0,0.0,0.0,0.0,0.0,0.0,0.8336,0.9076,0.9057,0.8277,0.8554,0.7294,0.0,0.0,0.0,0.0,0.0,0.0,0.0,0.0,0.0,0.0,0.0,0.0,0.0,0.0,0.0,0.0,0.0,0.0,0.0,0.0,0.0,0.0,0.0,0.0,0.0,0.0,0.0,0.0,0.0,0.0,0.0,0.0,0.0,0.0,0.0,0.0,0.0,0.0,0.0,0.0,0.0,0.0,0.0,0.0,0.0,0.0,0.0,0.0,0.0,0.0,0.0,0.0,0.0,0.0,0.0,0.0,0.0,0.0,0.0,0.0,0.0,0.0,0.0,0.0,0.0,0.0,0.0,0.0,0.0,0.0,0.0,0.0,0.0,0.0,0.0,0.0,0.0,0.0,0.0,0.0,0.0,0.0,0.0,0.0,0.0,0.0,0.0,0.0,0.0,0.0,0.0,0.0,0.0,0.0,0.0,0.0,0.0,0.0,0.0,0.0,0.0,0.0,0.0,0.0,0.0,0.0,0.0,0.0,0.0,0.9973,1.0957,1.1533,1.1676,1.012,0.8836,0.0,0.0,0.0,0.0,0.0,0.0,0.0,0.0,0.0,0.0,0.0,0.0,0.0,0.0,0.0,0.0,0.0,0.0,0.0,0.0,0.0,0.0,0.0,0.0,0.0,0.0,0.0,0.0,0.0,0.0,0.0,0.0,0.0,0.0,0.0,0.0,0.0,0.0,0.0,0.0,0.0,0.0,0.0,0.0,0.0,0.0,0.0,0.0,0.0,0.0,0.0,0.0,0.0,0.0,0.0,0.0,0.0,0.0,0.0,0.0,0.0,0.0,0.0,0.0,0.0,0.0,0.0,0.0,0.0,0.0,0.0,0.0,0.0,0.0,0.0,0.0,0.0,0.0,0.0,0.0,0.0,0.0,0.0,0.0,0.0,0.0,0.0,0.0,0.0,0.0,0.0,0.0,0.0,0.0,0.0,0.0,0.0,0.0,0.0,0.0,0.0,0.0,0.0,0.0,0.0,0.0,0.0,0.0,0.9015,1.1013,1.2924,1.4155,1.451,1.1847,0.9903,0.0,0.0,0.0,0.0,0.0,0.0,0.0,0.0,0.0,0.0,0.0,0.0,0.0,0.0,0.0,0.0,0.0,0.0,0.0,0.0,0.0,0.0,0.0,0.0,0.0,0.0,0.0,0.0,0.0,0.0,0.0,0.0,0.0,0.0,0.0,0.0,0.0,0.0,0.0,0.0,0.0,0.0,0.0,0.0,0.0,0.0,0.0,0.0,0.0,0.0,0.0,0.0,0.0,0.0,0.0,0.0,0.0,0.0,0.0,0.0,0.0,0.0,0.0,0.0,0.0,0.0,0.0,0.0,0.0,0.0,0.0,0.0,0.0,0.0,0.0,0.0,0.0,0.0,0.0,0.0,0.0,0.0,0.0,0.0,0.0,0.0,0.0,0.0,0.0,0.0,0.0,0.0,0.0,0.0,0.0,0.0,0.0,0.0,0.0,0.0,0.0,0.0,0.0,0.0,0.0,0.0,0.0,0.0,1.0578,1.1712,1.4689,1.6306,1.6403,1.3465,1.0784,0.0,0.0,0.0,0.0,0.0,0.0,0.0,0.0,0.0,0.0,0.0,0.0,0.0,0.0,0.0,0.0,0.0,0.0,0.0,0.0,0.0,0.0,0.0,0.0,0.0,0.0,0.0,0.0,0.0,0.0,0.0,0.0,0.0,0.0,0.0,0.0,0.0,0.0,0.0,0.0,0.0,0.0,0.0,0.0,0.0,0.0,0.0,0.0,0.0,0.0,0.0,0.0,0.0,0.0,0.0,0.0,0.0,0.0,0.0,0.0,0.0,0.0,0.0,0.0,0.0,0.0,0.0,0.0,0.0,0.0,0.0,0.0,0.0,0.0,0.0,0.0,0.0,0.0,0.0,0.0,0.0,0.0,0.0,0.0,0.0,0.0,0.0,0.0,0.0,0.0,0.0,0.0,0.0,0.0,0.0,0.0,0.0,0.0,0.0,0.0,0.0,0.0,0.0,0.0,0.0,0.0,0.0,0.0,1.1247,1.2892,1.4417,1.5623,1.638,1.3668,1.1775,0.0,0.0,0.0,0.0,0.0,0.0,0.0,0.0,0.0,0.0,0.0,0.0,0.0,0.0,0.0,0.0,0.0,0.0,0.0,0.0,0.0,0.0,0.0,0.0,0.0,0.0,0.0,0.0,0.0,0.0,0.0,0.0,0.0,0.0,0.0,0.0,0.0,0.0,0.0,0.0,0.0,0.0,0.0,0.0,0.0,0.0,0.0,0.0,1.2791,0.0,0.0,0.0,0.0,0.0,0.0,0.0,0.0,0.0,0.0,0.0,0.0,0.0,0.0,0.0,0.0,0.0,0.0,0.0,0.0,0.0,0.0,0.0,0.0,0.0,0.0,0.0,0.0,0.0,0.0,0.0,0.0,0.0,0.0,0.0,0.0,0.0,0.0,0.0,0.0,0.0,0.0,0.0,0.0,0.0,0.0,0.0,0.0,0.0,0.0,0.0,0.0,0.0,0.0,0.0,0.0,0.0,0.0,0.0,1.1809,1.3599,1.4946,1.5856,1.633,1.4487,1.2897,0.0,0.0,0.0,0.0,0.0,0.0,0.0,0.0,0.0,0.0,0.0,0.0,0.0,0.0,0.0,0.0,0.0,0.0,0.0,0.0,0.0,0.0,0.0,0.0,0.0,0.0,0.0,0.0,0.0,0.0,0.0,0.0,0.0,0.0,0.0,0.0,0.0,0.0,0.0,0.0,0.0,0.0,0.0,0.0,0.0,0.0,0.0,0.0,0.0,0.0,0.0,0.0,0.0,0.0,0.0,0.0,0.0,0.0,0.0,0.0,0.0,0.0,0.0,0.0,0.0,0.0,0.0,0.0,0.0,0.0,0.0,0.0,0.0,0.0,0.0,0.0,0.0,0.0,0.0,0.0,0.0,0.0,0.0,0.0,0.0,0.0,0.0,0.0,0.0,0.0,0.0,0.0,0.0,0.0,0.0,0.0,0.0,0.0,0.0,0.0,0.0,0.0,0.0,0.0,0.0,0.0,0.0,1.0432,1.2469,1.4416,1.5831,1.656,1.6548,1.5424,1.3799,1.1663,0.0,0.0,0.0,0.0,0.0,0.0,0.0,0.0,0.0,0.0,0.0,0.0,0.0,0.0,0.0,0.0,0.0,0.0,0.0,0.0,0.0,0.0,0.0,0.0,0.0,0.0,0.0,0.0,0.0,0.0,0.0,0.0,0.0,0.0,0.0,0.0,0.0,0.0,0.9175,0.9825,0.0,0.0,0.0,0.0,0.0,0.0,0.0,0.0,1.2252,0.0,0.0,0.0,0.0,0.0,0.0,0.0,0.0,0.0,0.0,0.0,0.0,0.0,0.0,0.0,0.0,0.0,0.0,0.0,0.0,0.0,0.0,0.0,0.0,0.0,0.0,0.0,0.0,0.0,0.0,0.0,0.0,0.0,0.0,0.0,0.0,0.0,0.0,0.0,0.0,0.0,0.0,0.0,0.0,0.0,0.0,0.0,0.0,0.0,0.0,0.0,0.0,0.0,0.0,0.0,0.0,1.0941,1.1905,1.3784,1.6596,1.7048,1.725,1.72,1.5706,1.3848,1.1668,0.0,0.0,0.0,0.0,0.0,0.0,0.0,0.0,0.0,0.0,0.0,0.0,0.0,0.0,0.0,0.0,0.0,0.0,0.0,0.0,0.0,0.0,0.0,0.0,0.0,0.0,0.0,0.0,0.0,0.0,0.0,0.0,0.0,0.0,0.0,0.0,0.0,0.0,0.0,1.2157,1.2228,0.0,0.0,0.0,0.0,0.0,0.0,0.0,0.0,1.3966,0.0,0.0,0.0,0.0,0.0,0.0,0.0,0.0,0.0,0.0,0.0,0.0,0.0,0.0,0.0,0.0,0.0,0.0,0.0,0.0,0.0,0.0,0.0,0.0,0.0,0.0,0.0,0.0,0.0,0.0,0.0,0.0,0.0,0.0,0.0,0.0,0.0,0.0,0.0,0.0,0.0,0.0,0.0,0.0,0.0,0.0,0.0,0.0,0.0,0.0,0.0,0.0,0.0,0.0,0.0,1.1628,1.3456,1.5428,1.7517,1.7743,1.7815,1.7765,1.5906,1.3986,0.0,0.0,0.0,0.0,0.0,0.0,0.0,0.0,0.0,0.0,0.0,0.0,0.0,0.0,0.0,0.0,0.0,0.0,0.0,0.0,0.0,0.0,0.0,0.0,0.0,0.0,0.0,0.0,0.0,0.0,0.0,0.0,0.0,0.0,0.0,0.0,0.0,0.0,0.0,0.0,1.3516,1.3686,1.6159,0.0,0.0,0.0,0.0,0.0,0.0,1.4906,1.4141,0.0,0.0,0.0,0.0,0.0,0.0,0.0,0.0,0.0,0.0,0.0,0.0,0.0,0.0,0.0,0.0,0.0,0.0,0.0,0.0,0.0,0.0,0.0,0.0,0.0,0.0,0.0,0.0,0.0,0.0,0.0,0.0,0.0,0.0,0.0,0.0,0.0,0.0,0.0,0.0,0.0,0.0,0.0,0.0,0.0,0.0,0.0,0.0,0.0,0.0,0.0,0.0,0.0,0.0,0.0,1.1889,1.4679,1.6798,1.8136,1.8307,1.8367,1.8329,1.5982,1.4022,0.0,0.0,0.0,0.0,0.0,0.0,0.0,0.0,0.0,0.0,0.0,0.0,0.0,0.0,0.0,0.0,0.0,0.0,0.0,0.0,0.0,0.0,0.0,0.0,0.0,0.0,0.0,0.0,0.0,0.0,0.0,0.0,0.0,0.0,0.0,0.0,0.0,0.0,0.0,0.0,0.0,1.5073,1.7894,1.5748,0.0,0.0,0.0,0.0,1.6094,1.5506,0.0,0.0,0.0,0.0,0.0,0.0,0.0,0.0,0.0,0.0,0.0,0.0,0.0,0.0,0.0,0.0,0.0,0.0,0.0,0.0,0.0,0.0,0.0,0.0,0.0,0.0,0.0,0.0,0.0,0.0,0.0,0.0,0.0,0.0,0.0,0.0,0.0,0.0,0.0,0.0,0.0,0.0,0.0,0.0,0.0,0.0,0.0,0.0,0.0,0.0,0.0,0.0,0.0,0.0,0.0,0.0,1.2242,1.4983,1.7235,1.8795,1.8932,1.8883,1.8845,1.5872,1.369,0.0,0.0,0.0,0.0,0.0,0.0,0.0,0.0,0.0,0.0,0.0,0.0,0.0,0.0,0.0,0.0,0.0,0.0,0.0,0.0,0.0,0.0,0.0,0.0,0.0,0.0,0.0,0.0,0.0,0.0,0.0,0.0,0.0,0.0,0.0,0.0,0.0,0.0,0.0,0.0,0.0,1.6138,1.5207,1.5227,1.4732,0.0,0.0,1.742,1.7355,1.8724,0.0,0.0,0.0,0.0,0.0,0.0,0.0,0.0,0.0,0.0,0.0,0.0,0.0,0.0,0.0,0.0,0.0,0.0,0.0,0.0,0.0,0.0,0.0,0.0,0.0,0.0,0.0,0.0,0.0,0.0,0.0,0.0,0.0,0.0,0.0,0.0,0.0,0.0,0.0,0.0,0.0,0.0,0.0,0.0,0.0,0.0,0.0,0.0,0.0,0.0,0.0,0.0,0.0,0.0,0.0,1.0945,1.2808,1.6491,1.8707,1.9434,1.9472,1.9472,1.9459,1.5655,1.3462,0.0,0.0,0.0,0.0,0.0,0.0,0.0,0.0,0.0,0.0,0.0,0.0,0.0,0.0,0.0,0.0,0.0,0.0,0.0,0.0,0.0,0.0,0.0,0.0,0.0,0.0,0.0,0.0,0.0,0.0,0.0,0.0,0.0,0.0,0.0,0.0,0.0,0.0,0.0,0.0,0.0,0.0,1.8258,1.7923,0.0,0.0,0.0,1.8647,1.6712,0.0,0.0,0.0,0.0,0.0,0.0,0.0,0.0,0.0,0.0,0.0,0.0,0.0,0.0,0.0,0.0,0.0,0.0,0.0,0.0,0.0,0.0,0.0,0.0,0.0,0.0,0.0,0.0,0.0,0.0,0.0,0.0,0.0,0.0,0.0,0.0,0.0,0.0,0.0,0.0,0.0,0.0,0.0,0.0,0.0,0.0,0.0,0.0,0.0,0.0,0.0,0.0,0.0,0.0,0.0,0.0,0.0,1.3156,1.7518,1.9798,1.9798,1.9798,1.9798,1.9736,1.6309,0.0,0.0,0.0,0.0,0.0,0.0,0.0,0.0,0.0,0.0,0.0,0.0,0.0,0.0,0.0,0.0,0.0,0.0,0.0,0.0,0.0,0.0,0.0,0.0,0.0,0.0,0.0,0.5795,0.0,0.0,0.0,0.0,0.0,0.0,0.0,0.0,0.0,0.0,0.0,0.0,0.0,0.0,1.8167,1.9957,1.9957,2.0082,0.0,0.0,2.0047,1.7947,2.1188,2.2388,0.0,0.0,0.0,0.0,0.0,0.0,0.0,0.0,0.0,0.0,0.0,0.0,0.0,0.0,0.0,0.0,0.0,0.0,0.0,0.0,0.0,0.0,0.0,0.0,0.0,0.0,0.0,0.0,0.0,0.0,0.0,0.0,0.0,0.0,0.0,0.0,0.0,0.0,0.0,0.0,0.0,0.0,0.0,0.0,0.0,0.0,0.0,0.0,0.0,0.0,0.0,0.0,0.0,0.0,0.0,1.3206,1.753,1.9798,1.9798,1.9798,1.9798,1.9773,1.8487,1.6481,0.0,0.0,0.0,0.0,0.0,0.0,0.0,0.0,0.0,0.0,0.0,0.0,0.0,0.0,0.0,0.0,0.0,0.0,0.0,0.0,0.0,0.0,0.0,0.0,0.0,0.0,0.0,0.0,0.0,0.0,0.0,0.0,0.0,0.0,0.0,0.0,0.0,0.0,0.0,0.0,0.0,1.9076,1.7199,1.9808,2.2321,0.0,0.0,2.2368,2.2952,2.4902,2.4743,2.003,0.0,0.0,0.0,0.0,0.0,0.0,0.0,0.0,0.0,0.0,0.0,0.0,0.0,0.0,0.0,0.0,0.0,0.0,0.0,0.0,0.0,0.0,0.0,0.0,0.0,0.0,0.0,0.0,0.0,0.0,0.0,0.0,0.0,0.0,0.0,0.0,0.0,0.0,0.0,0.0,0.0,0.0,0.0,0.0,0.0,0.0,0.0,0.0,0.0,0.0,0.0,0.0,0.0,1.202,1.3132,1.753,1.9798,1.9798,1.9798,1.9798,1.9798,1.8358,1.6323,0.0,0.0,0.0,0.0,0.0,0.0,0.0,0.0,0.0,0.0,0.0,0.0,0.0,0.0,0.0,0.0,0.0,0.0,0.0,0.0,0.0,0.0,0.0,0.0,0.0,0.0,0.0,0.0,1.2194,1.2521,1.1629,0.0,0.0,0.0,0.0,0.0,0.0,0.0,0.0,0.0,0.0,1.9923,2.0522,2.2251,0.0,0.0,2.4613,2.4419,2.3607,2.4823,2.4723,2.1399,1.8952,0.0,0.0,0.0,0.0,0.0,0.0,0.0,0.0,0.0,0.0,0.0,0.0,0.0,0.0,0.0,0.0,0.0,0.0,0.0,0.0,0.0,0.0,0.0,0.0,0.0,0.0,0.0,0.0,0.0,0.0,0.0,0.0,0.0,0.0,0.0,0.0,0.0,0.0,0.0,0.0,0.0,0.0,0.0,0.0,0.0,0.0,0.0,0.0,0.0,0.0,0.0,0.0,1.2029,1.3095,1.7529,1.9798,1.9798,1.9798,1.9798,1.9761,1.8949,1.7327,0.0,0.0,0.0,0.0,0.0,0.0,0.0,0.0,0.0,0.0,0.0,0.0,0.0,0.0,0.0,0.0,0.0,0.0,0.0,0.0,0.0,0.0,0.0,0.0,0.0,0.0,0.0,0.0,1.3377,1.3508,1.245,0.0,0.0,0.0,0.0,0.0,0.0,0.0,0.0,0.0,0.0,2.127,2.2701,2.3614,2.4347,2.4786,2.4843,2.489,2.5036,2.5125,2.4342,2.2082,0.0,0.0,0.0,0.0,0.0,0.0,0.0,0.0,0.0,0.0,0.0,0.0,0.0,0.0,0.0,0.0,0.0,0.0,0.0,0.0,0.0,0.0,0.0,0.0,0.0,0.0,0.0,0.0,0.0,0.0,0.1987,0.0,0.0,0.0,0.0,0.0,0.0,0.0,0.0,0.0,0.0,0.0,0.0,0.0,0.0,0.0,0.0,0.0,0.0,0.0,0.0,0.0,0.0,1.2037,1.3122,1.7518,1.9798,1.9798,1.9798,1.9798,1.985,2.0766,2.0116,1.7558,0.0,0.0,0.0,0.0,0.0,0.0,0.0,0.0,0.0,0.0,0.0,0.0,0.0,0.0,0.0,0.0,0.0,0.0,0.0,0.0,0.0,0.0,0.0,0.0,0.0,0.0,0.8408,1.0626,1.232,0.0,0.0,0.0,0.0,0.0,0.0,0.0,0.0,0.0,0.0,2.1216,2.3299,2.2569,2.3285,2.4066,2.448,2.3038,2.3454,2.7939,2.6315,2.3853,0.0,0.0,0.0,0.0,0.0,0.0,0.0,0.0,0.0,0.0,0.0,0.0,0.0,0.0,0.0,0.0,0.0,0.0,0.0,0.0,0.0,0.0,0.0,0.0,0.0,0.0,0.0,0.0305,0.0489,0.0,0.0,0.0,0.0,0.0,0.0,0.0,0.0,0.0,0.0,0.0,0.7113,0.7584,0.0,0.0,0.0,0.0,0.0,0.0,0.0,0.0,0.0,0.0,0.0,0.0,1.2385,1.3265,1.7495,1.9798,1.9798,1.9798,1.9798,1.9798,2.0845,2.0529,1.8648,0.0,0.0,0.0,0.0,0.0,0.0,0.0,0.0,0.0,0.0,0.0,0.0,0.0,0.0,0.0,0.0,0.0,0.0,0.0,0.0,0.0,0.0,0.0,0.0,0.0,1.1542,0.0,0.0,0.0,0.0,0.0,0.0,0.0,0.0,0.0,0.0,0.0,1.7256,1.864,2.024,2.196,2.3927,2.374,2.3887,0.0,0.0,0.0,0.0,0.0,0.0,0.0,0.0,0.0,0.0,0.0,0.0,0.0,0.0,2.037,1.7108,1.663,1.703,1.7865,0.0,0.0,0.0,0.0,0.0,0.0,0.0,0.0,0.0,0.0,0.0,0.0,0.0,0.0,-0.0307,0.0,0.0347,0.0,0.0,0.0,0.0,0.0,0.0,0.0,0.0,0.6529,0.719,0.7455,0.8036,0.8383,0.0,0.8867,0.8447,0.0,0.0,0.0,0.0,0.0,0.0,0.0,0.0,1.2541,1.3356,1.7556,1.9798,1.9798,1.9798,1.9798,1.9798,2.0646,2.0836,2.0182,1.7228,1.5039,0.0,0.0,0.0,0.0,0.0,0.0,0.0,0.0,0.0,0.0,0.0,0.0,0.0,0.0,0.0,0.0,0.0,0.0,0.0,0.0,0.0,0.0,0.0,1.2422,0.0,0.0,0.0,0.0,0.0,0.0,0.0,0.0,0.0,1.5424,1.7393,1.9232,2.0463,2.1266,2.2392,2.4175,0.0,0.0,0.0,0.0,0.0,0.0,0.0,2.1657,2.2031,2.1322,2.0896,2.1423,1.9522,1.9225,2.3265,0.0,0.0,2.0834,2.0546,2.1101,2.1406,2.1273,2.1427,2.2326,2.235,2.175,0.0,0.0,0.0,0.0,0.0,0.0,0.0,0.0,-0.1808,-0.0994,0.0,0.0147,0.0,0.0,0.0,0.0,0.0,0.457,0.0,0.0,0.7042,0.8113,0.832,0.8631,0.9337,1.0228,1.0062,1.0071,1.0101,0.9506,0.0,0.0,0.0,0.0,0.0,0.0,1.2508,1.3588,1.7662,1.9798,1.9798,1.9798,1.9798,1.9862,2.0359,2.1077,2.1979,1.9726,1.8341,1.8129,1.3508,0.0,0.0,0.0,0.0,0.0,0.0,0.0,0.0,0.0,0.0,0.0,0.0,0.0,0.0,0.0,0.0,0.0,0.0,0.0,0.0,1.1972,0.0,0.0,0.0,0.0,0.0,0.0,0.0,0.0,0.0,0.0,1.9747,2.0137,2.0972,2.2856,0.0,0.0,0.0,0.0,2.2958,2.2274,2.0938,2.0689,2.2304,2.2718,2.3736,2.6355,0.0,0.0,2.4737,2.4395,2.4586,2.5266,2.8183,2.9344,2.5803,2.3957,2.3202,2.3896,2.3628,2.3352,2.4219,2.5142,2.5279,-0.624,0.0,0.0,0.0,0.0,-0.3092,-0.2789,-0.2492,-0.2492,-0.1791,-0.0576,-0.0487,0.0,0.0,0.0,0.0,0.0,0.0,0.5072,0.5603,0.6811,0.7679,0.8197,0.9058,0.9633,1.0038,1.0539,1.1005,1.1494,1.1967,1.0758,0.7971,0.0,0.0,0.0,0.0,1.3613,1.4961,1.8108,1.9798,1.9798,1.9798,2.0003,2.0359,2.051,2.0944,2.1561,2.124,2.0217,1.8355,1.6829,0.0,0.0,0.0,0.0,0.0,0.0,0.0,0.0,0.0,0.0,0.0,0.0,0.0,0.0,0.0,0.0,0.0,0.0,0.0,1.1872,1.344,1.3822,0.0,0.0,0.0,0.0,0.0,0.0,0.0,0.0,0.0,2.0369,2.094,2.1291,0.0,0.0,2.1055,2.0384,2.1271,2.2402,2.3427,2.4018,0.0,2.6184,2.5991,2.6153,2.7522,2.8518,2.8943,2.8359,2.808,2.8465,2.9969,3.1322,3.1802,3.0829,2.9262,2.8265,2.8449,2.8384,2.8348,2.8664,2.896,2.909,-0.8203,-0.7042,-0.5577,-0.4946,-0.4854,-0.4349,-0.3964,-0.366,-0.3404,-0.2618,-0.1444,-0.0858,-0.0047,0.0868,0.154,0.0,0.0,0.0,0.4978,0.5606,0.6378,0.705,0.758,0.8741,0.9457,0.9923,1.088,1.1675,1.2202,1.2821,1.2004,0.9824,0.0,0.0,0.9514,1.2299,1.4306,1.5585,1.8152,1.9592,1.9798,1.9798,1.9952,2.0258,2.0308,2.0547,2.1091,2.1595,2.1264,1.9922,1.9027,1.7157,0.0,0.0,0.0,0.0,0.0,0.0,0.0,0.0,0.0,0.0,0.0,0.8579,0.0,0.0,0.0,0.0,1.1518,1.4291,1.4546,1.5067,0.0,0.0,0.0,0.0,0.0,0.0,0.0,1.5466,1.8892,2.1313,2.1134,2.1937,2.2449,2.2338,2.2052,2.1698,2.123,0.0,2.3691,2.4816,2.5727,2.6748,2.776,2.7994,2.8298,2.9285,3.0043,3.0681,3.0889,3.0771,3.119,3.243,3.2972,3.3034,3.2916,3.2071,3.1275,3.0968,3.0659,3.0462,3.0492,3.0579,3.0677,-0.9806,-0.9481,-0.6941,-0.6062,-0.6363,-0.5844,-0.5444,-0.5101,-0.4336,-0.3392,-0.2241,-0.0993,-0.0104,0.0501,0.1883,0.0,0.3316,0.4182,0.4832,0.5321,0.5968,0.6401,0.6768,0.8033,0.9042,0.9778,1.1077,1.1978,1.2387,1.2466,1.2313,1.1941,1.2615,1.2345,1.1401,1.3166,1.465,1.5665,1.7734,1.9101,1.9708,1.9798,1.9798,1.9798,1.9798,2.0055,2.061,2.1103,2.1656,2.2095,2.0489,1.9168,1.8302,0.0,0.0,0.0,0.0,0.0,0.0,0.0,0.0,0.0,0.0,0.0,0.0,0.0,0.0,0.0,1.5956,0.0,1.8675,1.6901,0.0,0.0,0.0,1.6147,1.7676,1.905,1.9356,1.8002,0.0,0.0,2.2378,2.3191,2.4182,2.5363,2.5196,2.483,2.4461,2.5343,2.6226,2.6539,2.6852,2.7341,2.8485,2.9359,3.0358,3.1421,3.1758,3.2004,3.2482,3.2646,3.2907,3.3449,3.3539,3.3513,3.3171,3.309,3.2776,3.2064,3.1256,3.0675,3.0791,3.0881,3.1002,-1.0465,-1.0212,-0.8637,-0.7776,-0.7477,-0.6965,-0.6231,-0.5449,-0.4677,-0.3712,-0.2532,-0.1335,-0.022,0.0853,0.2111,0.2863,0.3342,0.4334,0.5022,0.5423,0.6133,0.6506,0.6752,0.8121,0.9059,0.9675,1.0575,1.1286,1.1849,1.2266,1.2397,1.2169,1.2815,1.2594,1.1622,1.2835,1.4188,1.5513,1.6632,1.784,1.9162,1.9592,1.9798,1.9798,1.9798,2.0055,2.061,2.109,2.1656,2.2184,2.2087,2.1169,1.9207,1.5758,0.0,0.0,0.0,0.0,0.0,0.0,0.0,0.0,0.0,0.9961,0.7562,0.0,1.0703,0.0,1.4857,1.9634,2.013,1.971,0.0,0.0,1.8377,1.8543,2.0543,2.1551,2.1764,2.0884,2.2929,2.4679,2.5347,2.5163,2.5313,2.6151,2.5246,2.4697,2.5407,2.6152,2.75,2.9493,3.015,3.0689,3.1274,3.2201,3.2855,3.3261,3.3382,3.3506,3.3691,3.3759,3.3989,3.4452,3.4795,3.4923,3.4845,3.4353,3.3872,3.3603,3.2891,3.2307,3.2331,3.2425,3.257,-1.0701,-1.053,-0.9537,-0.8775,-0.8207,-0.7173,-0.6416,-0.5853,-0.4712,-0.379,-0.3065,-0.1396,-0.0056,0.0954,0.1902,0.2627,0.3246,0.4188,0.4969,0.551,0.6015,0.63,0.6546,0.7578,0.8561,0.9351,1.0077,1.0856,1.1622,1.222,1.2434,1.234,1.3336,1.3318,1.2459,1.2937,1.3825,1.5074,1.6502,1.7808,1.8992,1.95,1.9472,1.8756,1.8719,1.8557,1.8254,1.8763,1.9107,1.9224,1.9685,1.9427,1.8214,1.5544,1.382,0.0,0.0,0.0,0.0,0.0,0.0,0.0,0.0,0.0,0.0,0.0,1.3081,1.0894,1.7194,2.1301,2.1123,2.0489,2.0358,2.1124,2.0724,2.1173,2.3233,2.3803,2.4,2.3803,2.486,2.5862,2.6419,2.6185,2.6236,2.7011,2.6421,2.6101,2.6736,2.7538,2.8885,3.1026,3.1639,3.2144,3.2994,3.3505,3.3815,3.3921,3.3972,3.4023,3.4124,3.4154,3.434,3.4691,3.5072,3.5339,3.5335,3.5081,3.4776,3.4718,3.4391,3.3814,3.3064,3.3023,3.3167,-1.0827,-1.0654,-1.0014,-0.9355,-0.8676,-0.7105,-0.6432,-0.6222,-0.4572,-0.3666,-0.3258,-0.129,0.0112,0.0954,0.1518,0.2303,0.3254,0.3946,0.4752,0.5668,0.582,0.6076,0.624,0.693,0.7838,0.8988,0.9697,1.0534,1.1622,1.2089,1.2342,1.2385,1.3586,1.3867,1.3214,1.3123,1.3596,1.4561,1.6685,1.8117,1.8746,1.9154,1.8681,1.7262,1.7162,1.6617,1.5465,1.5947,1.6095,1.5882,1.6426,1.6908,1.7234,1.5084,1.3984,0.0,1.2864,0.0,0.0,0.0,0.0,0.0,0.0,0.0,0.0,1.6581,1.6544,1.6512,2.0887,2.3247,2.2172,2.0814,2.0908,2.308,2.3158,2.3649,2.5192,2.5464,2.5684,2.6168,2.6241,2.6365,2.647,2.6622,2.7045,2.7637,2.7977,2.8113,2.8355,2.9094,3.0193,3.1524,3.2092,3.272,3.3515,3.377,3.3842,3.3972,3.4023,3.4049,3.4173,3.4197,3.4293,3.4604,3.4889,3.5107,3.519,3.5383,3.5455,3.543,3.5391,3.493,3.375,3.3462,3.3548,-1.1439,-1.1316,-1.0629,-0.9938,-0.9217,-0.7979,-0.7118,-0.6424,-0.4766,-0.2973,-0.1106,-0.0624,0.0112,0.0955,0.1555,0.2531,0.3733,0.4104,0.4869,0.5872,0.6022,0.6193,0.6424,0.7136,0.7991,0.8988,0.9697,1.0528,1.1622,1.1747,1.1647,1.1456,1.2344,1.2574,1.2229,0.0,0.0,0.0,1.5816,1.6956,1.7591,1.7233,1.6698,1.6045,1.6019,0.0,1.5898,1.6501,1.7136,1.7745,1.8592,0.0,0.0,0.0,0.0,0.0,0.0,0.0,0.0,0.0,0.0,0.0,1.7291,1.6771,1.7322,1.7315,1.8153,2.0251,2.2692,2.4272,2.4505,2.4008,2.3857,2.4335,2.4453,2.465,2.5013,2.5301,2.5668,2.6132,2.6258,2.6349,2.6504,2.7059,2.7567,2.7857,2.8946,2.9731,2.9875,3.012,3.0848,3.2189,3.2975,3.3479,3.3752,3.3842,3.3895,3.3972,3.403,3.408,3.4173,3.4216,3.4363,3.4732,3.4889,3.5072,3.5373,3.546,3.5507,3.5507,3.5507,3.5411,3.5064,3.5051,3.5174,-1.1864,-1.1498,-1.0421,-0.9837,0.0,-0.7919,-0.7121,-0.6639,-0.4781,-0.2679,-0.0482,-0.0474,0.0059,0.0943,0.1257,0.2214,0.3679,0.388,0.4747,0.6063,0.6189,0.6331,0.642,0.6942,0.7717,0.8613,0.9378,1.0281,1.1185,1.1498,1.1507,1.142,1.2105,1.2606,1.2968,1.4222,1.4697,1.4492,1.6002,1.7043,1.769,1.7934,1.7693,1.6918,1.6951,0.0,0.0,0.0,0.0,0.0,0.0,0.0,0.0,1.8686,0.0,2.0044,1.9569,1.9941,2.1542,2.1231,2.139,2.2434,2.2124,2.1204,1.9747,2.0772,2.2068,2.3358,2.3857,2.4081,2.4231,2.4117,2.4116,2.4364,2.4323,2.4343,2.456,2.4782,2.5137,2.5738,2.5957,2.6173,2.6486,2.7246,2.7889,2.8366,2.9403,3.0398,3.0813,3.0956,3.145,3.2564,3.3327,3.3807,3.3807,3.3842,3.3921,3.3998,3.4049,3.4124,3.4197,3.4216,3.4321,3.4691,3.4982,3.5258,3.5304,3.5432,3.5507,3.5507,3.5507,3.5507,3.5488,3.5522,3.5593,-1.2035,-1.1498,-1.0225,-0.9582,-0.932,-0.7787,-0.6876,-0.6326,0.0,0.0,0.0,-0.0495,0.0062,0.0989,0.1056,0.1926,0.3292,0.3636,0.4637,0.6079,0.6284,0.6416,0.6486,0.6811,0.7461,0.8296,0.9134,1.0028,1.08,1.131,1.1622,1.1685,1.2274,1.3201,1.4323,1.5603,1.5879,1.5309,1.6429,1.7357,1.7954,1.8751,1.8757,1.7735,1.7824,1.7558,1.6935,1.7173,1.7208,1.6962,1.7157,1.7638,1.8358,1.8564,1.9238,2.0562,2.1478,2.2421,2.3436,2.4179,2.5096,2.6137,2.6079,2.5005,2.2585,2.4346,2.5583,2.5598,2.4519,2.3728,2.3503,2.3385,2.3538,2.3952,2.3782,2.3767,2.4135,2.4261,2.4599,2.5275,2.5668,2.5994,2.645,2.7432,2.8281,2.9045,2.9861,3.0619,3.1346,3.1685,3.2017,3.2705,3.335,3.3807,3.3834,3.3868,3.3947,3.4023,3.4074,3.4105,3.4173,3.4216,3.4316,3.4647,3.5124,3.5369,3.5308,3.5383,3.5474,3.5507,3.5507,3.5507,3.5507,3.5488,3.554,-1.1677,-1.1498,-1.0674,-0.9964,-0.925,-0.8285,-0.6654,-0.4674,-0.4335,-0.2806,-0.0575,-0.0499,0.0062,0.099,0.1331,0.2025,0.2987,0.3846,0.4728,0.5668,0.6148,0.6552,0.6876,0.7199,0.7842,0.8678,0.9506,1.0218,1.08,1.1373,1.1622,1.1747,1.2658,1.3914,1.5342,1.5526,1.5975,1.6818,1.6584,1.6781,1.7383,1.7051,1.669,1.6245,1.6286,1.6323,1.648,1.7122,1.7696,1.8297,1.9105,2.0189,2.1568,2.2179,2.3199,2.4554,2.5151,2.5576,2.5723,2.5891,2.6023,2.6187,2.6063,2.574,2.5199,2.5431,2.5594,2.5551,2.4661,2.412,2.4194,2.3779,2.3494,2.3581,2.361,2.3638,2.3724,2.4036,2.4477,2.5044,2.5503,2.5977,2.6519,2.7855,2.8975,2.9604,3.0408,3.1236,3.1579,3.2162,3.2598,3.2855,3.3361,3.3762,3.3868,3.3947,3.3998,3.4074,3.4124,3.4173,3.4197,3.4216,3.4363,3.4791,3.5209,3.5446,3.5446,3.5479,3.5507,3.5507,3.5507,3.5507,3.5488,3.5488,3.556,-1.1926,-1.1498,-1.0415,-0.9703,-0.918,-0.7897,-0.6195,-0.4475,-0.4292,-0.289,-0.0658,-0.0521,0.0194,0.1297,0.151,0.2165,0.3251,0.3982,0.4746,0.5599,0.6342,0.6749,0.6942,0.7531,0.8102,0.8737,0.957,1.0275,1.08,1.1498,1.1879,1.1996,1.326,1.446,1.542,1.6083,1.6641,1.7202,1.7261,1.7572,1.819,1.8228,1.8308,1.8559,1.8649,1.9037,1.9778,2.0164,2.0666,2.1296,2.172,2.2512,2.3647,2.4046,2.4708,2.5779,2.6079,2.6203,2.6203,2.6203,2.6203,2.6203,2.6132,2.6026,2.5864,2.5807,2.5724,2.5686,2.5069,2.4605,2.4477,2.4082,2.3754,2.3566,2.361,2.3595,2.3595,2.3767,2.4214,2.4918,2.5612,2.6167,2.6486,2.8294,2.955,2.9824,3.07,3.1449,3.1671,3.2167,3.2615,3.2805,3.3243,3.3643,3.3842,3.4016,3.4049,3.4099,3.4148,3.4216,3.4216,3.4216,3.439,3.4812,3.5226,3.546,3.5507,3.5507,3.5507,3.5507,3.5507,3.5507,3.5488,3.5522,3.5596,-1.2035,-1.1498,-1.0091,-0.9192,-0.8667,-0.7321,-0.5873,-0.4478,-0.435,-0.2882,-0.0671,-0.047,0.0269,0.1547,0.1681,0.2356,0.3502,0.4159,0.4878,0.5727,0.6539,0.7012,0.7209,0.7727,0.8306,0.8865,0.964,1.0288,1.087,1.1677,1.2243,1.2552,1.3692,1.4647,1.5352,1.6312,1.7045,1.7424,1.7875,1.8417,1.904,1.9552,2.0105,2.066,2.0917,2.1513,2.2498,2.2804,2.3098,2.3537,2.3595,2.4006,2.4823,2.4902,2.5269,2.6079,2.6203,2.6203,2.6203,2.6203,2.6203,2.6203,2.6203,2.6168,2.6063,2.6007,2.5926,2.5794,2.5551,2.5178,2.478,2.4348,2.4036,2.3782,2.3638,2.3595,2.3595,2.3595,2.4067,2.5108,2.5879,2.6471,2.7367,2.8868,3.0006,3.0251,3.0946,3.1542,3.1743,3.2009,3.2318,3.2755,3.3124,3.3494,3.3823,3.4023,3.4099,3.4124,3.4173,3.4197,3.4216,3.4216,3.439,3.4793,3.5226,3.546,3.5507,3.5507,3.5507,3.5507,3.5507,3.5488,3.5522,3.5574,3.565,-1.1685,-1.1365,-1.0091,-0.8554,-0.7204,-0.6806,-0.5811,-0.4417,-0.4284,-0.288,-0.0604,-0.047,0.0269,0.1547,0.1951,0.2621,0.3556,0.435,0.5203,0.6044,0.6666,0.7269,0.7857,0.7982,0.8436,0.9204,0.9767,1.0281,1.0863,1.1685,1.2605,1.345,1.3752,1.4469,1.5546,1.5788,1.6549,1.7984,1.819,1.8555,1.9186,1.972,2.0144,2.0498,2.0957,2.1465,2.2189,2.2615,2.3127,2.3551,2.3595,2.4006,2.4784,2.4902,2.5269,2.6115,2.6168,2.6203,2.6203,2.6203,2.6203,2.6203,2.6203,2.6168,2.6168,2.6168,2.6096,2.593,2.5914,2.5712,2.5333,2.4695,2.4343,2.4204,2.3852,2.3595,2.3638,2.3595,2.4261,2.5998,2.6262,2.7069,2.882,2.9786,3.0366,3.0972,3.1295,3.1596,3.1671,3.1854,3.2179,3.2731,3.3087,3.3439,3.3876,3.4067,3.4124,3.4173,3.4197,3.424,3.424,3.4245,3.4344,3.4851,3.5226,3.5493,3.5507,3.5507,3.5507,3.5507,3.5488,3.5515,3.5581,3.563,3.5713,-1.1622,-1.1498,-1.0091,-0.8554,-0.7134,-0.6679,-0.5749,-0.448,-0.4353,-0.2746,-0.0403,-0.0202,0.0605,0.1951,0.2353,0.2952,0.3818,0.468,0.5467,0.6171,0.712,0.7727,0.7982,0.8182,0.8823,0.9646,0.9894,1.0528,1.1545,1.2305,1.3216,1.4291,1.441,1.501,1.6077,1.6627,1.7335,1.819,1.8792,1.9384,1.9926,2.0372,2.0709,2.0908,2.1382,2.1941,2.2512,2.2783,2.3112,2.3551,2.3595,2.3909,2.4517,2.4744,2.5176,2.5721,2.6026,2.6203,2.6203,2.6203,2.6203,2.6203,2.6203,2.6203,2.6203,2.6203,2.6168,2.6096,2.6096,2.5934,2.5513,2.5176,2.4887,2.4679,2.4271,2.3994,2.3994,2.3824,2.4322,2.5654,2.6622,2.7702,2.9362,3.0387,3.0972,3.1372,3.1504,3.1617,3.1709,3.1984,3.2351,3.2791,3.3135,3.3506,3.3935,3.4124,3.4173,3.4197,3.4216,3.424,3.4386,3.4269,3.439,3.4963,3.5289,3.5493,3.5507,3.5507,3.5507,3.5507,3.5507,3.5501,3.5534,3.555,3.5611,-1.1498,-1.1115,-0.9709,-0.8361,-0.7007,-0.6412,-0.5547,-0.4411,-0.388,-0.2275,-0.0067,0.0336,0.1209,0.2285,0.2621,0.3284,0.4348,0.5011,0.5796,0.6641,0.7582,0.8052,0.8122,0.8382,0.9017,0.9894,1.0078,1.0968,1.2421,1.2972,1.3821,1.4951,1.5128,1.5584,1.6581,1.7279,1.7918,1.8566,1.9267,1.9914,2.0448,2.0921,2.1153,2.1286,2.1704,2.2267,2.2889,2.3024,2.3246,2.3595,2.3595,2.3824,2.4287,2.4704,2.516,2.5721,2.6099,2.6274,2.6222,2.6239,2.6239,2.6203,2.6203,2.6203,2.6203,2.6203,2.6203,2.6222,2.6239,2.6063,2.5775,2.5577,2.5351,2.5098,2.4704,2.4477,2.4477,2.4436,2.5035,2.6161,2.7429,2.8606,2.9909,3.0853,3.1428,3.1521,3.1596,3.1709,3.1893,3.2179,3.2553,3.2934,3.3234,3.3551,3.4012,3.4148,3.4197,3.4221,3.4245,3.4404,3.4583,3.4431,3.4502,3.5089,3.532,3.5474,3.5474,3.5507,3.5603,3.5526,3.5565,3.5713,3.5971,3.5888,3.5991,-1.1185,-1.0358,-0.8877,-0.7712,-0.6671,-0.5947,-0.515,-0.4217,-0.2743,-0.1272,0.0067,0.1208,0.208,0.2686,0.2753,0.3616,0.5074,0.5276,0.626,0.7717,0.7982,0.8187,0.8447,0.8511,0.9017,1.0021,1.0332,1.1509,1.3442,1.3631,1.435,1.5614,1.5662,1.6161,1.709,1.7435,1.7984,1.9056,1.9475,1.9901,2.0498,2.1082,2.1361,2.1458,2.186,2.2374,2.2875,2.3334,2.3551,2.3595,2.3638,2.3867,2.4354,2.4808,2.5443,2.6277,2.645,2.6415,2.6312,2.6295,2.6293,2.6239,2.6203,2.6203,2.6239,2.6239,2.6258,2.6312,2.6295,2.6241,2.6115,2.5811,2.5594,2.5503,2.5182,2.4989,2.4965,2.5584,2.6703,2.7741,2.8639,2.9653,3.0997,3.1372,3.1521,3.1596,3.1709,3.1873,3.2037,3.2283,3.2666,3.3087,3.3385,3.3578,3.4012,3.4148,3.4197,3.4245,3.4363,3.4561,3.4647,3.4751,3.4964,3.5255,3.5661,3.5801,3.5589,3.5603,3.5776,3.5834,3.5892,3.6073,3.6698,3.6795,3.6966,-1.1205,-0.9633,-0.842,-0.7386,-0.6675,-0.5811,-0.5014,-0.4154,-0.2815,-0.1273,0.0268,0.1141,0.215,0.3226,0.3226,0.3954,0.5279,0.5675,0.6597,0.7917,0.8187,0.8382,0.8517,0.8517,0.9139,1.0205,1.0458,1.1571,1.3502,1.3932,1.4746,1.5968,1.6187,1.68,1.7743,1.8112,1.8661,1.9411,1.9722,2.0105,2.0649,2.1144,2.1506,2.186,2.2328,2.283,2.3334,2.3508,2.3638,2.3739,2.3964,2.4241,2.4542,2.516,2.5779,2.6399,2.6485,2.6485,2.6434,2.6434,2.6399,2.638,2.638,2.638,2.638,2.638,2.6415,2.6434,2.6434,2.6399,2.6364,2.6206,2.6154,2.6082,2.5758,2.5519,2.5594,2.6057,2.6783,2.7745,2.9083,3.048,3.1116,3.1483,3.1559,3.1579,3.1709,3.1893,3.2126,3.2486,3.2903,3.3255,3.3634,3.3975,3.4105,3.4173,3.424,3.4269,3.4386,3.4647,3.4771,3.487,3.5037,3.5637,3.6075,3.6589,3.6546,3.6661,3.6699,3.6853,3.6873,3.6901,3.7585,3.7668,3.7986,-1.0564,-0.9052,-0.7832,-0.706,-0.6478,-0.5481,-0.4752,-0.4084,-0.2278,-0.0737,0.0469,0.1477,0.2554,0.3429,0.3763,0.4489,0.5543,0.5939,0.6929,0.8376,0.8635,0.8888,0.9145,0.9145,0.9773,1.0829,1.1384,1.2443,1.3923,1.4478,1.5342,1.6528,1.6687,1.7346,1.8328,1.8821,1.9294,1.9837,2.0308,2.066,2.0983,2.1458,2.1955,2.2374,2.2785,2.3201,2.3638,2.3794,2.3937,2.4105,2.4446,2.4792,2.5067,2.5577,2.6085,2.6486,2.6572,2.6537,2.6554,2.664,2.6657,2.6657,2.6742,2.6742,2.664,2.6607,2.6589,2.6554,2.652,2.6554,2.6572,2.6572,2.6537,2.6485,2.6241,2.6165,2.6412,2.6961,2.7761,2.8834,2.9992,3.092,3.1389,3.1504,3.1617,3.1654,3.18,3.1982,3.2179,3.2684,3.3178,3.3447,3.3876,3.4105,3.4197,3.4197,3.4316,3.4386,3.4542,3.4732,3.504,3.5077,3.5389,3.5998,3.6622,3.7257,3.7623,3.7777,3.7911,3.8046,3.7834,3.7676,3.8175,3.8529,3.8904,-0.9111,-0.8544,-0.7256,-0.6609,-0.6218,-0.4951,-0.4284,-0.3813,-0.1003,0.0335,0.0737,0.2281,0.3161,0.3629,0.4289,0.5213,0.5943,0.6272,0.7381,0.9081,0.9274,0.9709,1.0325,1.0325,1.0822,1.1826,1.3061,1.4103,1.4883,1.542,1.6056,1.6807,1.7268,1.7907,1.8715,1.9307,1.9901,2.0485,2.1118,2.1458,2.152,2.2095,2.2649,2.3024,2.3187,2.3493,2.3824,2.4199,2.4446,2.4623,2.4989,2.5449,2.5872,2.6068,2.628,2.6657,2.6725,2.6674,2.6691,2.694,2.7036,2.7019,2.7192,2.7241,2.7002,2.6922,2.6841,2.6691,2.6606,2.6623,2.6674,2.6657,2.664,2.6537,2.6503,2.6789,2.7496,2.8429,2.9553,3.0688,3.1223,3.1372,3.1542,3.1617,3.1671,3.1819,3.1929,3.2126,3.2267,3.283,3.3379,3.3707,3.3998,3.4191,3.4197,3.4221,3.4386,3.452,3.4711,3.4946,3.5394,3.5592,3.5997,3.6584,3.7353,3.7988,3.8584,3.87,3.8584,3.8623,3.845,3.858,3.9008,3.9469,3.985,-0.8796,-0.8544,-0.7129,-0.6482,-0.6218,-0.4749,-0.4082,-0.3747,-0.0938,0.047,0.0939,0.2216,0.3157,0.3758,0.4483,0.5345,0.6334,0.7177,0.8156,0.9268,0.9831,1.0268,1.0521,1.0759,1.1502,1.2671,1.4145,1.5167,1.57,1.6104,1.6729,1.76,1.8081,1.8661,1.9411,1.9965,2.0448,2.0835,2.1313,2.165,2.1841,2.2603,2.3054,2.3231,2.3822,2.4282,2.4477,2.4542,2.4728,2.5137,2.554,2.5997,2.6367,2.6505,2.6691,2.6989,2.7053,2.7164,2.7338,2.7461,2.7504,2.7457,2.7565,2.7565,2.7426,2.7241,2.7117,2.6973,2.6808,2.6674,2.6708,2.6708,2.6657,2.664,2.6657,2.6995,2.7823,2.9011,3.0207,3.1134,3.1466,3.1579,3.1709,3.1746,3.1819,3.1965,3.2073,3.2179,3.2438,3.2894,3.3408,3.3734,3.3998,3.4216,3.4221,3.4344,3.4548,3.4713,3.487,3.53,3.5758,3.6462,3.6805,3.7373,3.8157,3.8719,3.9315,3.9508,3.9392,3.9527,3.9657,3.986,4.0135,4.0351,4.0546,-0.8603,-0.8096,-0.6937,-0.6218,-0.5818,-0.455,-0.3816,-0.3149,-0.0671,0.0672,0.1141,0.2418,0.3489,0.4287,0.508,0.5935,0.6985,0.8463,0.9436,0.9894,1.0465,1.1087,1.1695,1.2358,1.3028,1.3999,1.5371,1.6197,1.6492,1.7034,1.7644,1.8363,1.8821,1.9347,2.0003,2.0448,2.0848,2.1166,2.1793,2.217,2.2434,2.3143,2.358,2.3681,2.4338,2.4799,2.5036,2.5121,2.5297,2.5652,2.6033,2.6418,2.6759,2.6792,2.6923,2.7195,2.7289,2.7413,2.7742,2.7869,2.7897,2.7915,2.8045,2.8035,2.7893,2.7672,2.7565,2.7287,2.7072,2.6891,2.6808,2.6742,2.6691,2.6708,2.6691,2.7199,2.8181,2.9661,3.0704,3.1346,3.1542,3.1654,3.1746,3.1893,3.1929,3.2073,3.2197,3.2284,3.2555,3.2988,3.3465,3.385,3.4148,3.4245,3.4245,3.4439,3.4715,3.4851,3.5015,3.5624,3.6204,3.73,3.7973,3.8686,3.9437,3.9561,4.0062,4.0162,4.0162,4.0485,4.0504,4.0472,4.0439,4.0593,4.0771,-0.8479,-0.7521,-0.6745,-0.5881,-0.5087,-0.4217,-0.3349,-0.2347,-0.0201,0.1006,0.1475,0.2952,0.4161,0.515,0.6001,0.6854,0.7897,0.9679,1.0634,1.0892,1.1399,1.2328,1.3476,1.456,1.5148,1.5613,1.6641,1.7257,1.7424,1.8081,1.875,1.9028,1.9423,1.9876,2.0409,2.0835,2.1229,2.1602,2.2434,2.2799,2.283,2.3724,2.4219,2.4166,2.4679,2.5121,2.5427,2.5835,2.6087,2.6175,2.6505,2.6742,2.6893,2.6893,2.7038,2.7396,2.7457,2.7666,2.7908,2.8201,2.829,2.8299,2.85,2.863,2.8317,2.8201,2.8,2.7587,2.739,2.7227,2.7006,2.6875,2.6825,2.6809,2.7046,2.7725,2.9017,3.0449,3.1223,3.1528,3.1617,3.1671,3.1837,3.1965,3.2073,3.2214,3.2438,3.2521,3.2669,3.3154,3.3716,3.4049,3.4293,3.4394,3.4416,3.4634,3.4925,3.5181,3.5392,3.5989,3.6906,3.8103,3.9042,3.9793,4.0198,4.04,4.0485,4.0504,4.0523,4.0539,4.0554,4.0583,4.067,4.0781,4.0887,-0.8935,-0.8102,-0.6789,-0.5738,-0.4951,-0.3485,-0.2412,-0.1472,0.0335,0.1476,0.2345,0.3944,0.4882,0.5411,0.6789,0.7577,0.8409,1.0059,1.1135,1.1571,1.2959,1.3819,1.4601,1.5671,1.6425,1.681,1.7589,1.8159,1.8536,1.8975,1.9356,1.9604,2.0003,2.0359,2.0759,2.141,2.1827,2.2142,2.286,2.3377,2.3595,2.4036,2.4276,2.4359,2.4981,2.5443,2.5721,2.6383,2.6742,2.6691,2.6825,2.6925,2.6975,2.7024,2.7261,2.7695,2.7794,2.7992,2.8448,2.8601,2.8669,2.8626,2.8737,2.8755,2.8667,2.8448,2.8244,2.8031,2.7877,2.7589,2.7334,2.721,2.7356,2.7742,2.8066,2.8816,2.9875,3.0905,3.1579,3.1709,3.1746,3.1819,3.1965,3.2073,3.2197,3.2438,3.2705,3.2943,3.3081,3.3361,3.3895,3.4197,3.4431,3.4548,3.4676,3.4887,3.5149,3.547,3.5842,3.6357,3.7578,3.8992,3.9783,4.0482,4.0453,4.0574,4.0564,4.0569,4.0573,4.0554,4.0583,4.0626,4.0717,4.0828,4.0945,-0.8484,-0.7451,-0.6129,-0.514,-0.4287,-0.295,-0.1743,-0.0536,0.0736,0.2075,0.3276,0.4541,0.5668,0.6519,0.7757,0.8597,0.9244,1.094,1.1989,1.283,1.4563,1.5419,1.5776,1.6708,1.7479,1.7907,1.862,1.9162,1.9604,1.9914,2.0182,2.0372,2.0809,2.118,2.1469,2.2044,2.2591,2.301,2.3576,2.3991,2.4348,2.4704,2.4902,2.502,2.5577,2.6016,2.6437,2.6971,2.7152,2.704,2.7087,2.7198,2.7261,2.7386,2.7654,2.8147,2.8201,2.8422,2.8761,2.8881,2.8858,2.8858,2.8858,2.8876,2.8828,2.8676,2.8573,2.8424,2.8228,2.7974,2.7707,2.75,2.7809,2.851,2.9128,2.973,3.0467,3.1099,3.1585,3.1746,3.18,3.1856,3.2073,3.2126,3.2335,3.2573,3.2898,3.319,3.3437,3.3762,3.4023,3.4335,3.4564,3.4694,3.487,3.5083,3.5258,3.5596,3.6563,3.7015,3.7931,3.9451,4.0204,4.0654,4.0668,4.0668,4.064,4.0593,4.0579,4.0593,4.0621,4.0673,4.0783,4.0875,4.0977,-0.7637,-0.6079,-0.5147,-0.4217,-0.3351,-0.2415,-0.1074,0.0336,0.1406,0.2737,0.4328,0.5328,0.6776,0.8156,0.9099,0.9933,1.064,1.2012,1.333,1.4495,1.6079,1.7034,1.7135,1.7809,1.8513,1.8927,1.9722,2.0194,2.056,2.0934,2.1118,2.1396,2.186,2.225,2.2555,2.2946,2.3417,2.3948,2.4368,2.476,2.5134,2.5491,2.5693,2.5862,2.6265,2.679,2.7238,2.7547,2.7522,2.7152,2.7352,2.7517,2.7654,2.7897,2.8147,2.8456,2.8533,2.8651,2.8929,2.8994,2.897,2.8929,2.8952,2.8952,2.8923,2.8905,2.8834,2.8662,2.8525,2.8334,2.8083,2.7777,2.8244,2.9209,2.9791,3.0211,3.0733,3.1298,3.1746,3.1871,3.1871,3.1946,3.2108,3.2266,3.242,3.2784,3.3068,3.3397,3.368,3.3947,3.4191,3.4469,3.4649,3.4851,3.5069,3.5281,3.5457,3.5759,3.7104,3.7858,3.8206,3.9335,4.0275,4.079,4.0746,4.0707,4.0649,4.0623,4.0615,4.0654,4.0687,4.0745,4.0829,4.0936,4.1031,-0.7892,-0.5858,-0.4932,-0.3806,-0.248,-0.0939,0.0201,0.1206,0.2935,0.413,0.5456,0.7349,0.8522,0.9041,1.0494,1.1392,1.1695,1.2931,1.4236,1.6352,1.7522,1.8555,1.8874,1.9162,1.9423,1.9991,2.0396,2.0993,2.1506,2.1779,2.2016,2.2466,2.2876,2.3319,2.3584,2.4155,2.4599,2.4822,2.5224,2.5566,2.59,2.6077,2.6285,2.6555,2.6963,2.7387,2.7794,2.7936,2.7964,2.7936,2.7982,2.802,2.802,2.8093,2.8308,2.8551,2.8626,2.8743,2.8947,2.8975,2.8994,2.8975,2.8975,2.8994,2.8975,2.8994,2.897,2.89,2.8881,2.87,2.8466,2.8475,2.8991,2.9822,3.0589,3.1303,3.1991,3.216,3.2249,3.2353,3.223,3.2126,3.242,3.2454,3.2687,3.3006,3.3309,3.3587,3.386,3.4117,3.434,3.4583,3.4773,3.4962,3.52,3.5402,3.5528,3.5817,3.7046,3.8063,3.8411,3.9456,4.0462,4.079,4.079,4.0752,4.0694,4.0713,4.0733,4.0733,4.0752,4.0842,4.0919,4.1011,4.1077,-0.6645,-0.514,-0.3467,-0.2338,-0.1407,0.0268,0.1674,0.2737,0.3862,0.5446,0.7089,0.872,0.9615,1.0494,1.1927,1.2732,1.3374,1.4828,1.6388,1.785,1.8838,1.9736,2.0357,2.0458,2.0657,2.1077,2.1237,2.1779,2.2296,2.2634,2.2876,2.326,2.3899,2.4348,2.4583,2.5116,2.5509,2.5824,2.6094,2.6438,2.6899,2.7026,2.7134,2.733,2.7648,2.7956,2.8299,2.8368,2.8496,2.8615,2.8615,2.8522,2.8453,2.8547,2.8688,2.8821,2.8839,2.8887,2.8998,2.8998,2.8975,2.8998,2.8998,2.8975,2.8975,2.8975,2.8975,2.9017,2.9017,2.8952,2.8718,2.9168,2.9715,3.0386,3.1261,3.217,3.2816,3.2827,3.2608,3.2685,3.251,3.2456,3.2555,3.2654,3.2816,3.3099,3.3368,3.3671,3.3991,3.4221,3.4461,3.4694,3.487,3.5081,3.534,3.5502,3.5616,3.5963,3.664,3.7425,3.7889,3.9262,4.0732,4.079,4.079,4.079,4.0771,4.079,4.081,4.0829,4.0855,4.0945,4.1021,4.1059,4.1116,-0.5074,-0.409,-0.1741,-0.0603,-0.0,0.1606,0.3004,0.4196,0.4857,0.6685,0.8901,0.9424,1.0683,1.2051,1.3184,1.404,1.539,1.7026,1.8549,1.8984,2.0042,2.0743,2.1328,2.1663,2.2011,2.2104,2.2271,2.2711,2.3143,2.3563,2.3899,2.4117,2.49,2.5371,2.558,2.599,2.6436,2.6899,2.7009,2.7322,2.7855,2.8029,2.8066,2.8228,2.8324,2.8471,2.87,2.8779,2.8879,2.9178,2.92,2.9075,2.8993,2.9056,2.9225,2.9225,2.9185,2.9209,2.9209,2.9185,2.9141,2.9093,2.9097,2.9138,2.9138,2.9138,2.9115,2.9093,2.9112,2.9122,2.9015,2.9689,3.0394,3.1093,3.1992,3.2839,3.3385,3.3339,3.3178,3.2977,3.2891,3.2816,3.2798,3.288,3.3037,3.322,3.3502,3.378,3.4074,3.434,3.4609,3.4813,3.5015,3.5228,3.547,3.5558,3.5676,3.5947,3.645,3.6964,3.763,3.9321,4.0655,4.0771,4.079,4.079,4.079,4.079,4.0829,4.088,4.0928,4.0992,4.1031,4.1106,4.1152,-0.4541,-0.2751,-0.134,0.0335,0.228,0.3471,0.413,0.4791,0.6702,0.8264,0.9591,1.0864,1.2212,1.3468,1.3874,1.5399,1.7413,1.902,1.9736,2.0054,2.1051,2.1941,2.2239,2.2757,2.3274,2.383,2.3872,2.3914,2.4261,2.4745,2.5041,2.5496,2.6094,2.6485,2.6722,2.7188,2.7496,2.7683,2.7834,2.8121,2.8402,2.8554,2.8694,2.886,2.8851,2.8901,2.8979,2.9093,2.9171,2.9262,2.9299,2.9293,2.9228,2.9248,2.9342,2.9398,2.9514,2.9514,2.9533,2.9551,2.957,2.9588,2.9514,2.9551,2.9514,2.9436,2.9336,2.939,2.9397,2.9474,3.0093,3.0626,3.1331,3.2153,3.2857,3.3479,3.3771,3.388,3.385,3.366,3.3415,3.3154,3.3142,3.3172,3.3379,3.355,3.377,3.4049,3.4316,3.4542,3.4752,3.4944,3.5119,3.5369,3.562,3.5657,3.5708,3.5873,3.6279,3.6754,3.7732,3.9487,4.0481,4.0711,4.0796,4.079,4.079,4.081,4.0848,4.0919,4.0953,4.1012,4.1085,4.1133,4.1172,-0.3008,-0.1338,-0.0134,0.1672,0.3673,0.4803,0.5785,0.6763,0.8264,0.9907,1.1436,1.2825,1.4245,1.5434,1.6026,1.7506,1.9386,2.0544,2.1032,2.1411,2.2377,2.3039,2.3231,2.3761,2.4343,2.4879,2.5134,2.5195,2.5227,2.5619,2.6054,2.6438,2.695,2.7296,2.7542,2.7853,2.8188,2.8312,2.8458,2.8621,2.8897,2.8948,2.9119,2.9159,2.8925,2.8779,2.8745,2.8351,2.824,2.8222,2.8241,2.8333,2.8551,2.8957,2.9315,2.9602,2.9731,2.9748,2.9748,2.9731,2.9696,2.9696,2.9713,2.9696,2.9696,2.9607,2.957,2.9662,3.04,3.0568,3.0713,3.1518,3.2256,3.2798,3.3506,3.3961,3.4153,3.432,3.4296,3.4198,3.3947,3.3643,3.3455,3.3522,3.3743,3.3902,3.4074,3.4316,3.4561,3.4732,3.4908,3.5119,3.5292,3.547,3.5678,3.5718,3.5735,3.59,3.6056,3.6511,3.7259,3.8743,4.0012,4.077,4.0796,4.0831,4.081,4.0822,4.088,4.0938,4.0998,4.1073,4.1123,4.1172,4.1191,-0.1198,0.02,0.1537,0.3334,0.5256,0.6379,0.7747,0.9163,1.0027,1.1675,1.3723,1.4792,1.6048,1.7562,1.8546,1.9775,2.1442,2.2109,2.2349,2.2727,2.352,2.4116,2.4348,2.48,2.5287,2.5766,2.6248,2.6403,2.609,2.6437,2.6822,2.7189,2.7577,2.7957,2.8235,2.8406,2.8589,2.875,2.8901,2.906,2.927,2.9332,2.9263,2.9214,2.8651,2.8385,2.8188,2.7798,2.7514,2.7557,2.7607,2.7695,2.7808,2.8608,2.9398,2.9859,2.9927,2.9931,2.9896,2.9915,2.9912,2.9931,2.9883,2.9848,2.9864,2.988,2.9817,2.9926,3.0833,3.1607,3.1536,3.2311,3.2976,3.3408,3.3943,3.4381,3.4419,3.4487,3.4514,3.4423,3.4293,3.4148,3.3876,3.3928,3.413,3.413,3.4293,3.4483,3.4732,3.4851,3.5034,3.5311,3.5489,3.5599,3.5727,3.5793,3.5803,3.5872,3.5917,3.6138,3.6779,3.763,3.8894,4.0243,4.0867,4.0878,4.0865,4.0858,4.0912,4.0981,4.1052,4.1092,4.112,4.1167,4.1172,0.0523,0.1942,0.3661,0.5778,0.7832,0.8826,1.0121,1.1414,1.2287,1.3883,1.5652,1.613,1.7377,1.9135,2.0624,2.1944,2.2922,2.3319,2.352,2.3846,2.4449,2.4847,2.4886,2.5566,2.6162,2.6607,2.7095,2.6935,2.6805,2.7206,2.7547,2.7811,2.8174,2.8608,2.8693,2.8912,2.9243,2.9379,2.9457,2.9551,2.9676,2.9674,2.9315,2.8839,2.8461,2.8099,2.7616,2.735,2.7323,2.7424,2.8039,2.8471,2.8798,2.9478,2.9992,3.0253,3.0336,3.033,3.0286,3.0228,3.0228,3.0215,3.026,3.0299,3.0241,3.0234,3.0133,2.9758,3.1034,3.211,3.2477,3.2832,3.3422,3.3855,3.4282,3.4502,3.4564,3.4623,3.4647,3.4647,3.4542,3.4454,3.4274,3.4386,3.4495,3.4454,3.452,3.4713,3.4908,3.5054,3.5193,3.5457,3.5599,3.5706,3.576,3.5823,3.5859,3.5858,3.5875,3.5885,3.642,3.7163,3.8188,3.9376,4.0202,4.0921,4.0929,4.0935,4.0965,4.1002,4.1046,4.1075,4.1105,4.1132,4.1162,0.4373,0.4129,0.6017,0.7558,0.8849,1.0316,1.1598,1.2877,1.4227,1.5642,1.7148,1.8278,1.9762,2.1444,2.2637,2.3554,2.4395,2.4529,2.4649,2.4994,2.5501,2.5917,2.6148,2.6622,2.7141,2.743,2.7712,2.7826,2.7712,2.7826,2.8129,2.8324,2.8547,2.887,2.9083,2.9299,2.9533,2.9672,2.9725,2.9555,2.9269,2.9158,2.8855,2.8131,2.7706,2.7362,2.7166,2.7038,2.7056,2.7198,2.7836,2.828,2.8525,2.906,2.9594,2.9492,3.0139,3.0375,3.0379,3.041,3.041,3.041,3.039,3.0379,3.0402,3.041,3.0727,3.114,3.1936,3.2868,3.3714,3.4014,3.4214,3.4515,3.4588,3.4647,3.4691,3.4752,3.4791,3.4811,3.4791,3.4691,3.4607,3.4649,3.4689,3.4668,3.4713,3.487,3.5108,3.5286,3.5449,3.5649,3.5724,3.5774,3.5794,3.584,3.5885,3.5899,3.5903,3.597,3.6189,3.6891,3.787,3.906,4.0266,4.076,4.0925,4.0998,4.0986,4.1013,4.1039,4.1089,4.1112,4.1112,4.1123,0.7789,0.6706,0.817,0.9406,1.0401,1.205,1.3661,1.509,1.6374,1.7702,1.9034,2.0509,2.2119,2.3353,2.403,2.4704,2.549,2.5577,2.5793,2.6199,2.6639,2.698,2.7178,2.7572,2.7931,2.8156,2.8445,2.8561,2.8609,2.8699,2.881,2.8805,2.8986,2.9193,2.9474,2.9606,2.9729,2.9946,2.9775,2.9426,2.896,2.8673,2.8174,2.7612,2.7134,2.6883,2.6824,2.7132,2.7181,2.7348,2.8016,2.8512,2.8608,2.9263,2.964,2.9688,3.019,3.0458,3.0455,3.0444,3.0433,3.0433,3.0414,3.0425,3.0417,3.0444,3.0883,3.1892,3.3256,3.4139,3.4818,3.4905,3.4832,3.4794,3.4831,3.4849,3.4849,3.485,3.487,3.487,3.487,3.4908,3.487,3.4889,3.4908,3.4869,3.4945,3.5066,3.527,3.5498,3.5639,3.5791,3.5806,3.5833,3.5833,3.5852,3.5894,3.5923,3.5926,3.5979,3.6144,3.663,3.7426,3.8734,4.0184,4.0773,4.1045,4.1041,4.1019,4.105,4.1074,4.1091,4.1101,4.1103,4.1103,0.9618,0.9562,0.9969,1.1546,1.3673,1.4754,1.6631,1.8524,1.9199,2.0128,2.1424,2.2731,2.3646,2.4308,2.5061,2.5668,2.6198,2.6572,2.6865,2.7178,2.7543,2.7784,2.8013,2.8301,2.8633,2.8796,2.9079,2.9323,2.9476,2.9514,2.94,2.92,2.9437,2.97,2.9795,2.977,2.9808,2.9831,2.9541,2.9197,2.881,2.8431,2.7796,2.7303,2.7478,2.7653,2.6937,2.7605,2.8047,2.8087,2.88,2.922,2.9379,2.9854,3.0133,3.0221,3.0307,3.0528,3.0518,3.0488,3.0469,3.0479,3.0565,3.0662,3.0711,3.0537,3.1067,3.2351,3.4017,3.4955,3.522,3.5092,3.5083,3.5069,3.5051,3.5,3.4982,3.4889,3.4889,3.4908,3.4927,3.4964,3.5037,3.5054,3.5054,3.5037,3.5197,3.5306,3.5461,3.5658,3.5765,3.5859,3.5872,3.5875,3.5875,3.5914,3.5942,3.596,3.5971,3.5976,3.6052,3.6601,3.7011,3.8535,3.9922,4.0565,4.111,4.1074,4.1055,4.1086,4.1111,4.1114,4.1114,4.1116,4.1116,1.326,1.4144,1.4613,1.4687,1.4706,1.6918,1.8698,2.0064,2.1,2.2207,2.3682,2.4705,2.5273,2.5607,2.6185,2.6768,2.7178,2.739,2.7773,2.8094,2.8381,2.8543,2.8778,2.904,2.9323,2.9476,2.966,2.9753,2.9848,3.0041,3.0075,2.9975,2.9859,2.9996,3.0047,2.9775,2.9617,2.94,2.8927,2.8395,2.785,2.8116,2.7738,2.7022,2.7752,2.8042,2.7913,2.86,2.8912,2.9211,2.9775,3.0009,3.01,3.0462,3.055,3.0578,3.0608,3.0608,3.055,3.053,3.049,3.0644,3.0953,3.13,3.1225,3.0906,3.1765,3.3197,3.4745,3.5531,3.5546,3.5391,3.534,3.5292,3.5247,3.5184,3.5119,3.5032,3.5034,3.5069,3.5035,3.5037,3.5124,3.5207,3.5207,3.5223,3.5386,3.5557,3.5688,3.5757,3.5846,3.5883,3.589,3.5912,3.5912,3.5932,3.5987,3.5995,3.6015,3.6011,3.6005,3.606,3.6712,3.8253,3.9678,4.0496,4.0986,4.1048,4.1084,4.1094,4.1108,4.1111,4.1108,4.1108,4.1085,1.6051,1.751,1.829,1.8007,1.7308,1.9308,2.0748,2.1722,2.2702,2.3896,2.5291,2.6084,2.6563,2.6778,2.732,2.7773,2.8103,2.8319,2.8627,2.8879,2.9079,2.9262,2.9495,2.9699,2.9859,3.0032,3.0106,3.0164,3.0186,3.033,3.0164,2.9998,2.9969,3.003,3.0185,2.9717,2.9241,2.8851,2.8468,2.7935,2.7468,2.7828,2.807,2.7556,2.8303,2.8691,2.8906,2.9453,2.9902,3.0098,3.0384,3.0698,3.0746,3.0723,3.0684,3.0684,3.0684,3.0684,3.0649,3.0578,3.0645,3.1012,3.1379,3.1815,3.196,3.1776,3.281,3.3933,3.5123,3.5704,3.5715,3.5589,3.554,3.5509,3.5425,3.5353,3.5297,3.522,3.5224,3.5224,3.5212,3.5197,3.5302,3.5399,3.5438,3.5438,3.5516,3.566,3.5757,3.5833,3.5864,3.5895,3.588,3.5913,3.5923,3.5971,3.5995,3.5996,3.6013,3.6011,3.6007,3.6018,3.6618,3.8227,3.9515,4.0486,4.0918,4.106,4.1097,4.1111,4.1108,4.1108,4.1108,4.1108,4.1055,1.7673,1.9121,2.0309,2.1209,2.1778,2.1934,2.2863,2.4071,2.472,2.5386,2.6174,2.6941,2.7378,2.7694,2.8288,2.8633,2.886,2.9184,2.942,2.9476,2.9642,2.9859,2.9983,3.0117,3.0251,3.0399,3.0425,3.0436,3.0426,3.0335,3.0051,2.9657,2.9563,2.9848,3.0436,2.9838,2.9079,2.8389,2.8376,2.8193,2.8159,2.8301,2.8359,2.8507,2.9101,2.9551,2.9766,3.0195,3.0547,3.0644,3.0682,3.0796,3.0759,3.073,3.075,3.0789,3.0745,3.076,3.0818,3.07,3.1157,3.1748,3.2184,3.2522,3.3073,3.3479,3.3857,3.4787,3.5291,3.5648,3.5716,3.5707,3.5697,3.5657,3.5577,3.5535,3.5469,3.5412,3.5387,3.5393,3.538,3.5399,3.5488,3.5591,3.566,3.5687,3.5696,3.5745,3.584,3.5875,3.5895,3.59,3.5901,3.593,3.5955,3.5976,3.6014,3.6012,3.601,3.6007,3.6003,3.6016,3.6911,3.8302,3.9237,4.0132,4.0659,4.1111,4.1108,4.1108,4.1108,4.1108,4.1108,4.1081,4.1022,2.1015,2.2545,2.3243,2.4364,2.544,2.4191,2.434,2.555,2.6597,2.7331,2.7656,2.8236,2.8534,2.8775,2.8979,2.9285,2.9458,2.9658,2.9832,2.9867,3.0064,3.0156,3.0266,3.0367,3.0511,3.0539,3.0571,3.026,2.9817,2.9872,2.939,2.8925,2.9125,2.9664,2.963,2.9236,2.8667,2.8935,2.8687,2.8298,2.8377,2.8828,2.918,2.9199,2.9978,3.0365,3.0383,3.0778,3.0857,3.0877,3.0857,3.0859,3.0836,3.0816,3.0856,3.0892,3.087,3.114,3.1628,3.203,3.2461,3.2823,3.3179,3.3537,3.4059,3.4729,3.5098,3.5243,3.5504,3.5766,3.5775,3.5765,3.5756,3.5747,3.5698,3.5679,3.565,3.557,3.5549,3.5538,3.5549,3.5572,3.564,3.5693,3.5779,3.5801,3.5788,3.5814,3.5864,3.5884,3.5884,3.5921,3.5951,3.5957,3.5995,3.6011,3.6007,3.6005,3.6021,3.6018,3.6013,3.601,3.6989,3.8261,3.9,3.9702,4.0483,4.1108,4.1108,4.1108,4.1108,4.1108,4.1108,4.107,4.0986,2.2999,2.4659,2.5022,2.6153,2.7384,2.6168,2.6117,2.6991,2.8047,2.8625,2.8846,2.9202,2.942,2.9513,2.9638,2.9748,2.9902,3.009,3.019,3.0204,3.035,3.0427,3.0487,3.0559,3.0644,3.0614,3.0334,2.9961,2.9583,2.9218,2.8816,2.8519,2.8567,2.8941,2.9098,2.9158,2.8841,2.9006,2.8657,2.8795,2.9023,2.9434,2.998,3.0133,3.0484,3.0808,3.0884,3.0905,3.0911,3.0911,3.0911,3.0911,3.0911,3.093,3.1047,3.1206,3.1698,3.2168,3.2947,3.3333,3.3769,3.4224,3.4482,3.4649,3.4882,3.5339,3.5553,3.5715,3.5807,3.5807,3.5799,3.5807,3.5815,3.5807,3.5795,3.5795,3.5779,3.5715,3.5685,3.5687,3.5687,3.5721,3.5745,3.5807,3.5858,3.5875,3.589,3.5895,3.5899,3.5884,3.5903,3.5933,3.5957,3.5975,3.5989,3.6003,3.6016,3.6013,3.601,3.601,3.601,3.6069,3.7126,3.816,3.8957,3.9797,4.0639,4.1108,4.1108,4.1108,4.1108,4.1108,4.1108,4.1037,4.0961,2.3648,2.5504,2.566,2.6662,2.7947,2.7888,2.8083,2.8596,2.8907,2.9211,2.9532,2.9813,2.9946,3.0007,3.0099,3.0152,3.0226,3.0417,3.046,3.051,3.0598,3.0644,3.067,3.0704,3.0637,3.0456,3.0097,2.9566,2.9374,2.8611,2.8147,2.8048,2.7898,2.8487,2.9109,2.9499,2.9273,2.9246,2.9353,2.946,2.9658,3.013,3.0462,3.059,3.0704,3.0801,3.0841,3.0901,3.0882,3.0882,3.088,3.088,3.0899,3.0938,3.1443,3.2112,3.2902,3.3652,3.416,3.4392,3.4915,3.523,3.4963,3.5193,3.5451,3.5682,3.5745,3.5811,3.5813,3.583,3.5823,3.5857,3.5872,3.5878,3.5872,3.5872,3.5866,3.5846,3.5846,3.5846,3.584,3.5852,3.5844,3.5885,3.5896,3.5887,3.5899,3.5886,3.5886,3.5882,3.5895,3.5937,3.5954,3.597,3.5982,3.5991,3.6013,3.601,3.6007,3.6004,3.6007,3.6297,3.7211,3.8167,3.9013,3.9871,4.0738,4.1094,4.1104,4.1104,4.1104,4.1078,4.1074,4.1011,4.0926,2.5077,2.671,2.6902,2.793,2.9325,2.9437,2.9289,2.9117,2.9542,2.9851,2.9958,3.0128,3.0253,3.0343,3.0414,3.0475,3.0565,3.0614,3.0633,3.0678,3.0717,3.0742,3.0739,3.0684,3.0489,3.0038,2.9548,2.8859,2.7956,2.739,2.7346,2.7162,2.8058,2.8829,2.9386,2.9986,2.9935,2.9947,3.0095,3.0132,3.0178,3.0477,3.0697,3.0725,3.0728,3.0758,3.0855,3.0858,3.0841,3.0821,3.0821,3.0821,3.0841,3.1407,3.2129,3.3007,3.3773,3.4441,3.4738,3.5247,3.5699,3.5878,3.5624,3.5695,3.5874,3.5875,3.5839,3.585,3.5869,3.5883,3.5878,3.5903,3.5908,3.5914,3.5899,3.5894,3.5889,3.5889,3.588,3.5895,3.589,3.5888,3.5892,3.5896,3.589,3.5895,3.5898,3.5898,3.5898,3.5898,3.5898,3.5929,3.594,3.5949,3.5968,3.5962,3.5988,3.601,3.6118,3.6345,3.6692,3.7058,3.7503,3.8395,3.9624,4.032,4.0881,4.1047,4.1085,4.1113,4.1113,4.1066,4.1028,4.0954,4.0866,2.5804,2.7325,2.752,2.861,3.0078,3.0285,3.0063,2.9876,3.0136,3.0248,3.0282,3.0394,3.0501,3.0549,3.0586,3.0649,3.0735,3.0719,3.0735,3.0788,3.076,3.0528,3.0479,3.0269,2.9761,2.9262,2.8589,2.7852,2.711,2.6986,2.6986,2.8042,2.9003,2.937,2.9834,3.026,3.0462,3.051,3.0569,3.0636,3.0617,3.0617,3.0649,3.0711,3.07,3.0759,3.0833,3.0816,3.0819,3.0799,3.0801,3.1016,3.1446,3.2422,3.3202,3.4061,3.4725,3.5135,3.5372,3.5664,3.5935,3.6016,3.6003,3.5992,3.5957,3.5948,3.5938,3.5932,3.5949,3.5942,3.5939,3.5955,3.5955,3.5955,3.5912,3.5888,3.588,3.5895,3.5884,3.5896,3.5887,3.5899,3.589,3.5897,3.5898,3.5894,3.589,3.5882,3.5899,3.5882,3.5896,3.59,3.5908,3.5899,3.5938,3.6064,3.6239,3.6419,3.6621,3.6889,3.7332,3.7848,3.8363,3.9331,4.0494,4.0864,4.0987,4.1025,4.1061,4.1067,4.1067,4.1,4.0935,4.0863,4.0791,2.6047,2.7769,2.7892,2.9038,3.0472,3.0569,3.0609,3.07,3.0535,3.0508,3.0542,3.0642,3.0681,3.0691,3.0676,3.0735,3.0784,3.0816,3.082,3.0823,3.058,3.0272,2.9818,2.9419,2.8883,2.8058,2.7468,2.7179,2.7013,2.7218,2.8078,2.927,2.9424,2.9751,3.0246,3.0381,3.0479,3.0469,3.0518,3.0557,3.0569,3.0585,3.0642,3.0714,3.0716,3.0711,3.0762,3.0791,3.0833,3.0852,3.1031,3.1379,3.2617,3.3554,3.4334,3.492,3.5467,3.5681,3.5776,3.5952,3.5971,3.601,3.601,3.6018,3.601,3.5996,3.5974,3.5971,3.5987,3.5984,3.5979,3.5945,3.5925,3.5927,3.5927,3.5888,3.589,3.5886,3.5884,3.589,3.5893,3.5897,3.5898,3.589,3.5876,3.5884,3.5864,3.587,3.587,3.5875,3.5948,3.5938,3.5914,3.5947,3.6031,3.6211,3.6582,3.683,3.7116,3.7714,3.8318,3.8806,3.9259,4.0069,4.0801,4.0875,4.0967,4.1,4.1026,4.1013,4.1,4.0918,4.0857,4.0752,4.0676,2.6442,2.8131,2.943,3.0314,3.071,3.0645,3.0636,3.07,3.0663,3.065,3.0664,3.0676,3.0721,3.0769,3.072,3.0762,3.0837,3.07,3.0849,3.0518,3.0196,2.9616,2.9299,2.8637,2.8003,2.7358,2.6904,2.6934,2.7179,2.7914,2.8685,2.9228,2.9652,3.024,3.0394,3.0433,3.0414,3.0402,3.0433,3.0463,3.0458,3.0469,3.0491,3.0574,3.0595,3.0717,3.0755,3.0767,3.1129,3.147,3.167,3.2572,3.4022,3.4491,3.5037,3.5584,3.5854,3.5949,3.5988,3.5988,3.6004,3.5988,3.5991,3.601,3.6021,3.6011,3.6015,3.6015,3.6015,3.6014,3.5995,3.5957,3.5918,3.5918,3.5918,3.5898,3.5895,3.5897,3.5879,3.5898,3.5897,3.589,3.589,3.5873,3.5866,3.5839,3.582,3.5818,3.5826,3.5859,3.6054,3.6067,3.5996,3.6015,3.6151,3.6722,3.7306,3.7579,3.7845,3.852,3.9271,3.9684,4.0077,4.0429,4.0887,4.0913,4.0957,4.0976,4.0984,4.0957,4.0929,4.0848,4.074,4.0641,4.0557,2.6555,2.8238,2.9941,3.0702,3.0739,3.0652,3.0618,3.0651,3.069,3.0684,3.0679,3.0732,3.079,3.0836,3.0771,3.0699,3.0703,3.0375,3.0205,2.9931,2.9353,2.8665,2.8209,2.7809,2.7399,2.6848,2.7219,2.7479,2.7785,2.8422,2.9154,2.9621,3.0225,3.0398,3.0398,3.0398,3.0398,3.0398,3.0398,3.0436,3.0448,3.0475,3.0482,3.0557,3.0881,3.1041,3.134,3.1479,3.2023,3.2555,3.2861,3.3387,3.4443,3.501,3.5447,3.5763,3.5942,3.5958,3.5955,3.5951,3.597,3.5955,3.5951,3.5947,3.5962,3.5965,3.5952,3.5957,3.5962,3.5947,3.594,3.5913,3.5893,3.591,3.5901,3.5886,3.5874,3.5864,3.5871,3.589,3.5873,3.5841,3.5833,3.5827,3.5813,3.5833,3.5807,3.5799,3.5799,3.6004,3.6165,3.6452,3.6557,3.6518,3.6654,3.744,3.8342,3.8537,3.8595,3.9299,4.001,4.0459,4.0888,4.0888,4.0888,4.0897,4.0926,4.0954,4.0927,4.0888,4.084,4.0791,4.066,4.053,4.0481,2.6516,2.824,2.9888,3.0628,3.0691,3.0626,3.0607,3.062,3.0675,3.065,3.0613,3.0704,3.0793,3.0813,3.0774,3.0662,3.0404,2.9942,2.9605,2.9038,2.8314,2.779,2.7284,2.6822,2.6865,2.7266,2.7739,2.8315,2.8844,2.9336,2.9767,3.0294,3.0398,3.0398,3.0398,3.0398,3.0398,3.0475,3.0533,3.0641,3.0629,3.0634,3.0752,3.1067,3.1515,3.1972,3.2294,3.2596,3.3093,3.3634,3.3993,3.4493,3.4892,3.5417,3.5636,3.5919,3.5903,3.5914,3.5904,3.5899,3.5899,3.5894,3.5889,3.5889,3.5908,3.5919,3.5909,3.5914,3.5919,3.5903,3.5904,3.5894,3.5894,3.5894,3.588,3.5873,3.5866,3.5852,3.5858,3.5883,3.5846,3.5795,3.5807,3.5799,3.5799,3.5791,3.581,3.5791,3.5907,3.6284,3.6584,3.7156,3.7622,3.7536,3.7381,3.8263,3.9369,3.9302,3.9438,4.012,4.0635,4.0791,4.0888,4.0888,4.0888,4.0888,4.0878,4.0898,4.0848,4.0812,4.0694,4.061,4.0549,4.045,4.0425,2.6498,2.8171,2.9814,3.0554,3.0587,3.0605,3.0632,3.0665,3.062,3.0618,3.0571,3.0552,3.0593,3.0646,3.0587,3.0277,2.9583,2.924,2.8837,2.83,2.7528,2.7009,2.6889,2.7024,2.7152,2.7719,2.842,2.8901,2.9379,2.984,3.0186,3.0379,3.0398,3.0398,3.0398,3.0398,3.0436,3.0629,3.1083,3.1333,3.1468,3.1484,3.1484,3.1827,3.227,3.2579,3.2791,3.2856,3.3376,3.4041,3.4807,3.5238,3.5502,3.5683,3.5836,3.5894,3.5899,3.5889,3.5897,3.5872,3.5872,3.5872,3.5872,3.5897,3.5897,3.5897,3.5903,3.5905,3.5897,3.5889,3.5897,3.5879,3.5892,3.5866,3.5859,3.5853,3.5818,3.5811,3.5818,3.5818,3.5823,3.5799,3.5799,3.5799,3.5799,3.5829,3.5954,3.5954,3.5907,3.6401,3.7014,3.7821,3.8588,3.8499,3.8343,3.9401,4.0265,4.0178,4.0141,4.049,4.0723,4.083,4.0878,4.0828,4.0859,4.0898,4.0888,4.0818,4.0804,4.0732,4.0545,4.0434,4.0408,4.0394,4.0362]},{"header":{"parameterUnit":"m.s-1","parameterCategory":1,"la1":31.0,"la2":29.5877,"lo1":-88.7671,"lo2":-86.6584,"dy":0.0162,"dx":0.0185,"nx":115,"ny":88,"refTime":"2023-10-14T00:00:00:Z","depth":0,"parameterNumber":3,"parameterNumberName":"V-component_of_WINDS"},"data":[0.0,0.0,0.0,0.0,0.0,0.0,0.0,0.0,0.0,0.0,0.0,0.0,0.0,0.0,0.0,0.0,0.0,0.0,0.0,0.0,0.0,0.0,0.0,0.0,0.0,0.0,0.0,0.0,0.0,0.0,0.0,0.0,0.0,0.0,0.0,0.0,0.0,0.0,0.0,0.0,0.0,0.0,0.0,0.0,0.0,0.0,0.0,0.0,0.0,0.0,0.0,0.0,0.0,0.0,0.0,0.0,0.0,0.0,0.0,0.0,0.0,0.0,0.0,0.0,0.0,0.0,0.0,0.0,0.0,0.0,0.0,0.0,0.0,0.0,0.0,0.0,0.0,0.0,0.0,0.0,0.0,0.0,0.0,0.0,0.0,0.0,0.0,0.0,0.0,0.0,0.0,0.0,0.0,0.0,0.0,0.0,0.0,0.0,0.0,0.0,0.0,0.0,0.0,0.0,0.0,0.0,0.0,0.0,0.0,0.0,0.0,0.0,0.0,0.0,0.0,0.0,0.0,0.0,0.0,0.0,0.0,0.0,0.0,0.0,0.0,0.0,0.0,0.0,0.0,0.0,0.0,0.0,0.0,0.0,0.0,0.0,0.0,0.0,0.0,0.0,0.0,0.0,0.0,0.0,0.0,0.0,0.0,0.0,0.0,0.0,0.0,0.0,0.0,0.0,0.0,0.0,0.0,0.0,0.0,0.0,0.0,0.0,0.0,0.0,0.0,0.0,0.0,0.0,0.0,0.0,0.0,0.0,0.0,0.0,0.0,0.0,0.0,0.0,0.0,0.0,0.0,0.0,0.0,0.0,0.0,0.0,0.0,0.0,0.0,0.0,0.0,0.0,0.0,0.0,0.0,0.0,0.0,0.0,0.0,0.0,0.0,0.0,0.0,0.0,0.0,0.0,0.0,0.0,0.0,0.0,0.0,0.0,0.0,0.0,0.0,0.0,0.0,0.0,0.0,0.0,0.0,0.0,0.0,0.0,0.0,0.0,0.0,0.0,0.0,0.0,0.0,0.0,0.0,0.0,0.0,0.0,0.0,0.0,0.0,0.0,0.0,0.0,0.0,0.0,0.0,0.0,0.0,0.0,0.0,0.0,0.0,0.0,0.0,0.0,0.0,0.0,0.0,0.0,0.0,0.0,0.0,0.0,0.0,0.0,0.0,0.0,0.0,0.0,0.0,0.0,0.0,0.0,0.0,0.0,0.0,0.0,0.0,0.0,0.0,0.0,0.0,0.0,0.0,0.0,0.0,0.0,0.0,0.0,0.0,0.0,0.0,0.0,0.0,0.0,0.0,0.0,0.0,0.0,0.0,0.0,0.0,0.0,0.0,0.0,0.0,0.0,0.0,0.0,0.0,0.0,0.0,0.0,0.0,0.0,0.0,0.0,0.0,0.0,0.0,0.0,0.0,0.0,0.0,0.0,0.0,0.0,0.0,0.0,0.0,0.0,0.0,0.0,0.0,0.0,0.0,0.0,0.0,0.0,0.0,0.0,0.0,0.0,0.0,0.0,0.0,0.0,0.0,0.0,0.0,0.0,0.0,0.0,0.0,0.0,0.0,0.0,0.0,0.0,0.0,0.0,0.0,0.0,0.0,0.0,0.0,0.0,0.0,0.0,0.0,0.0,0.0,0.0,0.0,0.0,0.0,0.0,0.0,0.0,0.0,0.0,0.0,0.0,0.0,0.0,0.0,0.0,0.0,0.0,0.0,0.0,0.0,0.0,0.0,0.0,0.0,0.0,0.0,0.0,0.0,0.0,0.0,0.0,0.0,0.0,0.0,0.0,0.0,0.0,0.0,0.0,0.0,0.0,0.0,0.0,0.0,0.0,0.0,0.0,0.0,0.0,0.0,0.0,0.0,0.0,0.0,0.0,0.0,0.0,0.0,0.0,0.0,0.0,0.0,0.0,0.0,0.0,0.0,0.0,0.0,0.0,0.0,0.0,0.0,0.0,0.0,0.0,0.0,0.0,0.0,0.0,0.0,0.0,0.0,0.0,0.0,0.0,0.0,0.0,0.0,0.0,0.0,0.0,0.0,0.0,0.0,0.0,0.0,0.0,0.0,0.0,0.0,0.0,0.0,0.0,0.0,0.0,0.0,0.0,0.0,0.0,0.0,0.0,0.0,0.0,0.0,0.0,0.0,0.0,0.0,0.0,0.0,0.0,0.0,0.0,0.0,0.0,0.0,0.0,0.0,0.0,0.0,0.0,0.0,0.0,0.0,0.0,0.0,0.0,0.0,0.0,0.0,0.0,0.0,0.0,0.0,0.0,0.0,0.0,0.0,0.0,0.0,0.0,0.0,0.0,0.0,0.0,0.0,0.0,0.0,0.0,0.0,0.0,0.0,0.0,0.0,0.0,0.0,0.0,0.0,0.0,0.0,0.0,0.0,0.0,0.0,0.0,0.0,0.0,0.0,0.0,0.0,0.0,0.0,0.0,0.0,0.0,0.0,0.0,0.0,0.0,0.0,0.0,0.0,0.0,0.0,0.0,0.0,0.0,0.0,0.0,0.0,0.0,0.0,0.0,0.0,0.0,0.0,0.0,0.0,0.0,0.0,0.0,0.0,0.0,0.0,0.0,0.0,0.0,0.0,0.0,0.0,0.0,0.0,0.0,0.0,0.0,0.0,0.0,0.0,0.0,0.0,0.0,0.0,0.0,0.0,0.0,0.0,0.0,0.0,0.0,0.0,0.0,0.0,0.0,0.0,0.0,0.0,0.0,0.0,0.0,0.0,0.0,0.0,0.0,0.0,0.0,0.0,0.0,0.0,0.0,0.0,0.0,0.0,0.0,0.0,0.0,0.0,0.0,0.0,0.0,0.0,0.0,0.0,0.0,0.0,0.0,0.0,0.0,0.0,0.0,0.0,0.0,0.0,0.0,0.0,0.0,0.0,0.0,0.0,0.0,0.0,0.0,0.0,0.0,0.0,0.0,0.0,0.0,0.0,0.0,0.0,0.0,0.0,0.0,0.0,0.0,0.0,0.0,0.0,0.0,0.0,0.0,0.0,0.0,0.0,0.0,0.0,0.0,0.0,0.0,0.0,0.0,0.0,0.0,0.0,0.0,0.0,0.0,0.0,0.0,0.0,0.0,0.0,0.0,0.0,0.0,0.0,0.0,0.0,0.0,0.0,0.0,0.0,0.0,0.0,0.0,0.0,0.0,0.0,0.0,0.0,0.0,0.0,0.0,0.0,0.0,0.0,0.0,0.0,0.0,0.0,0.0,0.0,0.0,0.0,0.0,0.0,0.0,0.0,0.0,0.0,0.0,0.0,0.0,0.0,0.0,0.0,0.0,0.0,0.0,0.0,0.0,0.0,0.0,0.0,0.0,0.0,0.0,0.0,0.0,0.0,0.0,0.0,0.0,0.0,0.0,0.0,0.0,0.0,0.0,0.0,0.0,0.0,0.0,0.0,0.0,0.0,0.0,0.0,0.0,0.0,0.0,0.0,0.0,0.0,0.0,0.0,0.0,0.0,0.0,0.0,0.0,0.0,0.0,0.0,0.0,0.0,0.0,0.0,0.0,0.0,0.0,0.0,0.0,0.0,0.0,0.0,0.0,0.0,0.0,0.0,0.0,0.0,0.0,0.0,0.0,0.0,0.0,0.0,0.0,0.0,0.0,0.0,0.0,0.0,0.0,0.0,0.0,0.0,0.0,0.0,0.0,0.0,0.0,0.0,0.0,0.0,0.0,0.0,0.0,0.0,0.0,0.0,0.0,0.0,0.0,0.0,0.0,0.0,0.0,0.0,0.0,0.0,0.0,0.0,0.0,0.0,0.0,0.0,0.0,0.0,0.0,0.0,0.0,0.0,0.0,0.0,0.0,0.0,0.0,0.0,0.0,0.0,0.0,0.0,0.0,0.0,0.0,0.0,0.0,0.0,0.0,0.0,0.0,0.0,0.0,0.0,0.0,0.0,0.0,0.0,0.0,0.0,0.0,0.0,0.0,0.0,0.0,0.0,0.0,0.0,0.0,0.0,0.0,0.0,0.0,0.0,0.0,0.0,0.0,0.0,0.0,0.0,0.0,0.0,0.0,0.0,0.0,0.0,0.0,0.0,0.0,0.0,0.0,0.0,0.0,0.0,0.0,0.0,0.0,0.0,0.0,0.0,0.0,0.0,0.0,0.0,0.0,0.0,0.0,0.0,0.0,0.0,0.0,0.0,0.0,0.0,0.0,0.0,0.0,0.0,0.0,0.0,0.0,0.0,0.0,0.0,0.0,0.0,0.0,0.0,0.0,0.0,0.0,0.0,0.0,-0.1945,0.0,0.0,0.0,0.0,0.0,0.0,0.0,0.0,0.0,0.0,0.0,0.0,0.0,0.0,0.0,0.0,0.0,0.0,0.0,0.0,0.0,0.0,0.0,0.0,0.0,0.0,0.0,0.0,0.0,0.0,0.0,0.0,0.0,0.0,0.0,0.0,0.0,0.0,0.0,0.0,0.0,0.0,0.0,0.0,0.0,0.0,0.0,0.0,0.0,0.0,0.0,0.0,0.0,0.0,0.0,0.0,0.0,0.0,0.0,0.0,0.0,0.0,0.0,0.0,0.0,0.0,0.0,0.0,0.0,0.0,0.0,0.0,0.0,0.0,0.0,0.0,0.0,0.0,0.0,0.0,0.0,0.0,0.0,0.0,0.0,0.0,0.0,0.0,0.0,0.0,0.0,0.0,0.0,0.0,0.0,0.0,0.0,0.0,0.0,0.0,0.0,0.0,0.0,0.0,0.0,0.0,0.0,0.0,0.0,0.0,-0.3322,-0.2764,-0.2898,-0.276,-0.2274,0.0,0.0,0.0,0.0,0.0,0.0,0.0,0.0,0.0,0.0,0.0,0.0,0.0,0.0,0.0,0.0,0.0,0.0,0.0,0.0,0.0,0.0,0.0,0.0,0.0,0.0,0.0,0.0,0.0,0.0,0.0,0.0,0.0,0.0,0.0,0.0,0.0,0.0,0.0,0.0,0.0,0.0,0.0,0.0,0.0,0.0,0.0,0.0,0.0,0.0,0.0,0.0,0.0,0.0,0.0,0.0,0.0,0.0,0.0,0.0,0.0,0.0,0.0,0.0,0.0,0.0,0.0,0.0,0.0,0.0,0.0,0.0,0.0,0.0,0.0,0.0,0.0,0.0,0.0,0.0,0.0,0.0,0.0,0.0,0.0,0.0,0.0,0.0,0.0,0.0,0.0,0.0,0.0,0.0,0.0,0.0,0.0,0.0,0.0,0.0,0.0,0.0,0.0,0.0,0.0,0.0,0.0,0.0,0.0,0.0,0.0,0.0,-0.3176,-0.3004,-0.2515,0.0,0.0,0.0,0.0,0.0,0.0,0.0,0.0,0.0,0.0,0.0,0.0,0.0,0.0,0.0,0.0,0.0,0.0,0.0,0.0,0.0,0.0,0.0,0.0,0.0,0.0,0.0,0.0,0.0,0.0,0.0,0.0,0.0,0.0,0.0,0.0,0.0,0.0,0.0,0.0,0.0,0.0,0.0,0.0,0.0,0.0,0.0,0.0,0.0,0.0,0.0,0.0,0.0,0.0,0.0,0.0,0.0,0.0,0.0,0.0,0.0,0.0,0.0,0.0,0.0,0.0,0.0,0.0,0.0,0.0,0.0,0.0,0.0,0.0,0.0,0.0,0.0,0.0,0.0,0.0,0.0,0.0,0.0,0.0,0.0,0.0,0.0,0.0,0.0,0.0,0.0,0.0,0.0,0.0,0.0,0.0,0.0,0.0,0.0,0.0,0.0,0.0,0.0,0.0,0.0,0.0,0.0,0.0,0.0,0.0,-0.4123,-0.4646,-0.4385,0.0,-0.3166,0.0,0.0,0.0,0.0,0.0,0.0,0.0,0.0,0.0,0.0,0.0,0.0,0.0,0.0,0.0,0.0,0.0,0.0,0.0,0.0,0.0,0.0,0.0,0.0,0.0,0.0,0.0,0.0,0.0,0.0,0.0,0.0,0.0,0.0,0.0,0.0,0.0,0.0,0.0,0.0,0.0,0.0,0.0,0.0,0.0,0.0,0.0,0.0,0.0,0.0,0.0,0.0,0.0,0.0,0.0,0.0,0.0,0.0,0.0,0.0,0.0,0.0,0.0,0.0,0.0,0.0,0.0,0.0,0.0,0.0,0.0,0.0,0.0,0.0,0.0,0.0,0.0,0.0,0.0,0.0,0.0,0.0,0.0,0.0,0.0,0.0,0.0,0.0,0.0,0.0,0.0,0.0,0.0,0.0,0.0,0.0,0.0,0.0,0.0,0.0,0.0,0.0,0.0,0.0,0.0,0.0,0.0,0.0,0.0,0.0,-0.4413,-0.4256,-0.404,-0.3756,0.0,0.0,0.0,0.0,0.0,0.0,0.0,0.0,0.0,0.0,0.0,0.0,0.0,0.0,0.0,0.0,0.0,0.0,0.0,0.0,0.0,0.0,0.0,0.0,0.0,0.0,0.0,0.0,0.0,0.0,0.0,0.0,0.0,0.0,0.0,0.0,0.0,0.0,0.0,0.0,0.0,0.0,0.0,0.0,0.0,0.0,0.0,0.0,0.0,0.0,0.0,0.0,0.0,0.0,0.0,0.0,0.0,0.0,0.0,0.0,0.0,0.0,0.0,0.0,0.0,0.0,0.0,0.0,0.0,0.0,0.0,0.0,0.0,0.0,0.0,0.0,0.0,0.0,0.0,0.0,0.0,0.0,0.0,0.0,0.0,0.0,0.0,0.0,0.0,0.0,0.0,0.0,0.0,0.0,0.0,0.0,0.0,0.0,0.0,0.0,0.0,0.0,0.0,0.0,0.0,0.0,0.0,0.0,0.0,0.0,-0.4862,-0.4894,-0.4462,-0.4241,-0.3968,-0.3652,0.0,0.0,0.0,0.0,0.0,0.0,0.0,0.0,0.0,0.0,0.0,0.0,0.0,0.0,0.0,0.0,0.0,0.0,0.0,0.0,0.0,0.0,0.0,0.0,0.0,0.0,0.0,0.0,0.0,0.0,0.0,0.0,0.0,0.0,0.0,0.0,0.0,0.0,0.0,0.0,0.0,0.0,0.0,0.0,0.0,0.0,0.0,0.0,0.0,0.0,0.0,0.0,0.0,0.0,0.0,0.0,0.0,0.0,0.0,0.0,0.0,0.0,0.0,0.0,0.0,0.0,0.0,0.0,0.0,0.0,0.0,0.0,0.0,0.0,0.0,0.0,0.0,0.0,0.0,0.0,0.0,0.0,0.0,0.0,0.0,0.0,0.0,0.0,0.0,0.0,0.0,0.0,0.0,0.0,0.0,0.0,0.0,0.0,0.0,0.0,0.0,0.0,0.0,0.0,0.0,0.0,0.0,0.0,-0.5711,-0.5627,-0.5702,-0.5967,-0.563,-0.4964,0.0,0.0,0.0,0.0,0.0,0.0,0.0,0.0,0.0,0.0,0.0,0.0,0.0,0.0,0.0,0.0,0.0,0.0,0.0,0.0,0.0,0.0,0.0,0.0,0.0,0.0,0.0,0.0,0.0,0.0,0.0,0.0,0.0,0.0,0.0,0.0,0.0,0.0,0.0,0.0,0.0,0.0,0.0,0.0,0.0,0.0,0.0,0.0,0.0,0.0,0.0,0.0,0.0,0.0,0.0,0.0,0.0,0.0,0.0,0.0,0.0,0.0,0.0,0.0,0.0,0.0,0.0,0.0,0.0,0.0,0.0,0.0,0.0,0.0,0.0,0.0,0.0,0.0,0.0,0.0,0.0,0.0,0.0,0.0,0.0,0.0,0.0,0.0,0.0,0.0,0.0,0.0,0.0,0.0,0.0,0.0,0.0,0.0,0.0,0.0,0.0,0.0,0.0,0.0,0.0,0.0,0.0,0.0,0.0,-0.4778,-0.4986,-0.5708,-0.6942,-0.5607,-0.5006,0.0,0.0,0.0,0.0,0.0,0.0,0.0,0.0,0.0,0.0,0.0,0.0,0.0,0.0,0.0,0.0,0.0,0.0,0.0,0.0,0.0,0.0,0.0,0.0,0.0,0.0,0.0,0.0,0.0,0.0,0.0,0.0,0.0,0.0,0.0,0.0,0.0,0.0,0.0,0.0,0.0,0.0,0.0,0.0,0.0,0.0,0.0,0.0,0.0,0.0,0.0,0.0,0.0,0.0,0.0,0.0,0.0,0.0,0.0,0.0,0.0,0.0,0.0,0.0,0.0,0.0,0.0,0.0,0.0,0.0,0.0,0.0,0.0,0.0,0.0,0.0,0.0,0.0,0.0,0.0,0.0,0.0,0.0,0.0,0.0,0.0,0.0,0.0,0.0,0.0,0.0,0.0,0.0,0.0,0.0,0.0,0.0,0.0,0.0,0.0,0.0,0.0,0.0,0.0,0.0,0.0,0.0,0.0,0.0,-0.528,0.0,-0.6733,-0.7428,-0.6021,-0.5305,0.0,0.0,0.0,0.0,0.0,0.0,0.0,0.0,0.0,0.0,0.0,0.0,0.0,0.0,0.0,0.0,0.0,0.0,0.0,0.0,0.0,0.0,0.0,0.0,0.0,0.0,0.0,0.0,0.0,0.0,0.0,0.0,0.0,0.0,0.0,0.0,0.0,0.0,0.0,0.0,0.0,0.0,0.0,0.0,0.0,0.0,0.0,0.0,0.0,0.0,0.0,0.0,0.0,0.0,0.0,0.0,0.0,0.0,0.0,0.0,0.0,0.0,0.0,0.0,0.0,0.0,0.0,0.0,0.0,0.0,0.0,0.0,0.0,0.0,0.0,0.0,0.0,0.0,0.0,0.0,0.0,0.0,0.0,0.0,0.0,0.0,0.0,0.0,0.0,0.0,0.0,0.0,0.0,0.0,0.0,0.0,0.0,0.0,0.0,0.0,0.0,0.0,0.0,0.0,0.0,0.0,0.0,0.0,-0.5488,-0.748,-0.8792,-0.8811,-0.7514,-0.7097,-0.5944,0.0,0.0,0.0,0.0,0.0,0.0,0.0,0.0,0.0,0.0,0.0,0.0,0.0,0.0,0.0,0.0,0.0,0.0,0.0,0.0,0.0,0.0,0.0,0.0,0.0,0.0,0.0,0.0,0.0,0.0,0.0,0.0,0.0,0.0,0.0,0.0,0.0,0.0,0.0,0.0,0.0,0.0,0.0,0.0,0.0,0.0,0.0,0.0,0.0,0.0,0.0,0.0,0.0,0.0,0.0,0.0,0.0,0.0,0.0,0.0,0.0,0.0,0.0,0.0,0.0,0.0,0.0,0.0,0.0,0.0,0.0,0.0,0.0,0.0,0.0,0.0,0.0,0.0,0.0,0.0,0.0,0.0,0.0,0.0,0.0,0.0,0.0,0.0,0.0,0.0,0.0,0.0,0.0,0.0,0.0,0.0,0.0,0.0,0.0,0.0,0.0,0.0,0.0,0.0,0.0,0.0,0.0,0.0,0.0,-0.6827,-0.8315,-0.9557,-1.0324,-0.8258,-0.7252,0.0,0.0,0.0,0.0,0.0,0.0,0.0,0.0,0.0,0.0,0.0,0.0,0.0,0.0,0.0,0.0,0.0,0.0,0.0,0.0,0.0,0.0,0.0,0.0,0.0,0.0,0.0,0.0,0.0,0.0,0.0,0.0,0.0,0.0,0.0,0.0,0.0,0.0,0.0,0.0,0.0,0.0,0.0,0.0,0.0,0.0,0.0,0.0,0.0,0.0,0.0,0.0,0.0,0.0,0.0,0.0,0.0,0.0,0.0,0.0,0.0,0.0,0.0,0.0,0.0,0.0,0.0,0.0,0.0,0.0,0.0,0.0,0.0,0.0,0.0,0.0,0.0,0.0,0.0,0.0,0.0,0.0,0.0,0.0,0.0,0.0,0.0,0.0,0.0,0.0,0.0,0.0,0.0,0.0,0.0,0.0,0.0,0.0,0.0,0.0,0.0,0.0,0.0,0.0,0.0,0.0,0.0,0.0,0.0,-0.8916,-1.0408,-1.141,-1.1758,-0.9748,-0.8345,-0.7687,0.0,0.0,0.0,0.0,0.0,0.0,0.0,0.0,0.0,0.0,0.0,0.0,0.0,0.0,0.0,0.0,0.0,0.0,0.0,0.0,0.0,0.0,0.0,0.0,0.0,0.0,0.0,0.0,0.0,0.0,0.0,0.0,0.0,0.0,0.0,0.0,0.0,0.0,0.0,0.0,0.0,0.0,0.0,0.0,0.0,0.0,0.0,0.0,0.0,0.0,0.0,0.0,0.0,0.0,0.0,0.0,0.0,0.0,0.0,0.0,0.0,0.0,0.0,0.0,0.0,0.0,0.0,0.0,0.0,0.0,0.0,0.0,0.0,0.0,0.0,0.0,0.0,0.0,0.0,0.0,0.0,0.0,0.0,0.0,0.0,0.0,0.0,0.0,0.0,0.0,0.0,0.0,0.0,0.0,0.0,0.0,0.0,0.0,0.0,0.0,0.0,0.0,0.0,0.0,0.0,0.0,0.0,0.0,-1.2961,-1.4596,-1.4354,-1.2157,-1.1455,-0.942,0.0,0.0,0.0,0.0,0.0,0.0,0.0,0.0,0.0,0.0,0.0,0.0,0.0,0.0,0.0,0.0,0.0,0.0,0.0,0.0,0.0,0.0,0.0,0.0,0.0,0.0,0.0,0.0,0.0,0.0,0.0,0.0,0.0,0.0,0.0,0.0,0.0,0.0,0.0,0.0,0.0,0.0,0.0,0.0,0.0,0.0,0.0,0.0,0.0,0.0,0.0,0.0,0.0,0.0,0.0,0.0,0.0,0.0,0.0,0.0,0.0,0.0,0.0,0.0,0.0,0.0,0.0,0.0,0.0,0.0,0.0,0.0,0.0,0.0,0.0,0.0,0.0,0.0,0.0,0.0,0.0,0.0,0.0,0.0,0.0,0.0,0.0,0.0,0.0,0.0,0.0,0.0,0.0,0.0,0.0,0.0,0.0,0.0,0.0,0.0,0.0,0.0,0.0,0.0,0.0,0.0,0.0,0.0,0.0,-1.4046,-1.6872,-1.7591,-1.5924,-1.3308,-1.1412,0.0,0.0,0.0,0.0,0.0,0.0,0.0,0.0,0.0,0.0,0.0,0.0,0.0,0.0,0.0,0.0,0.0,0.0,0.0,0.0,0.0,0.0,0.0,0.0,0.0,0.0,0.0,0.0,0.0,0.0,0.0,0.0,0.0,0.0,0.0,0.0,0.0,0.0,0.0,0.0,0.0,0.0,0.0,0.0,0.0,0.0,0.0,0.0,0.0,0.0,0.0,0.0,0.0,0.0,0.0,0.0,0.0,0.0,0.0,0.0,0.0,0.0,0.0,0.0,0.0,0.0,0.0,0.0,0.0,0.0,0.0,0.0,0.0,0.0,0.0,0.0,0.0,0.0,0.0,0.0,0.0,0.0,0.0,0.0,0.0,0.0,0.0,0.0,0.0,0.0,0.0,0.0,0.0,0.0,0.0,0.0,0.0,0.0,0.0,0.0,0.0,0.0,0.0,0.0,0.0,0.0,0.0,0.0,-1.3684,-1.544,-1.8203,-1.9217,-1.8406,-1.565,-1.3202,0.0,0.0,0.0,0.0,0.0,0.0,0.0,0.0,0.0,0.0,0.0,0.0,0.0,0.0,0.0,0.0,0.0,0.0,0.0,0.0,0.0,0.0,0.0,0.0,0.0,0.0,0.0,0.0,0.0,0.0,0.0,0.0,0.0,0.0,0.0,0.0,0.0,0.0,0.0,0.0,0.0,0.0,0.0,0.0,0.0,0.0,0.0,0.0,0.0,0.0,0.0,0.0,0.0,0.0,0.0,0.0,0.0,0.0,0.0,0.0,0.0,0.0,0.0,0.0,0.0,0.0,0.0,0.0,0.0,0.0,0.0,0.0,0.0,0.0,0.0,0.0,0.0,0.0,0.0,0.0,0.0,0.0,0.0,0.0,0.0,0.0,0.0,0.0,0.0,0.0,0.0,0.0,0.0,0.0,0.0,0.0,0.0,0.0,0.0,0.0,0.0,0.0,0.0,0.0,0.0,0.0,0.0,0.0,-1.4694,-1.6882,-1.8886,-1.9869,-1.9636,-1.7708,-1.4641,0.0,0.0,0.0,0.0,0.0,0.0,0.0,0.0,0.0,0.0,0.0,0.0,0.0,0.0,0.0,0.0,0.0,0.0,0.0,0.0,0.0,0.0,0.0,0.0,0.0,0.0,0.0,0.0,0.0,0.0,0.0,0.0,0.0,0.0,0.0,0.0,0.0,0.0,0.0,0.0,0.0,0.0,0.0,0.0,0.0,0.0,0.0,0.0,0.0,0.0,0.0,0.0,0.0,0.0,0.0,0.0,0.0,0.0,0.0,0.0,0.0,0.0,0.0,0.0,0.0,0.0,0.0,0.0,0.0,0.0,0.0,0.0,0.0,0.0,0.0,0.0,0.0,0.0,0.0,0.0,0.0,0.0,0.0,0.0,0.0,0.0,0.0,0.0,0.0,0.0,0.0,0.0,0.0,0.0,0.0,0.0,0.0,0.0,0.0,0.0,0.0,0.0,0.0,0.0,0.0,0.0,0.0,0.0,-1.6063,-1.7186,-1.9484,-2.0361,-1.9782,-1.6879,-1.4541,0.0,0.0,0.0,0.0,0.0,0.0,0.0,0.0,0.0,0.0,0.0,0.0,0.0,0.0,0.0,0.0,0.0,0.0,0.0,0.0,0.0,0.0,0.0,0.0,0.0,0.0,0.0,0.0,0.0,0.0,0.0,0.0,0.0,0.0,0.0,0.0,0.0,0.0,0.0,0.0,0.0,0.0,0.0,0.0,0.0,0.0,0.0,0.0,-0.214,0.0,0.0,0.0,0.0,0.0,0.0,0.0,0.0,0.0,0.0,0.0,0.0,0.0,0.0,0.0,0.0,0.0,0.0,0.0,0.0,0.0,0.0,0.0,0.0,0.0,0.0,0.0,0.0,0.0,0.0,0.0,0.0,0.0,0.0,0.0,0.0,0.0,0.0,0.0,0.0,0.0,0.0,0.0,0.0,0.0,0.0,0.0,0.0,0.0,0.0,0.0,0.0,0.0,0.0,0.0,0.0,0.0,0.0,0.0,-1.6479,-1.7803,-1.9477,-2.0204,-1.9722,-1.7496,-1.5439,0.0,0.0,0.0,0.0,0.0,0.0,0.0,0.0,0.0,0.0,0.0,0.0,0.0,0.0,0.0,0.0,0.0,0.0,0.0,0.0,0.0,0.0,0.0,0.0,0.0,0.0,0.0,0.0,0.0,0.0,0.0,0.0,0.0,0.0,0.0,0.0,0.0,0.0,0.0,0.0,0.0,0.0,0.0,0.0,0.0,0.0,0.0,0.0,0.0,0.0,0.0,0.0,0.0,0.0,0.0,0.0,0.0,0.0,0.0,0.0,0.0,0.0,0.0,0.0,0.0,0.0,0.0,0.0,0.0,0.0,0.0,0.0,0.0,0.0,0.0,0.0,0.0,0.0,0.0,0.0,0.0,0.0,0.0,0.0,0.0,0.0,0.0,0.0,0.0,0.0,0.0,0.0,0.0,0.0,0.0,0.0,0.0,0.0,0.0,0.0,0.0,0.0,0.0,0.0,0.0,0.0,0.0,-1.4558,-1.6698,-1.8702,-1.955,-1.9912,-1.9897,-1.8545,-1.6518,-1.3899,0.0,0.0,0.0,0.0,0.0,0.0,0.0,0.0,0.0,0.0,0.0,0.0,0.0,0.0,0.0,0.0,0.0,0.0,0.0,0.0,0.0,0.0,0.0,0.0,0.0,0.0,0.0,0.0,0.0,0.0,0.0,0.0,0.0,0.0,0.0,0.0,0.0,0.0,-0.3048,-0.3004,0.0,0.0,0.0,0.0,0.0,0.0,0.0,0.0,-0.2576,0.0,0.0,0.0,0.0,0.0,0.0,0.0,0.0,0.0,0.0,0.0,0.0,0.0,0.0,0.0,0.0,0.0,0.0,0.0,0.0,0.0,0.0,0.0,0.0,0.0,0.0,0.0,0.0,0.0,0.0,0.0,0.0,0.0,0.0,0.0,0.0,0.0,0.0,0.0,0.0,0.0,0.0,0.0,0.0,0.0,0.0,0.0,0.0,0.0,0.0,0.0,0.0,0.0,0.0,0.0,0.0,-1.4719,-1.5656,-1.7486,-2.0313,-2.0497,-2.0557,-2.0498,-1.8717,-1.6503,-1.3844,0.0,0.0,0.0,0.0,0.0,0.0,0.0,0.0,0.0,0.0,0.0,0.0,0.0,0.0,0.0,0.0,0.0,0.0,0.0,0.0,0.0,0.0,0.0,0.0,0.0,0.0,0.0,0.0,0.0,0.0,0.0,0.0,0.0,0.0,0.0,0.0,0.0,0.0,0.0,-0.3921,-0.3826,0.0,0.0,0.0,0.0,0.0,0.0,0.0,0.0,-0.3321,0.0,0.0,0.0,0.0,0.0,0.0,0.0,0.0,0.0,0.0,0.0,0.0,0.0,0.0,0.0,0.0,0.0,0.0,0.0,0.0,0.0,0.0,0.0,0.0,0.0,0.0,0.0,0.0,0.0,0.0,0.0,0.0,0.0,0.0,0.0,0.0,0.0,0.0,0.0,0.0,0.0,0.0,0.0,0.0,0.0,0.0,0.0,0.0,0.0,0.0,0.0,0.0,0.0,0.0,0.0,-1.5154,-1.7222,-1.9223,-2.125,-2.124,-2.1231,-2.1171,-1.8957,-1.6667,0.0,0.0,0.0,0.0,0.0,0.0,0.0,0.0,0.0,0.0,0.0,0.0,0.0,0.0,0.0,0.0,0.0,0.0,0.0,0.0,0.0,0.0,0.0,0.0,0.0,0.0,0.0,0.0,0.0,0.0,0.0,0.0,0.0,0.0,0.0,0.0,0.0,0.0,0.0,0.0,-0.472,-0.4646,-0.5564,0.0,0.0,0.0,0.0,0.0,0.0,-0.4134,-0.3822,0.0,0.0,0.0,0.0,0.0,0.0,0.0,0.0,0.0,0.0,0.0,0.0,0.0,0.0,0.0,0.0,0.0,0.0,0.0,0.0,0.0,0.0,0.0,0.0,0.0,0.0,0.0,0.0,0.0,0.0,0.0,0.0,0.0,0.0,0.0,0.0,0.0,0.0,0.0,0.0,0.0,0.0,0.0,0.0,0.0,0.0,0.0,0.0,0.0,0.0,0.0,0.0,0.0,0.0,0.0,-1.5149,-1.8371,-2.0652,-2.1904,-2.1914,-2.1889,-2.1844,-1.9046,-1.6637,0.0,0.0,0.0,0.0,0.0,0.0,0.0,0.0,0.0,0.0,0.0,0.0,0.0,0.0,0.0,0.0,0.0,0.0,0.0,0.0,0.0,0.0,0.0,0.0,0.0,0.0,0.0,0.0,0.0,0.0,0.0,0.0,0.0,0.0,0.0,0.0,0.0,0.0,0.0,0.0,0.0,-0.5412,-0.6513,-0.5615,0.0,0.0,0.0,0.0,-0.5074,-0.4926,0.0,0.0,0.0,0.0,0.0,0.0,0.0,0.0,0.0,0.0,0.0,0.0,0.0,0.0,0.0,0.0,0.0,0.0,0.0,0.0,0.0,0.0,0.0,0.0,0.0,0.0,0.0,0.0,0.0,0.0,0.0,0.0,0.0,0.0,0.0,0.0,0.0,0.0,0.0,0.0,0.0,0.0,0.0,0.0,0.0,0.0,0.0,0.0,0.0,0.0,0.0,0.0,0.0,0.0,0.0,0.0,-1.4917,-1.8175,-2.0723,-2.2499,-2.2562,-2.2604,-2.2559,-1.8832,-1.6099,0.0,0.0,0.0,0.0,0.0,0.0,0.0,0.0,0.0,0.0,0.0,0.0,0.0,0.0,0.0,0.0,0.0,0.0,0.0,0.0,0.0,0.0,0.0,0.0,0.0,0.0,0.0,0.0,0.0,0.0,0.0,0.0,0.0,0.0,0.0,0.0,0.0,0.0,0.0,0.0,0.0,-0.5914,-0.5385,-0.5618,-0.5766,0.0,0.0,-0.6557,-0.6619,-0.663,0.0,0.0,0.0,0.0,0.0,0.0,0.0,0.0,0.0,0.0,0.0,0.0,0.0,0.0,0.0,0.0,0.0,0.0,0.0,0.0,0.0,0.0,0.0,0.0,0.0,0.0,0.0,0.0,0.0,0.0,0.0,0.0,0.0,0.0,0.0,0.0,0.0,0.0,0.0,0.0,0.0,0.0,0.0,0.0,0.0,0.0,0.0,0.0,0.0,0.0,0.0,0.0,0.0,0.0,0.0,-1.3277,-1.5538,-1.9741,-2.2394,-2.3161,-2.3206,-2.3206,-2.3191,-1.8657,-1.5832,0.0,0.0,0.0,0.0,0.0,0.0,0.0,0.0,0.0,0.0,0.0,0.0,0.0,0.0,0.0,0.0,0.0,0.0,0.0,0.0,0.0,0.0,0.0,0.0,0.0,0.0,0.0,0.0,0.0,0.0,0.0,0.0,0.0,0.0,0.0,0.0,0.0,0.0,0.0,0.0,0.0,0.0,-0.71,-0.7151,0.0,0.0,0.0,-0.7392,-0.6965,0.0,0.0,0.0,0.0,0.0,0.0,0.0,0.0,0.0,0.0,0.0,0.0,0.0,0.0,0.0,0.0,0.0,0.0,0.0,0.0,0.0,0.0,0.0,0.0,0.0,0.0,0.0,0.0,0.0,0.0,0.0,0.0,0.0,0.0,0.0,0.0,0.0,0.0,0.0,0.0,0.0,0.0,0.0,0.0,0.0,0.0,0.0,0.0,0.0,0.0,0.0,0.0,0.0,0.0,0.0,0.0,0.0,-1.596,-2.097,-2.3595,-2.3595,-2.3595,-2.3595,-2.352,-1.9179,0.0,0.0,0.0,0.0,0.0,0.0,0.0,0.0,0.0,0.0,0.0,0.0,0.0,0.0,0.0,0.0,0.0,0.0,0.0,0.0,0.0,0.0,0.0,0.0,0.0,0.0,0.0,-0.2953,0.0,0.0,0.0,0.0,0.0,0.0,0.0,0.0,0.0,0.0,0.0,0.0,0.0,0.0,-0.7432,-0.8216,-0.842,-0.8524,0.0,0.0,-0.8355,-0.7804,-0.8133,-0.7928,0.0,0.0,0.0,0.0,0.0,0.0,0.0,0.0,0.0,0.0,0.0,0.0,0.0,0.0,0.0,0.0,0.0,0.0,0.0,0.0,0.0,0.0,0.0,0.0,0.0,0.0,0.0,0.0,0.0,0.0,0.0,0.0,0.0,0.0,0.0,0.0,0.0,0.0,0.0,0.0,0.0,0.0,0.0,0.0,0.0,0.0,0.0,0.0,0.0,0.0,0.0,0.0,0.0,0.0,0.0,-1.602,-2.0985,-2.3595,-2.3595,-2.3595,-2.3595,-2.3565,-2.0988,-1.8223,0.0,0.0,0.0,0.0,0.0,0.0,0.0,0.0,0.0,0.0,0.0,0.0,0.0,0.0,0.0,0.0,0.0,0.0,0.0,0.0,0.0,0.0,0.0,0.0,0.0,0.0,0.0,0.0,0.0,0.0,0.0,0.0,0.0,0.0,0.0,0.0,0.0,0.0,0.0,0.0,0.0,-0.8196,-0.7168,-0.8716,-0.9938,0.0,0.0,-0.9784,-0.9861,-0.9684,-0.8883,-0.6799,0.0,0.0,0.0,0.0,0.0,0.0,0.0,0.0,0.0,0.0,0.0,0.0,0.0,0.0,0.0,0.0,0.0,0.0,0.0,0.0,0.0,0.0,0.0,0.0,0.0,0.0,0.0,0.0,0.0,0.0,0.0,0.0,0.0,0.0,0.0,0.0,0.0,0.0,0.0,0.0,0.0,0.0,0.0,0.0,0.0,0.0,0.0,0.0,0.0,0.0,0.0,0.0,0.0,-1.4517,-1.593,-2.0985,-2.3595,-2.3595,-2.3595,-2.3595,-2.3595,-2.0841,-1.8129,0.0,0.0,0.0,0.0,0.0,0.0,0.0,0.0,0.0,0.0,0.0,0.0,0.0,0.0,0.0,0.0,0.0,0.0,0.0,0.0,0.0,0.0,0.0,0.0,0.0,0.0,0.0,0.0,-0.6725,-0.7412,-0.8181,0.0,0.0,0.0,0.0,0.0,0.0,0.0,0.0,0.0,0.0,-0.945,-0.9461,-1.0376,0.0,0.0,-1.0447,-1.0303,-1.0265,-0.9778,-0.8937,-0.7736,-0.6805,0.0,0.0,0.0,0.0,0.0,0.0,0.0,0.0,0.0,0.0,0.0,0.0,0.0,0.0,0.0,0.0,0.0,0.0,0.0,0.0,0.0,0.0,0.0,0.0,0.0,0.0,0.0,0.0,0.0,0.0,0.0,0.0,0.0,0.0,0.0,0.0,0.0,0.0,0.0,0.0,0.0,0.0,0.0,0.0,0.0,0.0,0.0,0.0,0.0,0.0,0.0,0.0,-1.4788,-1.6686,-2.1265,-2.3595,-2.3595,-2.3595,-2.3595,-2.355,-2.1231,-1.8826,0.0,0.0,0.0,0.0,0.0,0.0,0.0,0.0,0.0,0.0,0.0,0.0,0.0,0.0,0.0,0.0,0.0,0.0,0.0,0.0,0.0,0.0,0.0,0.0,0.0,0.0,0.0,0.0,-0.7492,-0.8197,-0.9213,0.0,0.0,0.0,0.0,0.0,0.0,0.0,0.0,0.0,0.0,-1.0955,-1.1504,-1.1774,-1.1744,-1.1361,-1.0996,-1.0694,-1.0499,-1.0024,-0.9344,-0.8366,0.0,0.0,0.0,0.0,0.0,0.0,0.0,0.0,0.0,0.0,0.0,0.0,0.0,0.0,0.0,0.0,0.0,0.0,0.0,0.0,0.0,0.0,0.0,0.0,0.0,0.0,0.0,0.0,0.0,0.0,-0.607,0.0,0.0,0.0,0.0,0.0,0.0,0.0,0.0,0.0,0.0,0.0,0.0,0.0,0.0,0.0,0.0,0.0,0.0,0.0,0.0,0.0,0.0,-1.5406,-1.8397,-2.1828,-2.3595,-2.3595,-2.3595,-2.3595,-2.3551,-2.2563,-2.0922,-1.8584,0.0,0.0,0.0,0.0,0.0,0.0,0.0,0.0,0.0,0.0,0.0,0.0,0.0,0.0,0.0,0.0,0.0,0.0,0.0,0.0,0.0,0.0,0.0,0.0,0.0,0.0,-0.4928,-0.6166,-0.733,0.0,0.0,0.0,0.0,0.0,0.0,0.0,0.0,0.0,0.0,-1.164,-1.2716,-1.2704,-1.2577,-1.2395,-1.2139,-1.1486,-1.0937,-1.0655,-1.0833,-1.0434,0.0,0.0,0.0,0.0,0.0,0.0,0.0,0.0,0.0,0.0,0.0,0.0,0.0,0.0,0.0,0.0,0.0,0.0,0.0,0.0,0.0,0.0,0.0,0.0,0.0,0.0,0.0,-1.0757,-1.0184,0.0,0.0,0.0,0.0,0.0,0.0,0.0,0.0,0.0,0.0,0.0,-1.5518,-1.5901,0.0,0.0,0.0,0.0,0.0,0.0,0.0,0.0,0.0,0.0,0.0,0.0,-1.5853,-1.8511,-2.1896,-2.3595,-2.3595,-2.3595,-2.3595,-2.3595,-2.2649,-2.0709,-1.7774,0.0,0.0,0.0,0.0,0.0,0.0,0.0,0.0,0.0,0.0,0.0,0.0,0.0,0.0,0.0,0.0,0.0,0.0,0.0,0.0,0.0,0.0,0.0,0.0,0.0,-0.6765,0.0,0.0,0.0,0.0,0.0,0.0,0.0,0.0,0.0,0.0,0.0,-1.1368,-1.1818,-1.2832,-1.3655,-1.4024,-1.3568,-1.3105,0.0,0.0,0.0,0.0,0.0,0.0,0.0,0.0,0.0,0.0,0.0,0.0,0.0,0.0,-0.5841,-0.5683,-0.4417,-0.3387,-0.3594,0.0,0.0,0.0,0.0,0.0,0.0,0.0,0.0,0.0,0.0,0.0,0.0,0.0,0.0,-1.4059,0.0,-1.3257,0.0,0.0,0.0,0.0,0.0,0.0,0.0,0.0,-1.7347,-1.837,-1.8222,-1.8592,-1.8609,0.0,-1.8079,-1.597,0.0,0.0,0.0,0.0,0.0,0.0,0.0,0.0,-1.6718,-2.0179,-2.2471,-2.3595,-2.3595,-2.3595,-2.3595,-2.3595,-2.283,-2.1202,-1.8738,-1.6206,-1.4086,0.0,0.0,0.0,0.0,0.0,0.0,0.0,0.0,0.0,0.0,0.0,0.0,0.0,0.0,0.0,0.0,0.0,0.0,0.0,0.0,0.0,0.0,0.0,-0.7464,0.0,0.0,0.0,0.0,0.0,0.0,0.0,0.0,0.0,-0.9921,-1.1621,-1.2911,-1.3099,-1.3943,-1.4541,-1.4526,0.0,0.0,0.0,0.0,0.0,0.0,0.0,-1.0621,-1.0745,-1.0056,-0.9249,-0.8655,-0.7348,-0.6247,-0.5909,0.0,0.0,-0.5925,-0.5028,-0.4245,-0.4209,-0.3751,-0.3298,-0.3088,-0.2596,-0.2334,0.0,0.0,0.0,0.0,0.0,0.0,0.0,0.0,-1.7956,-1.7511,0.0,-1.6816,0.0,0.0,0.0,0.0,0.0,-1.7055,0.0,0.0,-2.2334,-2.3233,-2.1534,-2.1496,-2.1732,-2.206,-2.0517,-1.966,-1.9403,-1.7973,0.0,0.0,0.0,0.0,0.0,0.0,-1.7946,-2.33,-2.3545,-2.3595,-2.3595,-2.3595,-2.3595,-2.3566,-2.3113,-2.2406,-2.1411,-1.9216,-1.7558,-1.6323,-1.2056,0.0,0.0,0.0,0.0,0.0,0.0,0.0,0.0,0.0,0.0,0.0,0.0,0.0,0.0,0.0,0.0,0.0,0.0,0.0,0.0,-0.7265,0.0,0.0,0.0,0.0,0.0,0.0,0.0,0.0,0.0,0.0,-1.2947,-1.3455,-1.375,-1.3801,0.0,0.0,0.0,0.0,-1.3591,-1.3252,-1.2518,-1.2248,-1.2813,-1.2271,-1.1705,-1.1391,0.0,0.0,-0.9126,-0.8579,-0.7693,-0.5775,-0.5478,-0.5439,-0.5426,-0.5366,-0.525,-0.5188,-0.4754,-0.4223,-0.3512,-0.3254,-0.3104,-1.8384,0.0,0.0,0.0,0.0,-1.776,-1.9232,-2.1457,-2.1457,-2.0998,-2.0304,-2.0287,0.0,0.0,0.0,0.0,0.0,0.0,-1.9265,-2.0376,-2.1936,-2.2949,-2.3473,-2.3908,-2.4145,-2.4234,-2.4828,-2.501,-2.4789,-2.4673,-2.0448,-1.2452,0.0,0.0,0.0,0.0,-1.891,-2.326,-2.3599,-2.3595,-2.3595,-2.3595,-2.3421,-2.3113,-2.2979,-2.2558,-2.1941,-2.0964,-1.9524,-1.7571,-1.5488,0.0,0.0,0.0,0.0,0.0,0.0,0.0,0.0,0.0,0.0,0.0,0.0,0.0,0.0,0.0,0.0,0.0,0.0,0.0,-0.7204,-0.8196,-0.847,0.0,0.0,0.0,0.0,0.0,0.0,0.0,0.0,0.0,-1.4529,-1.5006,-1.5187,0.0,0.0,-1.4606,-1.4339,-1.4079,-1.3795,-1.3525,-1.3313,0.0,-1.3486,-1.2606,-1.1988,-1.2182,-1.174,-1.1255,-1.0815,-0.9875,-0.877,-0.7681,-0.6515,-0.5679,-0.5783,-0.5556,-0.5366,-0.5337,-0.4813,-0.43,-0.4028,-0.3236,-0.2289,-2.137,-1.9614,-1.8677,-1.8955,-2.0026,-2.0241,-2.1652,-2.3782,-2.384,-2.3428,-2.2786,-2.3129,-2.166,-1.8925,-1.853,0.0,0.0,0.0,-2.1141,-2.2697,-2.2999,-2.3802,-2.4989,-2.5207,-2.5635,-2.6191,-2.6928,-2.7338,-2.7406,-2.6581,-2.3059,-1.7016,0.0,0.0,-0.9682,-1.5672,-2.0431,-2.3435,-2.3763,-2.3767,-2.3595,-2.3595,-2.3465,-2.3201,-2.3157,-2.292,-2.242,-2.2072,-2.1079,-1.9407,-1.8535,-1.6139,0.0,0.0,0.0,0.0,0.0,0.0,0.0,0.0,0.0,0.0,0.0,-0.4707,0.0,0.0,0.0,0.0,-0.6921,-0.8715,-0.9045,-0.9279,0.0,0.0,0.0,0.0,0.0,0.0,0.0,-1.0286,-1.2328,-1.3907,-1.4525,-1.5218,-1.5646,-1.5497,-1.5156,-1.4774,-1.4523,0.0,-1.3886,-1.3685,-1.3392,-1.3191,-1.339,-1.261,-1.2012,-1.1981,-1.1608,-1.1243,-1.1243,-1.052,-0.961,-0.8614,-0.7385,-0.6421,-0.6101,-0.5727,-0.5515,-0.546,-0.5062,-0.4688,-0.4353,-0.3349,-0.228,-2.397,-2.3764,-2.1362,-2.114,-2.2374,-2.2596,-2.3579,-2.5072,-2.5236,-2.4926,-2.4389,-2.5273,-2.3906,-2.0892,-2.0009,0.0,-2.1859,-2.2565,-2.3752,-2.5306,-2.5101,-2.5437,-2.617,-2.5871,-2.6446,-2.7803,-2.7417,-2.7548,-2.7987,-2.5559,-2.3779,-2.2937,-2.2641,-1.8741,-1.2014,-1.7956,-2.2134,-2.378,-2.4076,-2.4013,-2.3696,-2.3595,-2.3595,-2.3595,-2.3595,-2.3377,-2.2889,-2.2729,-2.223,-2.1431,-2.0941,-1.9336,-1.6335,0.0,0.0,0.0,0.0,0.0,0.0,0.0,0.0,0.0,0.0,0.0,0.0,0.0,0.0,0.0,-0.9922,0.0,-1.1726,-1.051,0.0,0.0,0.0,-0.9607,-0.9399,-1.1221,-1.2036,-1.1032,0.0,0.0,-1.3646,-1.4633,-1.5405,-1.524,-1.544,-1.5365,-1.477,-1.4265,-1.3871,-1.3522,-1.3024,-1.2677,-1.2757,-1.2462,-1.2035,-1.1436,-1.1013,-1.102,-1.0947,-1.0765,-1.0139,-0.8885,-0.8052,-0.72,-0.6223,-0.5909,-0.5779,-0.5654,-0.5511,-0.5202,-0.4602,-0.3792,-0.2849,-2.5579,-2.5597,-2.5263,-2.4662,-2.3896,-2.4091,-2.4534,-2.5099,-2.5234,-2.5216,-2.5146,-2.5473,-2.5175,-2.4438,-2.4127,-2.4187,-2.4559,-2.4582,-2.5248,-2.6362,-2.6045,-2.6337,-2.7081,-2.7416,-2.7676,-2.7901,-2.8283,-2.8469,-2.843,-2.7549,-2.6286,-2.4813,-2.4486,-2.1596,-1.6444,-1.9119,-2.2271,-2.5564,-2.3975,-2.346,-2.409,-2.3767,-2.3595,-2.3595,-2.3595,-2.3377,-2.2889,-2.2715,-2.223,-2.1423,-2.096,-1.9483,-1.6844,-1.3458,0.0,0.0,0.0,0.0,0.0,0.0,0.0,0.0,0.0,-0.5436,-0.3958,0.0,-0.6495,0.0,-0.9284,-1.2328,-1.264,-1.2316,0.0,0.0,-1.1539,-1.1308,-1.1801,-1.3014,-1.3077,-1.1104,-1.3641,-1.5496,-1.5305,-1.5269,-1.5361,-1.5558,-1.5094,-1.5134,-1.5953,-1.5481,-1.4088,-1.2141,-1.2798,-1.3423,-1.2636,-1.2361,-1.2121,-1.186,-1.1576,-1.1455,-1.1273,-1.1132,-1.0473,-0.899,-0.7555,-0.663,-0.6301,-0.6057,-0.5973,-0.5925,-0.58,-0.5624,-0.5483,-0.4341,-0.328,-2.6157,-2.6227,-2.6562,-2.6227,-2.5448,-2.5434,-2.5494,-2.5609,-2.5426,-2.5363,-2.5421,-2.5567,-2.5664,-2.5705,-2.5593,-2.5529,-2.5517,-2.5716,-2.6173,-2.6783,-2.6854,-2.729,-2.8075,-2.828,-2.8447,-2.8567,-2.8857,-2.8845,-2.8587,-2.8273,-2.7602,-2.6614,-2.6173,-2.3903,-2.0036,-2.0704,-2.139,-2.1729,-2.1998,-2.2794,-2.4199,-2.3867,-2.3206,-2.2353,-2.2308,-2.1728,-2.0542,-2.168,-2.122,-1.8892,-1.8038,-1.7037,-1.5694,-1.2985,-1.0895,0.0,0.0,0.0,0.0,0.0,0.0,0.0,0.0,0.0,0.0,0.0,-0.8293,-0.7699,-1.1707,-1.4032,-1.3263,-1.3561,-1.3861,-1.3982,-1.3913,-1.4014,-1.4307,-1.5091,-1.4997,-1.3536,-1.4864,-1.5848,-1.5796,-1.5578,-1.5531,-1.5831,-1.5486,-1.5452,-1.6065,-1.5739,-1.4638,-1.2931,-1.3186,-1.3397,-1.2418,-1.2278,-1.2224,-1.1929,-1.1781,-1.1632,-1.1335,-1.118,-1.0663,-0.9458,-0.8016,-0.6949,-0.6868,-0.6423,-0.6132,-0.6122,-0.6064,-0.5962,-0.583,-0.4862,-0.3926,-2.6465,-2.6535,-2.6783,-2.6979,-2.7102,-2.6748,-2.6536,-2.6426,-2.5928,-2.5677,-2.5614,-2.569,-2.5703,-2.5705,-2.5736,-2.5678,-2.5575,-2.6406,-2.6948,-2.7249,-2.7676,-2.828,-2.9044,-2.8867,-2.8998,-2.9399,-2.9193,-2.8943,-2.8587,-2.8308,-2.8049,-2.7817,-2.725,-2.5407,-2.2433,-2.2168,-2.0348,-1.6973,-1.9884,-2.2273,-2.3994,-2.3443,-2.2263,-2.0572,-2.0453,-1.9456,-1.748,-1.9958,-1.9612,-1.5744,-1.4029,-1.3631,-1.4525,-1.216,-1.0682,0.0,-0.8234,0.0,0.0,0.0,0.0,0.0,0.0,0.0,0.0,-1.0061,-1.0744,-1.2162,-1.5245,-1.6277,-1.4125,-1.4778,-1.5612,-1.6311,-1.6672,-1.6791,-1.6753,-1.7014,-1.7,-1.6431,-1.6239,-1.5999,-1.5748,-1.576,-1.5851,-1.6037,-1.6152,-1.615,-1.5961,-1.5714,-1.5384,-1.5206,-1.3871,-1.2806,-1.2364,-1.2291,-1.215,-1.1781,-1.1632,-1.1558,-1.1186,-1.1111,-1.0812,-0.9841,-0.8699,-0.7863,-0.748,-0.6718,-0.6331,-0.6247,-0.624,-0.6159,-0.5875,-0.5225,-0.4342,-2.8135,-2.8184,-2.8429,-2.8658,-2.8795,-2.8291,-2.7774,-2.7281,-2.7381,-2.7142,-2.6657,-2.5989,-2.5703,-2.5744,-2.636,-2.6285,-2.5746,-2.7054,-2.8335,-2.9519,-2.8951,-2.9134,-2.9904,-2.9722,-2.9564,-2.9399,-2.9193,-2.8925,-2.8587,-2.8536,-2.7774,-2.6348,-2.5879,-2.4545,-2.2407,0.0,0.0,0.0,-2.197,-2.2707,-2.2617,-2.128,-2.0077,-1.9121,-1.9091,0.0,-1.69,-1.7541,-1.7362,-1.6048,-1.2074,0.0,0.0,0.0,0.0,0.0,0.0,0.0,0.0,0.0,0.0,0.0,-0.9933,-0.978,-1.0306,-1.0507,-1.1454,-1.3531,-1.6715,-1.8125,-1.7,-1.7363,-1.7734,-1.7843,-1.7848,-1.7909,-1.8173,-1.7634,-1.6989,-1.6488,-1.6249,-1.5989,-1.5768,-1.6019,-1.6157,-1.6164,-1.6544,-1.6821,-1.6645,-1.6525,-1.6575,-1.6756,-1.4338,-1.2517,-1.2285,-1.215,-1.2003,-1.1781,-1.1552,-1.1403,-1.1186,-1.1117,-1.0588,-0.9306,-0.8699,-0.8016,-0.6876,-0.6412,-0.6261,-0.6261,-0.6261,-0.6244,-0.6183,-0.5552,-0.4709,-2.8466,-2.8637,-2.9026,-2.9188,0.0,-2.93,-2.9102,-2.8755,-2.8191,-2.782,-2.7613,-2.7183,-2.6973,-2.6995,-2.7413,-2.7371,-2.7036,-2.8053,-2.9147,-3.0138,-2.9754,-2.9784,-3.0204,-3.0068,-2.9839,-2.9551,-2.9297,-2.9034,-2.8761,-2.8637,-2.8128,-2.7234,-2.6872,-2.5991,-2.4648,-2.4264,-2.3635,-2.2748,-2.2748,-2.3032,-2.3475,-2.2345,-2.0899,-1.9376,-1.9244,0.0,0.0,0.0,0.0,0.0,0.0,0.0,0.0,-1.4017,0.0,-1.3905,-1.2467,-1.1864,-1.2375,-1.2444,-1.2789,-1.3479,-1.3425,-1.3058,-1.222,-1.3233,-1.4537,-1.5979,-1.8059,-1.8984,-1.8342,-1.8843,-1.9097,-1.878,-1.8833,-1.8934,-1.8845,-1.8422,-1.7765,-1.6955,-1.6616,-1.6275,-1.5836,-1.6049,-1.6264,-1.6377,-1.6805,-1.7111,-1.7168,-1.7071,-1.6899,-1.6147,-1.4061,-1.2305,-1.2305,-1.215,-1.1929,-1.1706,-1.1558,-1.1335,-1.1111,-1.1117,-1.0657,-0.9458,-0.8399,-0.7253,-0.7022,-0.6567,-0.6261,-0.6261,-0.6261,-0.6261,-0.6257,-0.5944,-0.524,-2.8352,-2.8637,-2.9075,-2.9272,-2.9336,-2.9841,-3.0083,-3.0084,0.0,0.0,0.0,-2.8355,-2.8301,-2.8323,-2.8457,-2.8431,-2.8345,-2.909,-2.9699,-3.0215,-3.0213,-3.0185,-3.019,-3.0098,-2.9924,-2.9662,-2.9415,-2.9123,-2.8887,-2.8712,-2.8587,-2.8562,-2.8228,-2.7677,-2.6937,-2.6488,-2.566,-2.4381,-2.314,-2.3139,-2.4375,-2.3468,-2.1865,-1.9696,-1.9536,-1.8341,-1.5861,-1.3297,-1.2733,-1.4423,-1.6139,-1.6021,-1.3771,-1.3426,-1.3284,-1.3163,-1.3097,-1.3538,-1.4573,-1.4745,-1.5229,-1.6332,-1.6534,-1.593,-1.4458,-1.6191,-1.7501,-1.7924,-1.8899,-1.93,-1.8863,-1.9623,-1.9926,-1.9396,-1.9604,-1.9592,-1.9198,-1.904,-1.8536,-1.7534,-1.6989,-1.656,-1.5972,-1.6078,-1.6328,-1.6685,-1.7067,-1.7235,-1.7375,-1.7204,-1.6578,-1.4991,-1.339,-1.2305,-1.2231,-1.2077,-1.1855,-1.1632,-1.1484,-1.1329,-1.1186,-1.1117,-1.0738,-0.969,-0.7787,-0.6795,-0.7103,-0.6718,-0.6335,-0.6261,-0.6261,-0.6261,-0.6261,-0.6257,-0.5709,-2.8543,-2.8637,-2.8934,-2.9144,-2.9338,-2.9625,-3.0013,-3.0365,-2.9448,-2.9142,-2.9291,-2.8609,-2.8301,-2.8342,-2.9032,-2.8953,-2.8418,-2.9713,-3.0278,-3.0215,-3.0221,-3.0176,-3.0083,-2.9988,-2.9786,-2.9533,-2.9256,-2.9056,-2.8887,-2.8687,-2.8587,-2.8536,-2.8101,-2.7457,-2.6708,-2.6624,-2.6197,-2.5289,-2.3795,-2.2886,-2.2654,-2.1151,-1.9803,-1.8771,-1.8735,-1.7892,-1.6195,-1.5485,-1.5248,-1.5627,-1.7973,-1.85,-1.6775,-1.5893,-1.5796,-1.6407,-1.61,-1.5904,-1.6073,-1.61,-1.6182,-1.6363,-1.6524,-1.6557,-1.66,-1.6993,-1.7345,-1.7479,-1.8583,-1.9186,-1.8903,-1.9515,-1.9978,-1.9875,-1.9811,-1.9747,-1.9643,-1.9291,-1.8697,-1.7863,-1.7202,-1.6549,-1.5934,-1.6245,-1.6728,-1.7006,-1.7292,-1.7493,-1.7235,-1.7101,-1.6342,-1.48,-1.331,-1.2372,-1.2077,-1.1855,-1.1706,-1.1484,-1.1335,-1.1186,-1.1111,-1.1117,-1.0588,-0.916,-0.7484,-0.649,-0.649,-0.6416,-0.6261,-0.6261,-0.6261,-0.6261,-0.6257,-0.6257,-0.5712,-2.844,-2.8637,-2.9007,-2.9212,-2.9339,-2.9731,-3.0112,-3.0395,-3.0066,-3.0017,-3.0169,-2.982,-2.9648,-2.9698,-3.006,-3.002,-2.9686,-3.0247,-3.0393,-3.0208,-3.0161,-3.0132,-3.0068,-2.9926,-2.9716,-2.9495,-2.9235,-2.9016,-2.8887,-2.8637,-2.8502,-2.8432,-2.78,-2.7195,-2.6708,-2.6245,-2.5872,-2.5503,-2.4537,-2.3856,-2.3388,-2.2409,-2.153,-2.0793,-2.0712,-2.0061,-1.8768,-1.8236,-1.7965,-1.7949,-1.9132,-1.9143,-1.7819,-1.7311,-1.6981,-1.6821,-1.6534,-1.6374,-1.6374,-1.6374,-1.6374,-1.6374,-1.6488,-1.6581,-1.6797,-1.692,-1.7188,-1.7489,-1.813,-1.8625,-1.8952,-1.9328,-1.9668,-1.9862,-1.9811,-1.9798,-1.9798,-1.9592,-1.9004,-1.8104,-1.7768,-1.7156,-1.5836,-1.6501,-1.7061,-1.7132,-1.7369,-1.7432,-1.7107,-1.6924,-1.635,-1.4864,-1.36,-1.2746,-1.215,-1.1713,-1.1558,-1.1409,-1.126,-1.1117,-1.1117,-1.1117,-1.0432,-0.9003,-0.7407,-0.6412,-0.6261,-0.6261,-0.6261,-0.6261,-0.6261,-0.6261,-0.6257,-0.5944,-0.5082,-2.8352,-2.8637,-2.9101,-2.9377,-2.9495,-2.9918,-3.0216,-3.0414,-3.0472,-3.0626,-3.0774,-3.0797,-3.08,-3.0801,-3.0794,-3.0789,-3.0739,-3.0558,-3.0372,-3.0164,-3.0118,-3.0072,-3.0026,-2.9876,-2.97,-2.9456,-2.9233,-2.9052,-2.8881,-2.8543,-2.8327,-2.8191,-2.7612,-2.7117,-2.6725,-2.6104,-2.5631,-2.5351,-2.5059,-2.4664,-2.4261,-2.3824,-2.3334,-2.2844,-2.2529,-2.1988,-2.0979,-2.0354,-1.999,-1.9837,-1.9798,-1.9267,-1.8201,-1.8093,-1.7611,-1.6534,-1.6374,-1.6374,-1.6374,-1.6374,-1.6374,-1.6374,-1.6374,-1.6431,-1.6524,-1.6648,-1.6917,-1.7398,-1.7479,-1.7877,-1.8588,-1.9023,-1.9291,-1.9604,-1.9747,-1.9798,-1.9798,-1.9798,-1.9316,-1.8242,-1.8205,-1.7687,-1.6607,-1.6835,-1.7324,-1.729,-1.7331,-1.7304,-1.7056,-1.693,-1.629,-1.4927,-1.389,-1.3025,-1.2144,-1.1632,-1.1409,-1.1335,-1.1186,-1.1111,-1.1117,-1.1117,-1.0432,-0.8998,-0.7407,-0.6412,-0.6261,-0.6261,-0.6261,-0.6261,-0.6261,-0.6257,-0.5944,-0.5237,-0.4377,-2.8562,-2.8669,-2.9101,-2.9589,-3.0007,-3.0079,-3.0248,-3.0463,-3.0482,-3.0607,-3.0775,-3.0797,-3.08,-3.0801,-3.0798,-3.0728,-3.0614,-3.0472,-3.0279,-3.0043,-3.0071,-2.9991,-2.9842,-2.9789,-2.9664,-2.9414,-2.9191,-2.9034,-2.8863,-2.8562,-2.8146,-2.773,-2.7582,-2.7213,-2.6657,-2.6537,-2.5977,-2.4981,-2.4808,-2.4511,-2.412,-2.3711,-2.3378,-2.3068,-2.2572,-2.2035,-2.1334,-2.0997,-2.0461,-1.985,-1.9798,-1.9267,-1.8255,-1.8093,-1.7611,-1.6477,-1.6431,-1.6374,-1.6374,-1.6374,-1.6374,-1.6374,-1.6374,-1.6431,-1.6431,-1.6431,-1.6545,-1.6839,-1.6828,-1.7099,-1.7656,-1.8441,-1.8934,-1.9081,-1.9488,-1.9798,-1.9747,-1.9798,-1.9385,-1.8374,-1.8304,-1.7916,-1.7146,-1.7197,-1.7444,-1.7523,-1.7347,-1.7245,-1.7107,-1.6848,-1.6219,-1.4744,-1.3875,-1.3004,-1.1996,-1.1564,-1.1335,-1.1186,-1.1111,-1.1043,-1.1043,-1.0962,-1.0582,-0.877,-0.7407,-0.6338,-0.6261,-0.6261,-0.6261,-0.6261,-0.6257,-0.6103,-0.5318,-0.4691,-0.3832,-2.8587,-2.8637,-2.9101,-2.9589,-3.0003,-3.0128,-3.0279,-3.0434,-3.0492,-3.0619,-3.0779,-3.08,-3.0795,-3.0798,-3.075,-3.0659,-3.0543,-3.0404,-3.0232,-2.9997,-2.9946,-2.9876,-2.9789,-2.9755,-2.9551,-2.9251,-2.9148,-2.8925,-2.8576,-2.83,-2.7864,-2.7307,-2.7244,-2.694,-2.6364,-2.5974,-2.546,-2.4808,-2.4379,-2.3937,-2.3538,-2.3127,-2.2799,-2.2618,-2.2142,-2.1561,-2.0993,-2.0785,-2.0448,-1.985,-1.9798,-1.9448,-1.8643,-1.8309,-1.771,-1.6944,-1.6581,-1.6374,-1.6374,-1.6374,-1.6374,-1.6374,-1.6374,-1.6374,-1.6374,-1.6374,-1.6431,-1.6545,-1.6545,-1.6761,-1.729,-1.771,-1.8081,-1.8429,-1.8963,-1.9344,-1.9344,-1.9552,-1.9434,-1.8983,-1.8641,-1.8162,-1.7382,-1.7368,-1.7523,-1.7569,-1.7373,-1.7166,-1.7038,-1.6473,-1.5604,-1.4514,-1.3556,-1.2611,-1.1768,-1.1335,-1.1186,-1.1111,-1.1117,-1.1043,-1.0513,-1.0887,-1.0432,-0.8394,-0.7099,-0.6338,-0.6261,-0.6261,-0.6261,-0.6261,-0.6261,-0.618,-0.5867,-0.5392,-0.4688,-2.8637,-2.8767,-2.923,-2.9644,-3.0053,-3.0166,-3.0297,-3.0424,-3.0496,-3.0619,-3.0781,-3.0779,-3.0777,-3.0755,-3.0728,-3.0605,-3.0453,-3.0351,-3.0171,-2.9956,-2.9853,-2.979,-2.9792,-2.9719,-2.9492,-2.9148,-2.9064,-2.8761,-2.8228,-2.7979,-2.7569,-2.6973,-2.6875,-2.659,-2.6026,-2.5497,-2.5005,-2.4527,-2.4006,-2.3523,-2.3112,-2.2632,-2.2388,-2.2235,-2.1799,-2.1224,-2.061,-2.0459,-2.0207,-1.9798,-1.9798,-1.9552,-1.8975,-1.8363,-1.7699,-1.6944,-1.6467,-1.6259,-1.6306,-1.6316,-1.6316,-1.6374,-1.6374,-1.6374,-1.6374,-1.6374,-1.6374,-1.6306,-1.6316,-1.6524,-1.6899,-1.709,-1.7424,-1.782,-1.8363,-1.8697,-1.8697,-1.9006,-1.9124,-1.892,-1.8676,-1.8312,-1.753,-1.7456,-1.751,-1.7382,-1.7245,-1.7038,-1.6691,-1.6044,-1.518,-1.4235,-1.3259,-1.2378,-1.1545,-1.126,-1.1111,-1.1037,-1.0962,-1.0519,-0.9916,-1.0363,-1.0056,-0.794,-0.6945,-0.6335,-0.6335,-0.6261,-0.6278,-0.6264,-0.6271,-0.6217,-0.5858,-0.5764,-0.5218,-2.8761,-2.9048,-2.9494,-2.982,-3.009,-3.0241,-3.0367,-3.0491,-3.058,-3.0657,-3.0781,-3.0738,-3.0711,-3.0703,-3.0697,-3.0548,-3.0321,-3.0306,-3.0098,-2.9839,-2.9789,-2.9774,-2.9701,-2.9683,-2.9492,-2.9104,-2.8975,-2.8485,-2.7713,-2.7642,-2.7276,-2.664,-2.6589,-2.6243,-2.5577,-2.5368,-2.4981,-2.4173,-2.3837,-2.3508,-2.3068,-2.2509,-2.2217,-2.2123,-2.167,-2.114,-2.0597,-2.0105,-1.985,-1.9798,-1.9747,-1.95,-1.8857,-1.819,-1.7324,-1.6181,-1.5972,-1.6029,-1.6124,-1.6114,-1.6192,-1.6316,-1.6374,-1.6374,-1.6316,-1.6316,-1.6249,-1.6124,-1.6114,-1.6239,-1.6477,-1.6842,-1.7101,-1.7202,-1.7633,-1.7907,-1.7972,-1.8249,-1.8181,-1.8102,-1.8333,-1.826,-1.7716,-1.7569,-1.7382,-1.7245,-1.7038,-1.6769,-1.6412,-1.5833,-1.4887,-1.3875,-1.2983,-1.2304,-1.1545,-1.126,-1.1111,-1.0962,-1.0588,-0.9992,-0.969,-0.9311,-0.8475,-0.7735,-0.6932,-0.6393,-0.6355,-0.6278,-0.6308,-0.6318,-0.6329,-0.6198,-0.5894,-0.5253,-0.4867,-2.8628,-2.9214,-2.9607,-2.9902,-3.0109,-3.0248,-3.037,-3.0519,-3.0633,-3.0696,-3.0741,-3.076,-3.0745,-3.069,-3.069,-3.0546,-3.0325,-3.0253,-3.0066,-2.9806,-2.9774,-2.9719,-2.9701,-2.9701,-2.9434,-2.902,-2.8929,-2.846,-2.7683,-2.7491,-2.7019,-2.6315,-2.6158,-2.5746,-2.5105,-2.4816,-2.443,-2.3864,-2.3608,-2.3334,-2.2933,-2.2477,-2.2077,-2.167,-2.1188,-2.0646,-2.0105,-1.9901,-1.9747,-1.9656,-1.9319,-1.8939,-1.8578,-1.7699,-1.6821,-1.6019,-1.5914,-1.5914,-1.5961,-1.5961,-1.6019,-1.6087,-1.6087,-1.6087,-1.6087,-1.6087,-1.6029,-1.5961,-1.5961,-1.6019,-1.6077,-1.6296,-1.6343,-1.6457,-1.6888,-1.7213,-1.7345,-1.7742,-1.8236,-1.8451,-1.8617,-1.8405,-1.7784,-1.7451,-1.7314,-1.7235,-1.7038,-1.6691,-1.6193,-1.5321,-1.4307,-1.352,-1.2492,-1.1533,-1.1329,-1.1186,-1.1043,-1.0887,-1.0513,-0.969,-0.9236,-0.8856,-0.8169,-0.725,-0.6523,-0.6534,-0.6444,-0.6464,-0.6471,-0.6498,-0.6502,-0.6341,-0.6037,-0.5629,-0.5339,-2.8828,-2.9379,-2.9748,-2.9981,-3.0152,-3.0309,-3.0432,-3.0509,-3.0658,-3.0694,-3.0719,-3.0746,-3.0734,-3.0688,-3.0649,-3.0492,-3.0278,-3.0203,-3.0011,-2.9701,-2.9626,-2.9531,-2.9453,-2.9453,-2.9209,-2.8772,-2.8535,-2.8112,-2.7474,-2.723,-2.6708,-2.5944,-2.5819,-2.5357,-2.4657,-2.4307,-2.3933,-2.3537,-2.3157,-2.2844,-2.2601,-2.2123,-2.1575,-2.114,-2.0696,-2.0258,-1.9747,-1.9527,-1.9384,-1.9174,-1.8673,-1.8178,-1.7797,-1.709,-1.6379,-1.5836,-1.573,-1.5788,-1.5798,-1.5614,-1.5546,-1.5546,-1.5362,-1.5362,-1.5536,-1.5594,-1.5662,-1.5798,-1.5856,-1.5798,-1.573,-1.573,-1.5788,-1.5914,-1.6239,-1.6509,-1.6665,-1.7259,-1.7856,-1.8281,-1.8379,-1.8123,-1.7579,-1.7373,-1.7166,-1.7097,-1.6908,-1.656,-1.6132,-1.4895,-1.3658,-1.3091,-1.1996,-1.1329,-1.1111,-1.1111,-1.0738,-1.0513,-0.9986,-0.9306,-0.8655,-0.834,-0.7765,-0.6834,-0.6458,-0.6569,-0.6634,-0.6661,-0.6685,-0.6709,-0.6671,-0.6558,-0.6303,-0.6189,-0.5814,-2.9341,-2.9551,-2.9934,-3.0123,-3.0226,-3.04,-3.0482,-3.0505,-3.0648,-3.0721,-3.0714,-3.0697,-3.0717,-3.0665,-3.052,-3.0337,-3.0222,-3.0155,-2.9883,-2.9472,-2.9412,-2.923,-2.8956,-2.8956,-2.8753,-2.8376,-2.7851,-2.7382,-2.6989,-2.6708,-2.633,-2.5881,-2.5481,-2.4989,-2.4389,-2.3948,-2.3508,-2.3053,-2.2449,-2.2123,-2.2091,-2.1431,-2.0845,-2.0459,-2.0245,-1.9888,-1.9552,-1.8992,-1.8673,-1.8471,-1.7907,-1.7246,-1.6641,-1.6368,-1.6026,-1.5468,-1.5352,-1.5478,-1.5488,-1.501,-1.4756,-1.4746,-1.4382,-1.4332,-1.4737,-1.4923,-1.5108,-1.5488,-1.5672,-1.5604,-1.5478,-1.5468,-1.5536,-1.5788,-1.5846,-1.5938,-1.6277,-1.6579,-1.6977,-1.7628,-1.7755,-1.7569,-1.7304,-1.7166,-1.7107,-1.683,-1.6621,-1.6281,-1.6,-1.4617,-1.3317,-1.2519,-1.1706,-1.1192,-1.1111,-1.1037,-1.0513,-1.0062,-0.9382,-0.8632,-0.8009,-0.7565,-0.7242,-0.6451,-0.6586,-0.6698,-0.6803,-0.6824,-0.6803,-0.681,-0.678,-0.6716,-0.6528,-0.6251,-0.5956,-2.9457,-2.9551,-2.9984,-3.0171,-3.0226,-3.0413,-3.049,-3.0513,-3.0689,-3.0758,-3.0747,-3.0721,-3.0678,-3.061,-3.0453,-3.0314,-3.0122,-2.9893,-2.9661,-2.9394,-2.9169,-2.8997,-2.8906,-2.8777,-2.8467,-2.7966,-2.7317,-2.6808,-2.6521,-2.6279,-2.5885,-2.5253,-2.4887,-2.443,-2.3864,-2.348,-2.3112,-2.2737,-2.2263,-2.1935,-2.1746,-2.0894,-2.0396,-2.0194,-1.9463,-1.8886,-1.8697,-1.8578,-1.8298,-1.7765,-1.7146,-1.6482,-1.5921,-1.569,-1.541,-1.4883,-1.4765,-1.4519,-1.4231,-1.3992,-1.3863,-1.3914,-1.3743,-1.3743,-1.3974,-1.4332,-1.4647,-1.4951,-1.5245,-1.5478,-1.542,-1.542,-1.5468,-1.5536,-1.5546,-1.5664,-1.6145,-1.6665,-1.7091,-1.7436,-1.7442,-1.7235,-1.7038,-1.6968,-1.683,-1.6551,-1.6342,-1.6132,-1.5559,-1.4474,-1.3244,-1.2445,-1.1706,-1.1117,-1.1037,-1.0582,-0.9825,-0.9301,-0.8694,-0.8069,-0.7438,-0.7005,-0.6655,-0.659,-0.6642,-0.6827,-0.6932,-0.6966,-0.6946,-0.697,-0.6903,-0.676,-0.6536,-0.6301,-0.606,-2.9514,-2.9697,-3.0049,-3.0226,-3.0286,-3.0443,-3.0524,-3.06,-3.0735,-3.0793,-3.076,-3.0725,-3.0622,-3.0501,-3.0359,-3.0184,-2.9958,-2.9514,-2.9258,-2.9148,-2.8948,-2.8694,-2.841,-2.8085,-2.778,-2.7326,-2.6623,-2.6175,-2.6013,-2.5615,-2.5198,-2.4704,-2.4307,-2.3891,-2.3421,-2.3112,-2.2752,-2.2402,-2.1793,-2.141,-2.1104,-2.0295,-1.9786,-1.9695,-1.8845,-1.8267,-1.7941,-1.7754,-1.7468,-1.6978,-1.6425,-1.5874,-1.5371,-1.5313,-1.5001,-1.446,-1.4282,-1.4043,-1.3381,-1.307,-1.3009,-1.3017,-1.2781,-1.285,-1.3155,-1.3571,-1.3743,-1.4662,-1.4852,-1.5059,-1.5245,-1.5362,-1.541,-1.542,-1.541,-1.5624,-1.6189,-1.6867,-1.7283,-1.7375,-1.7304,-1.7097,-1.6968,-1.6691,-1.6621,-1.6342,-1.6053,-1.5921,-1.5267,-1.4258,-1.3098,-1.207,-1.126,-1.0962,-1.0962,-1.0201,-0.914,-0.8609,-0.8003,-0.741,-0.6792,-0.6661,-0.644,-0.6561,-0.6688,-0.6887,-0.6974,-0.7082,-0.7082,-0.7048,-0.7051,-0.6773,-0.6495,-0.652,-0.6002,-2.957,-2.9888,-3.0113,-3.0254,-3.0398,-3.0491,-3.0579,-3.0672,-3.0741,-3.0745,-3.0707,-3.0659,-3.0577,-3.0367,-3.0171,-2.9988,-2.9731,-2.9138,-2.8824,-2.8748,-2.8572,-2.8183,-2.7631,-2.7098,-2.6774,-2.6505,-2.5872,-2.5465,-2.5351,-2.4887,-2.4436,-2.4245,-2.3879,-2.3478,-2.3068,-2.2737,-2.237,-2.1983,-2.1104,-2.0709,-2.0646,-1.9643,-1.9093,-1.9223,-1.8429,-1.7754,-1.7313,-1.6698,-1.6301,-1.6197,-1.569,-1.5362,-1.5215,-1.5215,-1.4834,-1.4034,-1.3914,-1.3494,-1.294,-1.2336,-1.2081,-1.2158,-1.1732,-1.1567,-1.246,-1.2482,-1.2834,-1.4132,-1.4258,-1.4401,-1.4893,-1.5128,-1.5254,-1.54,-1.5537,-1.5846,-1.6417,-1.714,-1.7396,-1.7207,-1.7166,-1.7107,-1.6839,-1.6551,-1.6342,-1.6061,-1.5559,-1.5338,-1.4974,-1.3818,-1.2439,-1.1558,-1.0812,-1.0351,-1.0276,-0.9442,-0.8304,-0.7238,-0.688,-0.667,-0.6425,-0.6376,-0.6446,-0.657,-0.6637,-0.6851,-0.7048,-0.7051,-0.7054,-0.6966,-0.6877,-0.67,-0.6532,-0.6459,-0.6019,-2.9456,-2.9716,-3.0003,-3.0222,-3.04,-3.0583,-3.0647,-3.0648,-3.0701,-3.0726,-3.0653,-3.0468,-3.0392,-3.0302,-3.0003,-2.9834,-2.957,-2.9008,-2.8634,-2.846,-2.7791,-2.7417,-2.7031,-2.6471,-2.6033,-2.5762,-2.5237,-2.4879,-2.4599,-2.4287,-2.4009,-2.3782,-2.3421,-2.3113,-2.2754,-2.217,-2.1732,-2.1382,-2.0584,-2.0055,-1.9798,-1.9291,-1.9052,-1.8946,-1.7984,-1.7324,-1.6944,-1.5931,-1.5362,-1.5488,-1.5254,-1.5079,-1.5029,-1.498,-1.4419,-1.3433,-1.3183,-1.2757,-1.1856,-1.1483,-1.1365,-1.1421,-1.1247,-1.1254,-1.1582,-1.1856,-1.1989,-1.2334,-1.2631,-1.3606,-1.4154,-1.4392,-1.4699,-1.5457,-1.5798,-1.6138,-1.6645,-1.7043,-1.7235,-1.7038,-1.6968,-1.683,-1.6551,-1.6342,-1.6053,-1.5559,-1.4991,-1.441,-1.4042,-1.331,-1.2003,-1.1111,-1.0363,-0.9825,-0.921,-0.8376,-0.7391,-0.6015,-0.5677,-0.5921,-0.5952,-0.6263,-0.639,-0.6593,-0.6407,-0.6517,-0.6697,-0.6789,-0.6881,-0.6877,-0.67,-0.6435,-0.6358,-0.6284,-0.6028,-2.9589,-2.9886,-3.0125,-3.0309,-3.0501,-3.0639,-3.0693,-3.0679,-3.0675,-3.0633,-3.0528,-3.0385,-3.0215,-3.0023,-2.9727,-2.9495,-2.9319,-2.8688,-2.8244,-2.783,-2.6963,-2.6573,-2.6386,-2.5852,-2.5313,-2.4989,-2.4486,-2.409,-2.3782,-2.3523,-2.3319,-2.3127,-2.2709,-2.2417,-2.233,-2.1568,-2.0792,-2.018,-1.9608,-1.9254,-1.8768,-1.8363,-1.8093,-1.7929,-1.709,-1.6415,-1.5728,-1.4874,-1.4666,-1.4911,-1.4784,-1.4538,-1.4419,-1.4181,-1.3563,-1.2458,-1.2336,-1.1919,-1.1185,-1.087,-1.0933,-1.0933,-1.0933,-1.094,-1.1066,-1.1296,-1.1183,-1.1556,-1.2128,-1.2749,-1.3364,-1.3786,-1.4553,-1.548,-1.5733,-1.5975,-1.6542,-1.6973,-1.706,-1.6968,-1.6908,-1.676,-1.6342,-1.6193,-1.5771,-1.5275,-1.4561,-1.3833,-1.3171,-1.2372,-1.1632,-1.0743,-0.9911,-0.9296,-0.8533,-0.7698,-0.6853,-0.5479,-0.522,-0.5367,-0.5584,-0.5984,-0.6098,-0.6257,-0.6169,-0.6169,-0.6346,-0.652,-0.6609,-0.652,-0.6343,-0.626,-0.6186,-0.5836,-0.5668,-2.9799,-3.0215,-3.0348,-3.0491,-3.0598,-3.0686,-3.0743,-3.076,-3.0671,-3.0522,-3.0318,-3.0217,-2.9946,-2.9661,-2.9303,-2.9052,-2.8842,-2.8298,-2.7637,-2.6977,-2.611,-2.5615,-2.5524,-2.5082,-2.4567,-2.4225,-2.3608,-2.3231,-2.2934,-2.2646,-2.2449,-2.2156,-2.167,-2.158,-2.1403,-2.0751,-1.9736,-1.8964,-1.8614,-1.8155,-1.7599,-1.7113,-1.6845,-1.6476,-1.5938,-1.508,-1.4255,-1.3734,-1.3872,-1.4666,-1.4163,-1.3795,-1.3563,-1.3009,-1.2458,-1.1787,-1.16,-1.1358,-1.0744,-1.0624,-1.0688,-1.0744,-1.0681,-1.0681,-1.0814,-1.0807,-1.0996,-1.1435,-1.167,-1.2027,-1.265,-1.3398,-1.4391,-1.5205,-1.5098,-1.5393,-1.5999,-1.6729,-1.6968,-1.6857,-1.6857,-1.663,-1.6272,-1.5912,-1.5551,-1.4768,-1.4122,-1.3324,-1.2592,-1.1855,-1.1192,-1.0374,-0.9609,-0.877,-0.7855,-0.6938,-0.6093,-0.5185,-0.5297,-0.5405,-0.5455,-0.5703,-0.575,-0.5733,-0.5908,-0.5902,-0.5894,-0.6071,-0.6251,-0.6257,-0.6171,-0.618,-0.6011,-0.5389,-0.4947,-2.9712,-3.0139,-3.0285,-3.0447,-3.0661,-3.0728,-3.0741,-3.0699,-3.0484,-3.0345,-3.0175,-2.975,-2.9476,-2.9342,-2.8833,-2.8554,-2.841,-2.789,-2.7203,-2.5917,-2.5141,-2.4511,-2.4266,-2.409,-2.3879,-2.3406,-2.3054,-2.2512,-2.2077,-2.1779,-2.1541,-2.1042,-2.0508,-2.0361,-2.0592,-1.93,-1.8536,-1.8367,-1.7744,-1.7002,-1.6342,-1.6058,-1.5716,-1.5177,-1.4563,-1.3879,-1.3183,-1.2879,-1.2818,-1.2879,-1.2826,-1.2696,-1.2696,-1.2581,-1.2089,-1.1608,-1.1421,-1.1178,-1.0751,-1.0618,-1.0624,-1.0618,-1.0618,-1.0624,-1.0618,-1.0624,-1.0688,-1.0877,-1.087,-1.1233,-1.1864,-1.3202,-1.3984,-1.4465,-1.4672,-1.4763,-1.5088,-1.5685,-1.6079,-1.6307,-1.6334,-1.6193,-1.5551,-1.548,-1.4982,-1.4266,-1.3542,-1.2893,-1.2157,-1.1416,-1.0663,-0.9916,-0.9074,-0.8232,-0.7242,-0.6402,-0.5786,-0.5193,-0.5289,-0.5349,-0.5398,-0.5545,-0.5687,-0.5733,-0.5733,-0.5727,-0.5719,-0.5722,-0.5997,-0.5997,-0.6,-0.5922,-0.566,-0.4945,-0.3774,-2.9975,-3.0309,-3.0428,-3.0555,-3.069,-3.0741,-3.0657,-3.0522,-3.0361,-3.0117,-2.9813,-2.9439,-2.9159,-2.8833,-2.827,-2.7939,-2.7572,-2.6751,-2.5848,-2.4909,-2.422,-2.352,-2.301,-2.2921,-2.2741,-2.2406,-2.2282,-2.1779,-2.1251,-2.0832,-2.0508,-2.0042,-1.9181,-1.9023,-1.9293,-1.7998,-1.6804,-1.6059,-1.6069,-1.5573,-1.4681,-1.4446,-1.42,-1.3775,-1.3262,-1.274,-1.2158,-1.1896,-1.1586,-1.1344,-1.1344,-1.1524,-1.164,-1.1461,-1.1156,-1.0919,-1.0926,-1.08,-1.0555,-1.0555,-1.0618,-1.0555,-1.0555,-1.0618,-1.0618,-1.0618,-1.0618,-1.0561,-1.0561,-1.0681,-1.124,-1.2007,-1.292,-1.3529,-1.3674,-1.3738,-1.4014,-1.453,-1.5292,-1.5677,-1.5769,-1.5568,-1.5267,-1.5054,-1.4697,-1.4049,-1.3397,-1.2673,-1.1787,-1.1037,-1.0126,-0.9296,-0.8533,-0.7617,-0.663,-0.5941,-0.5482,-0.5134,-0.5231,-0.526,-0.5325,-0.5518,-0.5725,-0.5733,-0.5733,-0.5733,-0.573,-0.5733,-0.5735,-0.5738,-0.5833,-0.5754,-0.5492,-0.5041,-0.3326,-3.0321,-3.0548,-3.0654,-3.0697,-3.0684,-3.0641,-3.0497,-3.0336,-3.0237,-2.9846,-2.9344,-2.9221,-2.8764,-2.8218,-2.7642,-2.7261,-2.6522,-2.5362,-2.4393,-2.4081,-2.326,-2.2637,-2.2086,-2.1758,-2.1349,-2.1253,-2.1135,-2.072,-2.0206,-1.9684,-1.9181,-1.8843,-1.7761,-1.7601,-1.7746,-1.6637,-1.5109,-1.3632,-1.406,-1.3921,-1.2915,-1.2626,-1.2496,-1.2128,-1.195,-1.1648,-1.1233,-1.0975,-1.0654,-1.0047,-0.9983,-1.0225,-1.0338,-1.0218,-0.9849,-0.9849,-0.9907,-0.9773,-0.9773,-0.9907,-1.0034,-1.0231,-1.0161,-1.0104,-1.0104,-1.0104,-1.0168,-1.0231,-1.0238,-1.0384,-1.0848,-1.1546,-1.2049,-1.2562,-1.2522,-1.2606,-1.2983,-1.347,-1.3912,-1.4768,-1.4816,-1.4697,-1.4689,-1.4553,-1.4194,-1.376,-1.3112,-1.2378,-1.1484,-1.0663,-0.9679,-0.8841,-0.8003,-0.7007,-0.6015,-0.5473,-0.4935,-0.4972,-0.5042,-0.5031,-0.5205,-0.5526,-0.5714,-0.573,-0.5733,-0.5733,-0.5733,-0.5733,-0.5738,-0.5654,-0.5297,-0.4942,-0.4947,-0.5138,0.0,-3.0385,-3.0678,-3.0693,-3.0701,-3.0677,-3.0467,-3.0345,-3.0248,-2.9923,-2.955,-2.9084,-2.8675,-2.8085,-2.7461,-2.7083,-2.6404,-2.5335,-2.4127,-2.3417,-2.3171,-2.2377,-2.1561,-2.1197,-2.0581,-1.9965,-1.9297,-1.9245,-1.9193,-1.8785,-1.8143,-1.7698,-1.7036,-1.6069,-1.5914,-1.5898,-1.4762,-1.3262,-1.2253,-1.2538,-1.2373,-1.1764,-1.1392,-1.1087,-1.0647,-1.0501,-1.0305,-1.0262,-1.0231,-1.0187,-0.9862,-0.9874,-0.9518,-0.9145,-0.9012,-0.9041,-0.9058,-0.8742,-0.8672,-0.8608,-0.8544,-0.8479,-0.8415,-0.8603,-0.8544,-0.8672,-0.9,-0.932,-0.9408,-0.9765,-1.0149,-1.0509,-1.1223,-1.1792,-1.2102,-1.2285,-1.2517,-1.2627,-1.2331,-1.207,-1.2921,-1.3331,-1.3818,-1.3897,-1.3825,-1.3317,-1.2879,-1.2291,-1.1558,-1.0738,-0.9986,-0.9231,-0.8389,-0.7625,-0.6475,-0.5323,-0.4932,-0.4543,-0.4643,-0.4696,-0.4676,-0.4884,-0.5462,-0.5689,-0.545,-0.5552,-0.5733,-0.5733,-0.5735,-0.5741,-0.566,-0.4938,-0.4039,-0.3685,0.0,0.0,-3.0536,-3.0635,-3.0683,-3.0618,-3.0463,-3.0325,-3.0113,-2.9889,-2.955,-2.8978,-2.8304,-2.766,-2.6933,-2.6202,-2.5522,-2.477,-2.3834,-2.2817,-2.226,-2.1979,-2.1051,-2.0383,-2.0105,-1.9414,-1.8679,-1.7993,-1.7599,-1.7478,-1.7501,-1.6957,-1.628,-1.5573,-1.4709,-1.4437,-1.4261,-1.3285,-1.182,-1.1152,-1.121,-1.1274,-1.0661,-1.0465,-1.0098,-0.9615,-0.9259,-0.9074,-0.8788,-0.8871,-0.8769,-0.8494,-0.8634,-0.8326,-0.7918,-0.7691,-0.7787,-0.8001,-0.7897,-0.7832,-0.7832,-0.7897,-0.8027,-0.8027,-0.7962,-0.8027,-0.8027,-0.835,-0.8479,-0.8927,-0.9585,-1.008,-1.0202,-1.093,-1.1185,-1.1293,-1.1455,-1.1694,-1.1676,-1.0986,-1.1061,-1.136,-1.1855,-1.2579,-1.3178,-1.2952,-1.2365,-1.1922,-1.1484,-1.0738,-0.9992,-0.9306,-0.8623,-0.7625,-0.678,-0.5777,-0.4776,-0.4465,-0.3992,-0.409,-0.4108,-0.4079,-0.4245,-0.4671,-0.4913,-0.4825,-0.5099,-0.5285,-0.5735,-0.5646,-0.5654,-0.5662,-0.5216,-0.4408,-0.2695,0.0,0.0,-3.0484,-3.0624,-3.0606,-3.0443,-3.019,-3.0013,-2.9689,-2.9283,-2.8916,-2.8185,-2.7225,-2.6548,-2.5808,-2.485,-2.3952,-2.3051,-2.2301,-2.1444,-2.1024,-2.0644,-1.9736,-1.9097,-1.8768,-1.8101,-1.7379,-1.6733,-1.5928,-1.5708,-1.6224,-1.5728,-1.5021,-1.4305,-1.3674,-1.3111,-1.2645,-1.2058,-1.076,-0.997,-0.9951,-1.0148,-0.9652,-0.946,-0.9227,-0.8723,-0.8351,-0.8005,-0.7619,-0.7709,-0.7566,-0.7255,-0.714,-0.7034,-0.674,-0.6408,-0.645,-0.6894,-0.7116,-0.7186,-0.7246,-0.7251,-0.7181,-0.7186,-0.7381,-0.7442,-0.7377,-0.7312,-0.7642,-0.844,-0.9574,-1.0042,-0.9943,-1.0343,-1.0635,-1.0694,-1.0621,-1.0594,-1.0605,-1.038,-1.0223,-1.0524,-1.0812,-1.126,-1.1996,-1.1848,-1.1254,-1.1254,-1.0812,-1.0051,-0.9306,-0.877,-0.8008,-0.6784,-0.578,-0.4924,-0.4229,-0.3999,-0.3526,-0.3217,-0.3142,-0.3082,-0.3379,-0.3706,-0.3831,-0.3875,-0.4115,-0.4387,-0.5018,-0.5379,-0.5114,-0.5032,-0.5405,-0.441,-0.2065,-0.0629,0.0,-2.9937,-3.0661,-3.0366,-3.0075,-2.9748,-2.9326,-2.878,-2.825,-2.7924,-2.71,-2.605,-2.5688,-2.4932,-2.3736,-2.2507,-2.1753,-2.1096,-2.0361,-1.9736,-1.931,-1.8507,-1.797,-1.7915,-1.7002,-1.6032,-1.5361,-1.4483,-1.4777,-1.5012,-1.4314,-1.3734,-1.3191,-1.2397,-1.1777,-1.2032,-1.0954,-0.9291,-0.8148,-0.8447,-0.8544,-0.7952,-0.7882,-0.7787,-0.7525,-0.7427,-0.7267,-0.6949,-0.6883,-0.6749,-0.6584,-0.5705,-0.5534,-0.5794,-0.6266,-0.5898,-0.5675,-0.5554,-0.569,-0.5818,-0.6013,-0.6013,-0.6079,-0.5951,-0.5752,-0.5947,-0.6083,-0.6474,-0.7558,-0.8972,-0.974,-0.9466,-1.0116,-1.0458,-1.0512,-1.0318,-1.0056,-0.9911,-0.9846,-0.969,-0.969,-0.9986,-1.0288,-1.0807,-1.0513,-1.0218,-1.0288,-1.0062,-0.9301,-0.8623,-0.8093,-0.708,-0.5854,-0.4924,-0.4068,-0.3759,-0.3528,-0.3137,-0.2665,-0.243,-0.2273,-0.2467,-0.2762,-0.267,-0.2753,-0.2987,-0.331,-0.3671,-0.4032,-0.4125,-0.3948,-0.3681,-0.2512,-0.0807,0.0179,0.0898,-2.883,-2.9852,-2.9908,-2.9758,-2.94,-2.8732,-2.8175,-2.7614,-2.6899,-2.6033,-2.5067,-2.4255,-2.3139,-2.1727,-2.0743,-2.0028,-1.9405,-1.8822,-1.824,-1.7664,-1.6959,-1.6352,-1.5867,-1.5139,-1.4355,-1.3751,-1.3218,-1.2976,-1.3218,-1.2976,-1.2451,-1.195,-1.1461,-1.101,-1.1164,-0.9874,-0.8608,-0.7812,-0.7687,-0.7643,-0.7501,-0.7541,-0.7462,-0.6819,-0.6908,-0.6506,-0.596,-0.5624,-0.5443,-0.5225,-0.4533,-0.4606,-0.503,-0.5255,-0.5152,-0.4935,-0.4976,-0.5219,-0.5425,-0.5362,-0.5362,-0.5362,-0.5359,-0.5425,-0.5292,-0.5362,-0.5695,-0.6619,-0.7007,-0.7664,-0.8406,-0.9194,-0.9569,-0.9653,-0.9755,-0.969,-0.9458,-0.9231,-0.916,-0.9084,-0.916,-0.9458,-0.976,-0.9609,-0.9539,-0.9614,-0.9301,-0.8613,-0.7944,-0.75,-0.6251,-0.4693,-0.3912,-0.3209,-0.321,-0.3136,-0.2824,-0.2353,-0.196,-0.1806,-0.1738,-0.1772,-0.1736,-0.1791,-0.1934,-0.2225,-0.2413,-0.2508,-0.2686,-0.2239,-0.1702,-0.0628,0.0269,0.0269,0.0897,-2.739,-2.8479,-2.9211,-2.9165,-2.8576,-2.7878,-2.7103,-2.6402,-2.5579,-2.4703,-2.3716,-2.248,-2.0898,-1.9509,-1.8859,-1.8363,-1.7601,-1.709,-1.6511,-1.582,-1.5148,-1.4573,-1.4073,-1.3374,-1.2655,-1.2097,-1.1348,-1.1107,-1.0982,-1.0801,-1.0557,-1.0627,-1.0123,-1.0123,-0.9719,-0.891,-0.7827,-0.6776,-0.6465,-0.6322,-0.6354,-0.6818,-0.6375,-0.5932,-0.5644,-0.5408,-0.4429,-0.4601,-0.4427,-0.3844,-0.3564,-0.369,-0.4403,-0.4766,-0.4761,-0.4702,-0.4782,-0.496,-0.5096,-0.5163,-0.5229,-0.5229,-0.5226,-0.516,-0.509,-0.5163,-0.5376,-0.5839,-0.564,-0.625,-0.7163,-0.8219,-0.8604,-0.8836,-0.8927,-0.9013,-0.9094,-0.8932,-0.8856,-0.8856,-0.8856,-0.8703,-0.8856,-0.878,-0.8784,-0.8937,-0.8551,-0.7774,-0.7096,-0.6419,-0.5326,-0.3841,-0.329,-0.2741,-0.2741,-0.2743,-0.2431,-0.1961,-0.149,-0.1099,-0.0789,-0.0879,-0.1062,-0.1099,-0.0965,-0.0801,-0.0896,-0.1075,-0.1164,-0.0627,-0.009,0.0448,0.0987,0.0897,0.0897,-2.5555,-2.645,-2.815,-2.8048,-2.6835,-2.648,-2.5366,-2.4141,-2.3709,-2.2952,-2.1801,-2.0377,-1.8558,-1.7179,-1.6983,-1.6669,-1.5898,-1.5187,-1.4662,-1.4073,-1.3434,-1.2882,-1.2326,-1.165,-1.092,-1.0481,-0.973,-0.9035,-0.8592,-0.8603,-0.8918,-0.9488,-0.893,-0.8939,-0.8685,-0.7977,-0.6677,-0.5596,-0.4877,-0.4429,-0.4628,-0.4885,-0.4776,-0.3595,-0.3131,-0.2785,-0.2475,-0.3389,-0.363,-0.2766,-0.29,-0.32,-0.4129,-0.4528,-0.4638,-0.4584,-0.4665,-0.4767,-0.4834,-0.4897,-0.4894,-0.4827,-0.4909,-0.4925,-0.4864,-0.4837,-0.499,-0.5124,-0.5084,-0.5536,-0.6528,-0.7379,-0.7698,-0.7855,-0.7931,-0.8241,-0.8399,-0.878,-0.8699,-0.8703,-0.8627,-0.8475,-0.8169,-0.8093,-0.8093,-0.8169,-0.7161,-0.6384,-0.5458,-0.4774,-0.4075,-0.3137,-0.2744,-0.243,-0.243,-0.2118,-0.1569,-0.1099,-0.0628,-0.0,0.0472,0.016,-0.0242,-0.0168,0.0,0.0354,0.0538,0.0,-0.0,0.0807,0.1346,0.1256,0.1256,0.1166,0.1166,-2.3083,-2.3424,-2.4441,-2.5439,-2.626,-2.5082,-2.3933,-2.2878,-2.213,-2.089,-1.9263,-1.7867,-1.6807,-1.6001,-1.5271,-1.4838,-1.4073,-1.3656,-1.2951,-1.2289,-1.1611,-1.11,-1.0474,-0.9787,-0.9035,-0.8661,-0.8086,-0.8042,-0.8138,-0.7143,-0.7499,-0.7892,-0.7792,-0.8038,-0.7771,-0.6737,-0.5356,-0.4394,-0.368,-0.3361,-0.3481,-0.4516,-0.4766,-0.3918,-0.1515,-0.1163,-0.0975,-0.1374,-0.1389,-0.1659,-0.254,-0.3353,-0.3896,-0.4281,-0.4361,-0.4298,-0.437,-0.437,-0.4498,-0.4631,-0.4761,-0.4785,-0.4833,-0.4888,-0.4736,-0.4757,-0.4818,-0.4887,-0.496,-0.5389,-0.555,-0.624,-0.663,-0.678,-0.7011,-0.7318,-0.7625,-0.7927,-0.8008,-0.7855,-0.8089,-0.8169,-0.7787,-0.7403,-0.7403,-0.7326,-0.616,-0.5076,-0.4224,-0.36,-0.3057,-0.2588,-0.2195,-0.1803,-0.1803,-0.1333,-0.0785,-0.0314,0.0236,0.055,0.0864,0.1023,0.0721,0.0835,0.0866,0.0972,0.0894,0.0717,0.0896,0.1256,0.1436,0.1346,0.1436,0.1436,0.1524,-2.0918,-2.1053,-2.1133,-2.2437,-2.4264,-2.3215,-2.2152,-2.1254,-2.0351,-1.8586,-1.6424,-1.5519,-1.4724,-1.4163,-1.3621,-1.2951,-1.2219,-1.1658,-1.0989,-1.0368,-0.973,-0.9296,-0.8737,-0.8236,-0.7792,-0.7349,-0.6951,-0.6964,-0.7038,-0.6102,-0.5727,-0.5967,-0.685,-0.6933,-0.6416,-0.4773,-0.3526,-0.316,-0.2678,-0.2505,-0.2464,-0.2986,-0.3447,-0.2775,-0.0988,0.0,0.0,0.0,0.0,0.0,-0.1659,-0.2956,-0.3435,-0.3636,-0.3632,-0.3632,-0.3632,-0.3632,-0.3763,-0.4298,-0.4648,-0.4704,-0.476,-0.4755,-0.4705,-0.4749,-0.483,-0.4845,-0.4936,-0.5018,-0.494,-0.5398,-0.5709,-0.5783,-0.5928,-0.6234,-0.6542,-0.6846,-0.6927,-0.6927,-0.7084,-0.7161,-0.6623,-0.6083,-0.5851,-0.5851,-0.5229,-0.43,-0.36,-0.2978,-0.2586,-0.2117,-0.1645,-0.1333,-0.1019,-0.0628,-0.0236,-0.0,0.0393,0.055,0.0786,0.11,0.1279,0.1084,0.1121,0.1325,0.125,0.1075,0.1166,0.1346,0.1436,0.1436,0.1436,0.1436,0.1792,-1.9118,-1.9628,-1.8773,-1.9265,-2.0576,-2.0724,-1.9962,-1.8806,-1.7878,-1.6095,-1.3844,-1.3506,-1.2549,-1.133,-1.1214,-1.092,-1.0362,-0.9412,-0.8784,-0.8661,-0.8151,-0.7792,-0.7545,-0.7161,-0.6292,-0.6809,-0.6121,-0.5435,-0.5708,-0.4737,-0.3823,-0.397,-0.5213,-0.5397,-0.5093,-0.1956,-0.1143,-0.2234,-0.1549,-0.1293,-0.1168,0.0,0.0,-0.0684,-0.019,0.0,0.0,0.0,0.0,0.0,-0.0268,-0.121,-0.1949,-0.2082,-0.2083,-0.2085,-0.215,-0.2218,-0.2223,-0.3498,-0.4102,-0.4391,-0.4523,-0.4498,-0.4648,-0.4705,-0.4683,-0.4657,-0.4724,-0.4851,-0.4781,-0.4701,-0.4779,-0.4932,-0.5079,-0.5231,-0.5538,-0.5767,-0.5922,-0.6002,-0.5841,-0.5607,-0.5146,-0.4686,-0.43,-0.4066,-0.3988,-0.3521,-0.2899,-0.243,-0.2117,-0.1646,-0.1097,-0.0706,-0.0392,0.0,0.0314,0.0471,0.0629,0.0786,0.0943,0.1179,0.1289,0.117,0.1284,0.1401,0.142,0.1346,0.1436,0.1436,0.1436,0.1436,0.1436,0.1614,0.206,-1.5269,-1.5713,-1.4879,-1.5004,-1.5974,-1.8395,-1.8425,-1.6671,-1.4743,-1.3109,-1.2169,-1.1552,-1.0739,-0.9838,-0.9346,-0.9093,-0.8586,-0.8016,-0.7507,-0.7447,-0.6872,-0.6824,-0.6502,-0.5491,-0.4356,-0.4156,-0.3754,-0.432,-0.5459,-0.4132,-0.4327,-0.4775,-0.3512,-0.3445,-0.2137,-0.0319,-0.05,-0.0758,-0.0501,-0.037,-0.031,0.0,0.0,0.0127,0.0392,0.0596,0.0663,0.047,0.0337,0.0337,0.0337,0.0,-0.0471,-0.0538,-0.0471,-0.0607,-0.0741,-0.0883,-0.0897,-0.1609,-0.2983,-0.3667,-0.4147,-0.4118,-0.4031,-0.4649,-0.4543,-0.4327,-0.4281,-0.4233,-0.4155,-0.4075,-0.4153,-0.4231,-0.4304,-0.4302,-0.4535,-0.4841,-0.4996,-0.5074,-0.4996,-0.4683,-0.4297,-0.383,-0.3366,-0.3132,-0.3052,-0.2976,-0.2586,-0.1959,-0.1567,-0.1097,-0.0628,-0.0157,0.0314,0.055,0.0786,0.0864,0.1022,0.11,0.1258,0.1336,0.1292,0.1253,0.1362,0.1386,0.1414,0.1436,0.1436,0.1436,0.1436,0.1436,0.1436,0.1883,0.2686,-1.2814,-1.2905,-1.2408,-1.2404,-1.3135,-1.5568,-1.5693,-1.4051,-1.1905,-1.0774,-1.0286,-0.9418,-0.8715,-0.8323,-0.7941,-0.7832,-0.7386,-0.6671,-0.6486,-0.642,-0.5899,-0.5914,-0.5376,-0.4295,-0.3288,-0.2342,-0.1855,-0.2424,-0.3109,-0.3394,-0.2521,-0.1432,-0.1622,-0.0505,0.0444,0.0382,0.0629,0.1013,0.1753,0.1383,0.1077,0.0,0.0,0.046,0.0532,0.0874,0.0944,0.0877,0.0674,0.0674,0.0674,0.0674,0.0674,0.0675,0.0677,0.0545,0.0277,-0.007,-0.0359,-0.0655,-0.1991,-0.2769,-0.3396,-0.3489,-0.3512,-0.4183,-0.4208,-0.399,-0.3684,-0.3684,-0.3763,-0.3684,-0.3606,-0.3684,-0.3604,-0.3604,-0.3761,-0.399,-0.3908,-0.4066,-0.4066,-0.3754,-0.3521,-0.3054,-0.2665,-0.243,-0.2195,-0.2117,-0.2038,-0.1567,-0.1019,-0.0549,-0.0157,0.0314,0.0707,0.0943,0.1179,0.1258,0.1336,0.1336,0.1336,0.1338,0.1296,0.1333,0.1446,0.1477,0.1419,0.1436,0.1436,0.1436,0.1436,0.1436,0.1436,0.2151,0.3044,-1.1662,-1.1288,-1.1224,-1.1317,-1.1791,-1.2271,-1.192,-1.0906,-0.9813,-0.9,-0.8398,-0.7502,-0.712,-0.6859,-0.6535,-0.6478,-0.6218,-0.5432,-0.5302,-0.5243,-0.4573,-0.4785,-0.4995,-0.452,-0.2546,-0.0864,-0.0197,-0.0516,-0.0192,-0.0375,0.0983,0.2762,0.2686,0.268,0.2035,0.174,0.1919,0.2752,0.3409,0.2966,0.253,0.2504,0.1997,0.1469,0.1072,0.1076,0.1077,0.1012,0.1011,0.1011,0.1078,0.1078,0.1079,0.108,0.1167,0.1051,0.0718,0.022,-0.0149,-0.045,-0.0686,-0.1307,-0.1985,-0.2384,-0.2868,-0.3357,-0.3521,-0.3448,-0.3212,-0.345,-0.3528,-0.3374,-0.3217,-0.3139,-0.2981,-0.2981,-0.3059,-0.3057,-0.2821,-0.2821,-0.2899,-0.2743,-0.2585,-0.2273,-0.1724,-0.1488,-0.1175,-0.094,-0.094,-0.1096,-0.047,0.0078,0.0471,0.0706,0.1021,0.1335,0.1258,0.1336,0.1415,0.1493,0.1415,0.1505,0.1625,0.1666,0.1533,0.1567,0.1868,0.1794,0.1525,0.1525,0.1525,0.1704,0.1793,0.2598,0.3491,-0.8148,-0.823,-0.7651,-0.7746,-0.827,-0.8233,-0.8606,-0.9041,-0.7847,-0.7098,-0.6985,-0.6679,-0.6086,-0.583,-0.5981,-0.51,-0.3956,-0.3015,-0.3017,-0.2954,-0.2958,-0.3639,-0.3502,-0.2684,-0.1065,-0.0197,0.0387,0.0693,0.0854,0.1316,0.2032,0.2975,0.4256,0.4116,0.3934,0.3549,0.3477,0.3544,0.423,0.4101,0.3906,0.3877,0.3159,0.2418,0.1812,0.1612,0.1212,0.1145,0.1077,0.1076,0.1076,0.1076,0.1077,0.1097,0.1122,0.1153,0.1032,0.0902,0.0758,0.0692,0.0545,0.0235,-0.0233,-0.0779,-0.1331,-0.2116,-0.2663,-0.2507,-0.2508,-0.2588,-0.2666,-0.2589,-0.2511,-0.2433,-0.2353,-0.2431,-0.251,-0.251,-0.2352,-0.2117,-0.2195,-0.1881,-0.1803,-0.1254,-0.0783,-0.047,-0.0235,0.0078,0.0157,0.0,0.0157,0.0784,0.1098,0.1412,0.1413,0.157,0.1414,0.1336,0.1577,0.1746,0.1843,0.1942,0.2047,0.218,0.225,0.2378,0.25,0.2331,0.1973,0.1795,0.1795,0.1973,0.233,0.3133,0.3935,-0.6135,-0.6058,-0.5412,-0.5109,-0.5101,-0.4932,-0.5301,-0.5672,-0.545,-0.5266,-0.5067,-0.461,-0.4422,-0.4225,-0.4095,-0.3424,-0.2284,-0.161,-0.1275,-0.0873,-0.1141,-0.1533,-0.1331,-0.0528,0.0519,0.0958,0.1186,0.146,0.1777,0.2777,0.3613,0.3816,0.4659,0.4717,0.4659,0.4455,0.4281,0.422,0.4364,0.4579,0.4576,0.4439,0.3763,0.3025,0.2484,0.1949,0.1279,0.1211,0.1144,0.1143,0.1076,0.1083,0.1098,0.1132,0.1159,0.1189,0.1213,0.1227,0.1158,0.1168,0.1255,0.1179,0.0943,0.055,-0.0078,-0.0784,-0.1176,-0.1333,-0.1412,-0.1569,-0.1648,-0.1727,-0.1727,-0.1727,-0.1803,-0.1881,-0.2037,-0.2117,-0.1959,-0.1724,-0.1488,-0.1175,-0.0783,-0.0313,0.0157,0.0548,0.0783,0.1096,0.1175,0.1096,0.1254,0.1646,0.1882,0.2038,0.2041,0.189,0.1899,0.1829,0.2079,0.2175,0.2283,0.2481,0.2683,0.2837,0.3009,0.3037,0.2956,0.2689,0.2422,0.2332,0.2332,0.2777,0.3132,0.3755,0.4467,-0.5004,-0.446,-0.4044,-0.3244,-0.2398,-0.2406,-0.214,-0.1609,-0.2806,-0.3274,-0.2941,-0.1941,-0.1944,-0.2348,-0.2011,-0.1678,-0.1008,-0.0538,0.0067,0.1009,0.0601,0.0264,0.0586,0.1413,0.1893,0.2208,0.2464,0.2617,0.2899,0.3644,0.4384,0.4964,0.499,0.5045,0.4926,0.4948,0.4827,0.4894,0.4834,0.484,0.4364,0.3959,0.3491,0.2552,0.2283,0.208,0.1545,0.1344,0.1279,0.128,0.1219,0.1301,0.1139,0.1172,0.1199,0.1219,0.1239,0.1246,0.1327,0.1334,0.1335,0.1336,0.1336,0.11,0.0629,0.0079,-0.0392,-0.0628,-0.0785,-0.0942,-0.1099,-0.0941,-0.0941,-0.0862,-0.0862,-0.0861,-0.0783,-0.094,-0.1018,-0.0783,-0.0627,-0.0313,0.0235,0.0783,0.1253,0.1567,0.1958,0.2194,0.2194,0.2116,0.2199,0.2356,0.2433,0.2514,0.2441,0.2373,0.2398,0.2495,0.2595,0.272,0.2763,0.3054,0.3262,0.3418,0.357,0.3396,0.3224,0.3047,0.2959,0.2868,0.3047,0.358,0.4024,0.4643,0.5265,-0.2313,-0.2276,-0.2187,-0.1854,-0.1408,-0.107,-0.0735,-0.0402,-0.0268,-0.0936,-0.154,-0.0669,-0.0335,-0.0873,-0.0402,-0.0,0.0404,0.0402,0.0808,0.1332,0.1516,0.1747,0.2113,0.2317,0.282,0.348,0.3781,0.3845,0.4062,0.4421,0.4672,0.5088,0.5162,0.5196,0.5223,0.5229,0.5226,0.5292,0.5229,0.5166,0.496,0.4894,0.4625,0.3889,0.3553,0.3161,0.2758,0.2624,0.2518,0.2408,0.2076,0.1707,0.1188,0.1204,0.1224,0.1243,0.133,0.1412,0.1414,0.1414,0.1493,0.1414,0.1335,0.1336,0.1022,0.055,0.0236,0.0079,-0.0079,-0.0314,-0.0314,-0.0157,-0.0,0.0078,0.0,0.0235,0.047,0.0313,0.0078,0.0157,0.0313,0.0783,0.141,0.1802,0.2272,0.2663,0.3134,0.337,0.3292,0.3137,0.2917,0.2997,0.2912,0.2914,0.2925,0.289,0.2936,0.2958,0.3062,0.3201,0.3349,0.3559,0.3771,0.3982,0.4117,0.3849,0.3583,0.3585,0.3496,0.3583,0.3671,0.4113,0.4912,0.5531,0.6242,-0.0637,-0.0493,-0.0,0.0201,0.0402,0.087,0.127,0.1405,0.1407,0.1072,0.0536,0.0805,0.0806,0.0471,0.0806,0.1206,0.1542,0.1459,0.1715,0.2027,0.2181,0.2445,0.2716,0.2984,0.3304,0.3893,0.4433,0.466,0.4837,0.482,0.4944,0.5223,0.5397,0.5428,0.5428,0.5428,0.5428,0.5428,0.5428,0.5435,0.5369,0.51,0.4556,0.4023,0.3792,0.3605,0.3571,0.3378,0.3436,0.3422,0.3309,0.2701,0.2182,0.1835,0.1703,0.164,0.1569,0.1649,0.1727,0.1805,0.1806,0.1727,0.1805,0.1884,0.1963,0.1492,0.1334,0.1177,0.102,0.0863,0.1098,0.1333,0.1332,0.1411,0.1097,0.094,0.1331,0.1566,0.1409,0.141,0.1802,0.2349,0.2741,0.282,0.3212,0.3214,0.3684,0.3763,0.3763,0.3864,0.3642,0.351,0.344,0.3436,0.3449,0.344,0.3439,0.3456,0.3461,0.3698,0.3853,0.4074,0.4297,0.4297,0.4297,0.4208,0.4121,0.4034,0.4302,0.4478,0.4563,0.4648,0.5534,0.6419,0.6956,0.0636,0.111,0.209,0.241,0.2348,0.2882,0.3082,0.2948,0.2549,0.2614,0.2813,0.1878,0.2018,0.202,0.2017,0.2211,0.2259,0.2159,0.246,0.2668,0.2851,0.2982,0.3109,0.3353,0.3776,0.4136,0.4642,0.4865,0.5021,0.5041,0.5182,0.5342,0.5428,0.5428,0.5428,0.5428,0.5428,0.5442,0.5452,0.5403,0.5125,0.4852,0.4322,0.3883,0.3591,0.3713,0.3822,0.393,0.421,0.413,0.4249,0.3473,0.2746,0.2244,0.218,0.204,0.196,0.2118,0.2275,0.2353,0.2353,0.2431,0.251,0.251,0.2511,0.2354,0.2196,0.2118,0.204,0.196,0.2275,0.2431,0.2431,0.2431,0.2037,0.1802,0.2272,0.2743,0.2665,0.2588,0.3057,0.3604,0.3684,0.3763,0.3763,0.3841,0.3843,0.3841,0.3853,0.3814,0.3764,0.3741,0.3788,0.3862,0.3846,0.3853,0.3791,0.3871,0.3884,0.4128,0.4271,0.4287,0.4297,0.4297,0.4297,0.4297,0.4387,0.4389,0.4835,0.5282,0.5719,0.5888,0.6422,0.7132,0.7492,0.2552,0.2899,0.3331,0.3211,0.2878,0.3284,0.322,0.2885,0.3151,0.3353,0.3416,0.3413,0.3215,0.3086,0.362,0.3584,0.2914,0.2815,0.2713,0.2787,0.338,0.3436,0.36,0.4039,0.4483,0.4763,0.4947,0.5031,0.5246,0.5329,0.5391,0.5425,0.5428,0.5428,0.5428,0.5428,0.5435,0.547,0.5481,0.5525,0.5549,0.5339,0.5339,0.5183,0.5256,0.5306,0.534,0.5425,0.551,0.5315,0.466,0.3859,0.3184,0.2652,0.2427,0.2431,0.2353,0.251,0.2668,0.2744,0.2744,0.2744,0.2744,0.2668,0.2668,0.2668,0.2589,0.2826,0.2668,0.251,0.2668,0.2902,0.2982,0.3059,0.2901,0.2979,0.337,0.3448,0.337,0.337,0.3528,0.3763,0.3763,0.3763,0.3763,0.3845,0.3779,0.3779,0.3853,0.3826,0.3972,0.4142,0.4311,0.4046,0.403,0.4054,0.4054,0.4134,0.4308,0.4524,0.455,0.4291,0.4387,0.4832,0.4565,0.4389,0.4478,0.4921,0.5191,0.5725,0.6694,0.7221,0.758,0.776,0.8028]}]]